<?xml version="1.0" encoding="UTF-8" standalone="no" ?>
<gpx xmlns="http://www.topografix.com/GPX/1/1" xmlns:xsi="http://www.w3.org/2001/XMLSchema-instance" xsi:schemaLocation="http://www.topografix.com/GPX/1/1 http://www.topografix.com/GPX/1/1/gpx.xsd" version="1.1" creator="VisuGPX - https://www.visugpx.com">
  <metadata>
    <name>131026ROBChristopheSignore</name>
    <desc><![CDATA[25km et 330m de dénivelé]]></desc>
  </metadata>
  <trk>
    <name><![CDATA[131026ROBChristopheSignore]]></name>
    <trkseg>
      <trkpt lat="43.40406" lon="6.06537">
        <ele>237</ele>
        <time>2013-10-26T12:09:55Z</time>
      </trkpt>
      <trkpt lat="43.40405" lon="6.06538">
        <ele>237</ele>
        <time>2013-10-26T12:09:58Z</time>
      </trkpt>
      <trkpt lat="43.40403" lon="6.06537">
        <ele>237.39999389648</ele>
        <time>2013-10-26T12:09:59Z</time>
      </trkpt>
      <trkpt lat="43.40403" lon="6.06538">
        <ele>237.39999389648</ele>
        <time>2013-10-26T12:10:00Z</time>
      </trkpt>
      <trkpt lat="43.40401" lon="6.06546">
        <ele>237.39999389648</ele>
        <time>2013-10-26T12:10:04Z</time>
      </trkpt>
      <trkpt lat="43.40401" lon="6.06549">
        <ele>237.39999389648</ele>
        <time>2013-10-26T12:10:06Z</time>
      </trkpt>
      <trkpt lat="43.40403" lon="6.06555">
        <ele>237.39999389648</ele>
        <time>2013-10-26T12:10:09Z</time>
      </trkpt>
      <trkpt lat="43.40411" lon="6.06561">
        <ele>237.39999389648</ele>
        <time>2013-10-26T12:10:14Z</time>
      </trkpt>
      <trkpt lat="43.40413" lon="6.06563">
        <ele>237.39999389648</ele>
        <time>2013-10-26T12:10:15Z</time>
      </trkpt>
      <trkpt lat="43.40424" lon="6.06567">
        <ele>237.39999389648</ele>
        <time>2013-10-26T12:10:19Z</time>
      </trkpt>
      <trkpt lat="43.40449" lon="6.06575">
        <ele>237.39999389648</ele>
        <time>2013-10-26T12:10:26Z</time>
      </trkpt>
      <trkpt lat="43.40456" lon="6.06578">
        <ele>237.39999389648</ele>
        <time>2013-10-26T12:10:28Z</time>
      </trkpt>
      <trkpt lat="43.40464" lon="6.0658">
        <ele>237</ele>
        <time>2013-10-26T12:10:30Z</time>
      </trkpt>
      <trkpt lat="43.40469" lon="6.06582">
        <ele>236.60000610352</ele>
        <time>2013-10-26T12:10:31Z</time>
      </trkpt>
      <trkpt lat="43.40478" lon="6.06585">
        <ele>235.60000610352</ele>
        <time>2013-10-26T12:10:33Z</time>
      </trkpt>
      <trkpt lat="43.40482" lon="6.06588">
        <ele>235.19999694824</ele>
        <time>2013-10-26T12:10:34Z</time>
      </trkpt>
      <trkpt lat="43.40486" lon="6.06604">
        <ele>235.19999694824</ele>
        <time>2013-10-26T12:10:37Z</time>
      </trkpt>
      <trkpt lat="43.40474" lon="6.06657">
        <ele>235.19999694824</ele>
        <time>2013-10-26T12:10:47Z</time>
      </trkpt>
      <trkpt lat="43.40461" lon="6.06706">
        <ele>235.19999694824</ele>
        <time>2013-10-26T12:10:57Z</time>
      </trkpt>
      <trkpt lat="43.40457" lon="6.06741">
        <ele>235.19999694824</ele>
        <time>2013-10-26T12:11:04Z</time>
      </trkpt>
      <trkpt lat="43.40458" lon="6.06777">
        <ele>235.19999694824</ele>
        <time>2013-10-26T12:11:11Z</time>
      </trkpt>
      <trkpt lat="43.40459" lon="6.06824">
        <ele>235.19999694824</ele>
        <time>2013-10-26T12:11:19Z</time>
      </trkpt>
      <trkpt lat="43.40457" lon="6.06848">
        <ele>235.19999694824</ele>
        <time>2013-10-26T12:11:23Z</time>
      </trkpt>
      <trkpt lat="43.40455" lon="6.06861">
        <ele>235.19999694824</ele>
        <time>2013-10-26T12:11:25Z</time>
      </trkpt>
      <trkpt lat="43.4045" lon="6.06883">
        <ele>235.19999694824</ele>
        <time>2013-10-26T12:11:29Z</time>
      </trkpt>
      <trkpt lat="43.40446" lon="6.06892">
        <ele>235.19999694824</ele>
        <time>2013-10-26T12:11:33Z</time>
      </trkpt>
      <trkpt lat="43.40438" lon="6.06907">
        <ele>235.19999694824</ele>
        <time>2013-10-26T12:11:37Z</time>
      </trkpt>
      <trkpt lat="43.40429" lon="6.06929">
        <ele>235.19999694824</ele>
        <time>2013-10-26T12:11:42Z</time>
      </trkpt>
      <trkpt lat="43.40421" lon="6.06953">
        <ele>235.19999694824</ele>
        <time>2013-10-26T12:11:47Z</time>
      </trkpt>
      <trkpt lat="43.40418" lon="6.06964">
        <ele>235.19999694824</ele>
        <time>2013-10-26T12:11:49Z</time>
      </trkpt>
      <trkpt lat="43.40416" lon="6.06975">
        <ele>235.19999694824</ele>
        <time>2013-10-26T12:11:51Z</time>
      </trkpt>
      <trkpt lat="43.40413" lon="6.07019">
        <ele>234.80000305176</ele>
        <time>2013-10-26T12:11:58Z</time>
      </trkpt>
      <trkpt lat="43.40411" lon="6.07034">
        <ele>234</ele>
        <time>2013-10-26T12:12:00Z</time>
      </trkpt>
      <trkpt lat="43.40408" lon="6.0705">
        <ele>233.19999694824</ele>
        <time>2013-10-26T12:12:02Z</time>
      </trkpt>
      <trkpt lat="43.40405" lon="6.07075">
        <ele>233.19999694824</ele>
        <time>2013-10-26T12:12:05Z</time>
      </trkpt>
      <trkpt lat="43.404" lon="6.07101">
        <ele>232.80000305176</ele>
        <time>2013-10-26T12:12:08Z</time>
      </trkpt>
      <trkpt lat="43.40396" lon="6.0712">
        <ele>231.80000305176</ele>
        <time>2013-10-26T12:12:10Z</time>
      </trkpt>
      <trkpt lat="43.40395" lon="6.07129">
        <ele>231.39999389648</ele>
        <time>2013-10-26T12:12:11Z</time>
      </trkpt>
      <trkpt lat="43.40394" lon="6.07138">
        <ele>231</ele>
        <time>2013-10-26T12:12:12Z</time>
      </trkpt>
      <trkpt lat="43.40384" lon="6.0721">
        <ele>231</ele>
        <time>2013-10-26T12:12:20Z</time>
      </trkpt>
      <trkpt lat="43.40379" lon="6.07234">
        <ele>231</ele>
        <time>2013-10-26T12:12:23Z</time>
      </trkpt>
      <trkpt lat="43.40377" lon="6.0724">
        <ele>231</ele>
        <time>2013-10-26T12:12:24Z</time>
      </trkpt>
      <trkpt lat="43.40364" lon="6.07258">
        <ele>231</ele>
        <time>2013-10-26T12:12:28Z</time>
      </trkpt>
      <trkpt lat="43.40362" lon="6.07273">
        <ele>231</ele>
        <time>2013-10-26T12:12:32Z</time>
      </trkpt>
      <trkpt lat="43.40371" lon="6.07286">
        <ele>231</ele>
        <time>2013-10-26T12:12:37Z</time>
      </trkpt>
      <trkpt lat="43.40382" lon="6.07287">
        <ele>231</ele>
        <time>2013-10-26T12:12:40Z</time>
      </trkpt>
      <trkpt lat="43.40386" lon="6.07285">
        <ele>231</ele>
        <time>2013-10-26T12:12:41Z</time>
      </trkpt>
      <trkpt lat="43.40405" lon="6.07281">
        <ele>231</ele>
        <time>2013-10-26T12:12:45Z</time>
      </trkpt>
      <trkpt lat="43.40414" lon="6.07282">
        <ele>231</ele>
        <time>2013-10-26T12:12:47Z</time>
      </trkpt>
      <trkpt lat="43.40425" lon="6.07282">
        <ele>230.60000610352</ele>
        <time>2013-10-26T12:12:49Z</time>
      </trkpt>
      <trkpt lat="43.40431" lon="6.07282">
        <ele>230.19999694824</ele>
        <time>2013-10-26T12:12:50Z</time>
      </trkpt>
      <trkpt lat="43.40437" lon="6.07282">
        <ele>229.60000610352</ele>
        <time>2013-10-26T12:12:51Z</time>
      </trkpt>
      <trkpt lat="43.40443" lon="6.07281">
        <ele>229.19999694824</ele>
        <time>2013-10-26T12:12:52Z</time>
      </trkpt>
      <trkpt lat="43.4045" lon="6.0728">
        <ele>228.80000305176</ele>
        <time>2013-10-26T12:12:53Z</time>
      </trkpt>
      <trkpt lat="43.40471" lon="6.07279">
        <ele>228.39999389648</ele>
        <time>2013-10-26T12:12:56Z</time>
      </trkpt>
      <trkpt lat="43.40477" lon="6.07279">
        <ele>228</ele>
        <time>2013-10-26T12:12:57Z</time>
      </trkpt>
      <trkpt lat="43.40483" lon="6.07278">
        <ele>227.39999389648</ele>
        <time>2013-10-26T12:12:58Z</time>
      </trkpt>
      <trkpt lat="43.4049" lon="6.07279">
        <ele>227</ele>
        <time>2013-10-26T12:12:59Z</time>
      </trkpt>
      <trkpt lat="43.40496" lon="6.07279">
        <ele>226.60000610352</ele>
        <time>2013-10-26T12:13:00Z</time>
      </trkpt>
      <trkpt lat="43.40506" lon="6.07283">
        <ele>226.60000610352</ele>
        <time>2013-10-26T12:13:02Z</time>
      </trkpt>
      <trkpt lat="43.40514" lon="6.07295">
        <ele>226.60000610352</ele>
        <time>2013-10-26T12:13:05Z</time>
      </trkpt>
      <trkpt lat="43.40524" lon="6.07299">
        <ele>226.60000610352</ele>
        <time>2013-10-26T12:13:08Z</time>
      </trkpt>
      <trkpt lat="43.40528" lon="6.07298">
        <ele>226.60000610352</ele>
        <time>2013-10-26T12:13:09Z</time>
      </trkpt>
      <trkpt lat="43.40545" lon="6.07299">
        <ele>226.60000610352</ele>
        <time>2013-10-26T12:13:13Z</time>
      </trkpt>
      <trkpt lat="43.4056" lon="6.07302">
        <ele>226.60000610352</ele>
        <time>2013-10-26T12:13:18Z</time>
      </trkpt>
      <trkpt lat="43.40561" lon="6.07302">
        <ele>226.19999694824</ele>
        <time>2013-10-26T12:13:19Z</time>
      </trkpt>
      <trkpt lat="43.40562" lon="6.07303">
        <ele>225.80000305176</ele>
        <time>2013-10-26T12:13:20Z</time>
      </trkpt>
      <trkpt lat="43.40562" lon="6.07303">
        <ele>225.39999389648</ele>
        <time>2013-10-26T12:13:21Z</time>
      </trkpt>
      <trkpt lat="43.40562" lon="6.07303">
        <ele>224.60000610352</ele>
        <time>2013-10-26T12:13:46Z</time>
      </trkpt>
      <trkpt lat="43.40562" lon="6.07303">
        <ele>224.60000610352</ele>
        <time>2013-10-26T12:14:07Z</time>
      </trkpt>
      <trkpt lat="43.40562" lon="6.07303">
        <ele>224.60000610352</ele>
        <time>2013-10-26T12:14:25Z</time>
      </trkpt>
      <trkpt lat="43.40564" lon="6.07303">
        <ele>224.60000610352</ele>
        <time>2013-10-26T12:14:40Z</time>
      </trkpt>
      <trkpt lat="43.40576" lon="6.07306">
        <ele>224.60000610352</ele>
        <time>2013-10-26T12:14:45Z</time>
      </trkpt>
      <trkpt lat="43.40579" lon="6.07309">
        <ele>224.60000610352</ele>
        <time>2013-10-26T12:14:46Z</time>
      </trkpt>
      <trkpt lat="43.40582" lon="6.07318">
        <ele>224.60000610352</ele>
        <time>2013-10-26T12:14:48Z</time>
      </trkpt>
      <trkpt lat="43.4058" lon="6.07335">
        <ele>224.60000610352</ele>
        <time>2013-10-26T12:14:51Z</time>
      </trkpt>
      <trkpt lat="43.4058" lon="6.07348">
        <ele>224.60000610352</ele>
        <time>2013-10-26T12:14:53Z</time>
      </trkpt>
      <trkpt lat="43.40578" lon="6.0738">
        <ele>224.60000610352</ele>
        <time>2013-10-26T12:14:58Z</time>
      </trkpt>
      <trkpt lat="43.40574" lon="6.07427">
        <ele>224.60000610352</ele>
        <time>2013-10-26T12:15:06Z</time>
      </trkpt>
      <trkpt lat="43.40572" lon="6.0745">
        <ele>224.60000610352</ele>
        <time>2013-10-26T12:15:10Z</time>
      </trkpt>
      <trkpt lat="43.4057" lon="6.07476">
        <ele>224.60000610352</ele>
        <time>2013-10-26T12:15:14Z</time>
      </trkpt>
      <trkpt lat="43.40565" lon="6.0753">
        <ele>224.60000610352</ele>
        <time>2013-10-26T12:15:22Z</time>
      </trkpt>
      <trkpt lat="43.40562" lon="6.0758">
        <ele>224.60000610352</ele>
        <time>2013-10-26T12:15:29Z</time>
      </trkpt>
      <trkpt lat="43.40561" lon="6.07648">
        <ele>224.60000610352</ele>
        <time>2013-10-26T12:15:38Z</time>
      </trkpt>
      <trkpt lat="43.4056" lon="6.07702">
        <ele>224.60000610352</ele>
        <time>2013-10-26T12:15:45Z</time>
      </trkpt>
      <trkpt lat="43.40558" lon="6.07757">
        <ele>224.60000610352</ele>
        <time>2013-10-26T12:15:52Z</time>
      </trkpt>
      <trkpt lat="43.40557" lon="6.07781">
        <ele>224.60000610352</ele>
        <time>2013-10-26T12:15:55Z</time>
      </trkpt>
      <trkpt lat="43.40555" lon="6.07865">
        <ele>224.60000610352</ele>
        <time>2013-10-26T12:16:06Z</time>
      </trkpt>
      <trkpt lat="43.40551" lon="6.07917">
        <ele>224.60000610352</ele>
        <time>2013-10-26T12:16:13Z</time>
      </trkpt>
      <trkpt lat="43.40545" lon="6.07985">
        <ele>224.60000610352</ele>
        <time>2013-10-26T12:16:22Z</time>
      </trkpt>
      <trkpt lat="43.40542" lon="6.08015">
        <ele>225</ele>
        <time>2013-10-26T12:16:26Z</time>
      </trkpt>
      <trkpt lat="43.4054" lon="6.08036">
        <ele>226.39999389648</ele>
        <time>2013-10-26T12:16:29Z</time>
      </trkpt>
      <trkpt lat="43.40538" lon="6.08044">
        <ele>226.80000305176</ele>
        <time>2013-10-26T12:16:30Z</time>
      </trkpt>
      <trkpt lat="43.40534" lon="6.08071">
        <ele>226.80000305176</ele>
        <time>2013-10-26T12:16:34Z</time>
      </trkpt>
      <trkpt lat="43.40532" lon="6.08084">
        <ele>226.80000305176</ele>
        <time>2013-10-26T12:16:36Z</time>
      </trkpt>
      <trkpt lat="43.40523" lon="6.0811">
        <ele>226.80000305176</ele>
        <time>2013-10-26T12:16:40Z</time>
      </trkpt>
      <trkpt lat="43.40516" lon="6.0812">
        <ele>226.80000305176</ele>
        <time>2013-10-26T12:16:42Z</time>
      </trkpt>
      <trkpt lat="43.40506" lon="6.08139">
        <ele>226.80000305176</ele>
        <time>2013-10-26T12:16:45Z</time>
      </trkpt>
      <trkpt lat="43.40504" lon="6.08146">
        <ele>226.80000305176</ele>
        <time>2013-10-26T12:16:46Z</time>
      </trkpt>
      <trkpt lat="43.40506" lon="6.08168">
        <ele>226.80000305176</ele>
        <time>2013-10-26T12:16:49Z</time>
      </trkpt>
      <trkpt lat="43.40511" lon="6.08181">
        <ele>226.80000305176</ele>
        <time>2013-10-26T12:16:51Z</time>
      </trkpt>
      <trkpt lat="43.40516" lon="6.08196">
        <ele>226.80000305176</ele>
        <time>2013-10-26T12:16:53Z</time>
      </trkpt>
      <trkpt lat="43.40516" lon="6.08203">
        <ele>226.80000305176</ele>
        <time>2013-10-26T12:16:54Z</time>
      </trkpt>
      <trkpt lat="43.40513" lon="6.08242">
        <ele>226.80000305176</ele>
        <time>2013-10-26T12:16:59Z</time>
      </trkpt>
      <trkpt lat="43.40508" lon="6.08303">
        <ele>226.80000305176</ele>
        <time>2013-10-26T12:17:07Z</time>
      </trkpt>
      <trkpt lat="43.40502" lon="6.08351">
        <ele>226.80000305176</ele>
        <time>2013-10-26T12:17:14Z</time>
      </trkpt>
      <trkpt lat="43.40498" lon="6.08389">
        <ele>226.80000305176</ele>
        <time>2013-10-26T12:17:20Z</time>
      </trkpt>
      <trkpt lat="43.40495" lon="6.08408">
        <ele>226.80000305176</ele>
        <time>2013-10-26T12:17:23Z</time>
      </trkpt>
      <trkpt lat="43.40489" lon="6.08455">
        <ele>226.80000305176</ele>
        <time>2013-10-26T12:17:30Z</time>
      </trkpt>
      <trkpt lat="43.40487" lon="6.08475">
        <ele>226.80000305176</ele>
        <time>2013-10-26T12:17:33Z</time>
      </trkpt>
      <trkpt lat="43.40479" lon="6.08545">
        <ele>226.80000305176</ele>
        <time>2013-10-26T12:17:44Z</time>
      </trkpt>
      <trkpt lat="43.40477" lon="6.08563">
        <ele>226.80000305176</ele>
        <time>2013-10-26T12:17:47Z</time>
      </trkpt>
      <trkpt lat="43.40475" lon="6.08587">
        <ele>227.19999694824</ele>
        <time>2013-10-26T12:17:51Z</time>
      </trkpt>
      <trkpt lat="43.40473" lon="6.08613">
        <ele>228.80000305176</ele>
        <time>2013-10-26T12:17:55Z</time>
      </trkpt>
      <trkpt lat="43.40469" lon="6.08641">
        <ele>228.80000305176</ele>
        <time>2013-10-26T12:17:59Z</time>
      </trkpt>
      <trkpt lat="43.40467" lon="6.08663">
        <ele>228.80000305176</ele>
        <time>2013-10-26T12:18:02Z</time>
      </trkpt>
      <trkpt lat="43.40465" lon="6.08684">
        <ele>228.80000305176</ele>
        <time>2013-10-26T12:18:05Z</time>
      </trkpt>
      <trkpt lat="43.40462" lon="6.08729">
        <ele>228.80000305176</ele>
        <time>2013-10-26T12:18:12Z</time>
      </trkpt>
      <trkpt lat="43.40461" lon="6.08734">
        <ele>229.39999389648</ele>
        <time>2013-10-26T12:18:13Z</time>
      </trkpt>
      <trkpt lat="43.40461" lon="6.08739">
        <ele>229.80000305176</ele>
        <time>2013-10-26T12:18:14Z</time>
      </trkpt>
      <trkpt lat="43.40461" lon="6.08743">
        <ele>230.19999694824</ele>
        <time>2013-10-26T12:18:15Z</time>
      </trkpt>
      <trkpt lat="43.4046" lon="6.08749">
        <ele>231</ele>
        <time>2013-10-26T12:18:17Z</time>
      </trkpt>
      <trkpt lat="43.40459" lon="6.08756">
        <ele>231</ele>
        <time>2013-10-26T12:18:20Z</time>
      </trkpt>
      <trkpt lat="43.40459" lon="6.08762">
        <ele>231</ele>
        <time>2013-10-26T12:18:24Z</time>
      </trkpt>
      <trkpt lat="43.40459" lon="6.08778">
        <ele>231</ele>
        <time>2013-10-26T12:18:29Z</time>
      </trkpt>
      <trkpt lat="43.40467" lon="6.08785">
        <ele>231</ele>
        <time>2013-10-26T12:18:32Z</time>
      </trkpt>
      <trkpt lat="43.40477" lon="6.08785">
        <ele>231</ele>
        <time>2013-10-26T12:18:34Z</time>
      </trkpt>
      <trkpt lat="43.40486" lon="6.08785">
        <ele>231</ele>
        <time>2013-10-26T12:18:36Z</time>
      </trkpt>
      <trkpt lat="43.40503" lon="6.08793">
        <ele>231</ele>
        <time>2013-10-26T12:18:40Z</time>
      </trkpt>
      <trkpt lat="43.40506" lon="6.08795">
        <ele>231</ele>
        <time>2013-10-26T12:18:41Z</time>
      </trkpt>
      <trkpt lat="43.40525" lon="6.08815">
        <ele>231</ele>
        <time>2013-10-26T12:18:47Z</time>
      </trkpt>
      <trkpt lat="43.40557" lon="6.08844">
        <ele>231.39999389648</ele>
        <time>2013-10-26T12:18:57Z</time>
      </trkpt>
      <trkpt lat="43.40563" lon="6.08851">
        <ele>232.19999694824</ele>
        <time>2013-10-26T12:18:59Z</time>
      </trkpt>
      <trkpt lat="43.40569" lon="6.08858">
        <ele>233.19999694824</ele>
        <time>2013-10-26T12:19:01Z</time>
      </trkpt>
      <trkpt lat="43.40585" lon="6.08876">
        <ele>233.19999694824</ele>
        <time>2013-10-26T12:19:07Z</time>
      </trkpt>
      <trkpt lat="43.40591" lon="6.0888">
        <ele>234</ele>
        <time>2013-10-26T12:19:09Z</time>
      </trkpt>
      <trkpt lat="43.40598" lon="6.08885">
        <ele>235.19999694824</ele>
        <time>2013-10-26T12:19:12Z</time>
      </trkpt>
      <trkpt lat="43.40604" lon="6.08888">
        <ele>235.19999694824</ele>
        <time>2013-10-26T12:19:14Z</time>
      </trkpt>
      <trkpt lat="43.40617" lon="6.08898">
        <ele>235.60000610352</ele>
        <time>2013-10-26T12:19:19Z</time>
      </trkpt>
      <trkpt lat="43.40628" lon="6.08906">
        <ele>237.19999694824</ele>
        <time>2013-10-26T12:19:23Z</time>
      </trkpt>
      <trkpt lat="43.40639" lon="6.08915">
        <ele>237.19999694824</ele>
        <time>2013-10-26T12:19:27Z</time>
      </trkpt>
      <trkpt lat="43.40656" lon="6.08931">
        <ele>237.80000305176</ele>
        <time>2013-10-26T12:19:33Z</time>
      </trkpt>
      <trkpt lat="43.40673" lon="6.08952">
        <ele>239.39999389648</ele>
        <time>2013-10-26T12:19:40Z</time>
      </trkpt>
      <trkpt lat="43.40688" lon="6.08977">
        <ele>240.19999694824</ele>
        <time>2013-10-26T12:19:47Z</time>
      </trkpt>
      <trkpt lat="43.40692" lon="6.0899">
        <ele>241.60000610352</ele>
        <time>2013-10-26T12:19:50Z</time>
      </trkpt>
      <trkpt lat="43.40696" lon="6.09008">
        <ele>241.60000610352</ele>
        <time>2013-10-26T12:19:54Z</time>
      </trkpt>
      <trkpt lat="43.40702" lon="6.09033">
        <ele>241.60000610352</ele>
        <time>2013-10-26T12:20:00Z</time>
      </trkpt>
      <trkpt lat="43.40706" lon="6.09049">
        <ele>242</ele>
        <time>2013-10-26T12:20:04Z</time>
      </trkpt>
      <trkpt lat="43.40709" lon="6.09061">
        <ele>243.60000610352</ele>
        <time>2013-10-26T12:20:07Z</time>
      </trkpt>
      <trkpt lat="43.40711" lon="6.09068">
        <ele>243.60000610352</ele>
        <time>2013-10-26T12:20:09Z</time>
      </trkpt>
      <trkpt lat="43.40723" lon="6.09122">
        <ele>244.39999389648</ele>
        <time>2013-10-26T12:20:22Z</time>
      </trkpt>
      <trkpt lat="43.40726" lon="6.09133">
        <ele>245.60000610352</ele>
        <time>2013-10-26T12:20:25Z</time>
      </trkpt>
      <trkpt lat="43.40731" lon="6.09156">
        <ele>245.60000610352</ele>
        <time>2013-10-26T12:20:31Z</time>
      </trkpt>
      <trkpt lat="43.40736" lon="6.09174">
        <ele>247.39999389648</ele>
        <time>2013-10-26T12:20:36Z</time>
      </trkpt>
      <trkpt lat="43.40744" lon="6.09212">
        <ele>248.19999694824</ele>
        <time>2013-10-26T12:20:46Z</time>
      </trkpt>
      <trkpt lat="43.40745" lon="6.0922">
        <ele>249</ele>
        <time>2013-10-26T12:20:48Z</time>
      </trkpt>
      <trkpt lat="43.40749" lon="6.09255">
        <ele>249.80000305176</ele>
        <time>2013-10-26T12:20:57Z</time>
      </trkpt>
      <trkpt lat="43.4075" lon="6.09271">
        <ele>250.60000610352</ele>
        <time>2013-10-26T12:21:01Z</time>
      </trkpt>
      <trkpt lat="43.40755" lon="6.09308">
        <ele>252</ele>
        <time>2013-10-26T12:21:10Z</time>
      </trkpt>
      <trkpt lat="43.40757" lon="6.09331">
        <ele>252</ele>
        <time>2013-10-26T12:21:15Z</time>
      </trkpt>
      <trkpt lat="43.40759" lon="6.09352">
        <ele>252.39999389648</ele>
        <time>2013-10-26T12:21:20Z</time>
      </trkpt>
      <trkpt lat="43.4076" lon="6.0937">
        <ele>254</ele>
        <time>2013-10-26T12:21:24Z</time>
      </trkpt>
      <trkpt lat="43.40765" lon="6.09396">
        <ele>254</ele>
        <time>2013-10-26T12:21:30Z</time>
      </trkpt>
      <trkpt lat="43.40776" lon="6.09424">
        <ele>254</ele>
        <time>2013-10-26T12:21:37Z</time>
      </trkpt>
      <trkpt lat="43.40783" lon="6.09462">
        <ele>254</ele>
        <time>2013-10-26T12:21:44Z</time>
      </trkpt>
      <trkpt lat="43.40784" lon="6.09474">
        <ele>254</ele>
        <time>2013-10-26T12:21:46Z</time>
      </trkpt>
      <trkpt lat="43.40789" lon="6.09498">
        <ele>254</ele>
        <time>2013-10-26T12:21:50Z</time>
      </trkpt>
      <trkpt lat="43.40799" lon="6.09511">
        <ele>253.60000610352</ele>
        <time>2013-10-26T12:21:53Z</time>
      </trkpt>
      <trkpt lat="43.40803" lon="6.09513">
        <ele>253.19999694824</ele>
        <time>2013-10-26T12:21:54Z</time>
      </trkpt>
      <trkpt lat="43.40807" lon="6.09515">
        <ele>252.80000305176</ele>
        <time>2013-10-26T12:21:55Z</time>
      </trkpt>
      <trkpt lat="43.40812" lon="6.09517">
        <ele>252.19999694824</ele>
        <time>2013-10-26T12:21:56Z</time>
      </trkpt>
      <trkpt lat="43.40816" lon="6.0952">
        <ele>251.80000305176</ele>
        <time>2013-10-26T12:21:57Z</time>
      </trkpt>
      <trkpt lat="43.40825" lon="6.09524">
        <ele>251.80000305176</ele>
        <time>2013-10-26T12:21:59Z</time>
      </trkpt>
      <trkpt lat="43.40834" lon="6.09529">
        <ele>251.80000305176</ele>
        <time>2013-10-26T12:22:01Z</time>
      </trkpt>
      <trkpt lat="43.40853" lon="6.09538">
        <ele>251.80000305176</ele>
        <time>2013-10-26T12:22:06Z</time>
      </trkpt>
      <trkpt lat="43.40863" lon="6.09543">
        <ele>251.80000305176</ele>
        <time>2013-10-26T12:22:09Z</time>
      </trkpt>
      <trkpt lat="43.40892" lon="6.09556">
        <ele>251.80000305176</ele>
        <time>2013-10-26T12:22:19Z</time>
      </trkpt>
      <trkpt lat="43.40897" lon="6.09557">
        <ele>251.80000305176</ele>
        <time>2013-10-26T12:22:21Z</time>
      </trkpt>
      <trkpt lat="43.40903" lon="6.09561">
        <ele>252.39999389648</ele>
        <time>2013-10-26T12:22:24Z</time>
      </trkpt>
      <trkpt lat="43.40906" lon="6.09563">
        <ele>252.80000305176</ele>
        <time>2013-10-26T12:22:26Z</time>
      </trkpt>
      <trkpt lat="43.4091" lon="6.09566">
        <ele>253.60000610352</ele>
        <time>2013-10-26T12:22:28Z</time>
      </trkpt>
      <trkpt lat="43.40913" lon="6.09567">
        <ele>254</ele>
        <time>2013-10-26T12:22:29Z</time>
      </trkpt>
      <trkpt lat="43.40929" lon="6.09573">
        <ele>256.20001220703</ele>
        <time>2013-10-26T12:22:36Z</time>
      </trkpt>
      <trkpt lat="43.4094" lon="6.09578">
        <ele>256.60000610352</ele>
        <time>2013-10-26T12:22:41Z</time>
      </trkpt>
      <trkpt lat="43.40945" lon="6.09581">
        <ele>257.79998779297</ele>
        <time>2013-10-26T12:22:44Z</time>
      </trkpt>
      <trkpt lat="43.40959" lon="6.09588">
        <ele>258.79998779297</ele>
        <time>2013-10-26T12:22:51Z</time>
      </trkpt>
      <trkpt lat="43.40964" lon="6.09591">
        <ele>260.39999389648</ele>
        <time>2013-10-26T12:22:55Z</time>
      </trkpt>
      <trkpt lat="43.4097" lon="6.09594">
        <ele>260.39999389648</ele>
        <time>2013-10-26T12:22:59Z</time>
      </trkpt>
      <trkpt lat="43.40974" lon="6.09596">
        <ele>261</ele>
        <time>2013-10-26T12:23:01Z</time>
      </trkpt>
      <trkpt lat="43.40981" lon="6.09599">
        <ele>262.79998779297</ele>
        <time>2013-10-26T12:23:05Z</time>
      </trkpt>
      <trkpt lat="43.40992" lon="6.09605">
        <ele>262.79998779297</ele>
        <time>2013-10-26T12:23:11Z</time>
      </trkpt>
      <trkpt lat="43.41002" lon="6.09611">
        <ele>265</ele>
        <time>2013-10-26T12:23:17Z</time>
      </trkpt>
      <trkpt lat="43.41013" lon="6.09616">
        <ele>265.39999389648</ele>
        <time>2013-10-26T12:23:23Z</time>
      </trkpt>
      <trkpt lat="43.41018" lon="6.09617">
        <ele>267</ele>
        <time>2013-10-26T12:23:26Z</time>
      </trkpt>
      <trkpt lat="43.4103" lon="6.09626">
        <ele>267.39999389648</ele>
        <time>2013-10-26T12:23:34Z</time>
      </trkpt>
      <trkpt lat="43.41044" lon="6.09635">
        <ele>269.60000610352</ele>
        <time>2013-10-26T12:23:44Z</time>
      </trkpt>
      <trkpt lat="43.41052" lon="6.09639">
        <ele>271.20001220703</ele>
        <time>2013-10-26T12:23:51Z</time>
      </trkpt>
      <trkpt lat="43.41053" lon="6.09639">
        <ele>271.20001220703</ele>
        <time>2013-10-26T12:23:52Z</time>
      </trkpt>
      <trkpt lat="43.41064" lon="6.09649">
        <ele>272.60000610352</ele>
        <time>2013-10-26T12:24:03Z</time>
      </trkpt>
      <trkpt lat="43.41065" lon="6.0965">
        <ele>273</ele>
        <time>2013-10-26T12:24:04Z</time>
      </trkpt>
      <trkpt lat="43.41067" lon="6.09651">
        <ele>273.39999389648</ele>
        <time>2013-10-26T12:24:06Z</time>
      </trkpt>
      <trkpt lat="43.41072" lon="6.09657">
        <ele>273.39999389648</ele>
        <time>2013-10-26T12:24:12Z</time>
      </trkpt>
      <trkpt lat="43.41076" lon="6.09663">
        <ele>273.39999389648</ele>
        <time>2013-10-26T12:24:16Z</time>
      </trkpt>
      <trkpt lat="43.41078" lon="6.09666">
        <ele>273.39999389648</ele>
        <time>2013-10-26T12:24:18Z</time>
      </trkpt>
      <trkpt lat="43.41088" lon="6.09683">
        <ele>275</ele>
        <time>2013-10-26T12:24:27Z</time>
      </trkpt>
      <trkpt lat="43.41101" lon="6.09708">
        <ele>275.39999389648</ele>
        <time>2013-10-26T12:24:36Z</time>
      </trkpt>
      <trkpt lat="43.41105" lon="6.09719">
        <ele>275.39999389648</ele>
        <time>2013-10-26T12:24:39Z</time>
      </trkpt>
      <trkpt lat="43.41114" lon="6.09744">
        <ele>275.39999389648</ele>
        <time>2013-10-26T12:24:45Z</time>
      </trkpt>
      <trkpt lat="43.41118" lon="6.09758">
        <ele>275.39999389648</ele>
        <time>2013-10-26T12:24:48Z</time>
      </trkpt>
      <trkpt lat="43.41121" lon="6.09766">
        <ele>275.39999389648</ele>
        <time>2013-10-26T12:24:50Z</time>
      </trkpt>
      <trkpt lat="43.41127" lon="6.09779">
        <ele>275.39999389648</ele>
        <time>2013-10-26T12:24:53Z</time>
      </trkpt>
      <trkpt lat="43.41141" lon="6.098">
        <ele>275</ele>
        <time>2013-10-26T12:24:57Z</time>
      </trkpt>
      <trkpt lat="43.41145" lon="6.09805">
        <ele>274.60000610352</ele>
        <time>2013-10-26T12:24:58Z</time>
      </trkpt>
      <trkpt lat="43.41148" lon="6.09811">
        <ele>274</ele>
        <time>2013-10-26T12:24:59Z</time>
      </trkpt>
      <trkpt lat="43.41152" lon="6.09817">
        <ele>273.60000610352</ele>
        <time>2013-10-26T12:25:00Z</time>
      </trkpt>
      <trkpt lat="43.41156" lon="6.09823">
        <ele>273.20001220703</ele>
        <time>2013-10-26T12:25:01Z</time>
      </trkpt>
      <trkpt lat="43.41159" lon="6.0983">
        <ele>273.20001220703</ele>
        <time>2013-10-26T12:25:02Z</time>
      </trkpt>
      <trkpt lat="43.41167" lon="6.09842">
        <ele>273.20001220703</ele>
        <time>2013-10-26T12:25:04Z</time>
      </trkpt>
      <trkpt lat="43.41174" lon="6.09855">
        <ele>272.79998779297</ele>
        <time>2013-10-26T12:25:06Z</time>
      </trkpt>
      <trkpt lat="43.41178" lon="6.0986">
        <ele>272.39999389648</ele>
        <time>2013-10-26T12:25:07Z</time>
      </trkpt>
      <trkpt lat="43.41186" lon="6.0987">
        <ele>271.60000610352</ele>
        <time>2013-10-26T12:25:09Z</time>
      </trkpt>
      <trkpt lat="43.4119" lon="6.09875">
        <ele>271.20001220703</ele>
        <time>2013-10-26T12:25:10Z</time>
      </trkpt>
      <trkpt lat="43.41212" lon="6.09902">
        <ele>271.20001220703</ele>
        <time>2013-10-26T12:25:16Z</time>
      </trkpt>
      <trkpt lat="43.41222" lon="6.09916">
        <ele>271.20001220703</ele>
        <time>2013-10-26T12:25:19Z</time>
      </trkpt>
      <trkpt lat="43.41229" lon="6.09924">
        <ele>271.20001220703</ele>
        <time>2013-10-26T12:25:21Z</time>
      </trkpt>
      <trkpt lat="43.41245" lon="6.09942">
        <ele>271.20001220703</ele>
        <time>2013-10-26T12:25:26Z</time>
      </trkpt>
      <trkpt lat="43.41251" lon="6.09951">
        <ele>271.20001220703</ele>
        <time>2013-10-26T12:25:28Z</time>
      </trkpt>
      <trkpt lat="43.4127" lon="6.09986">
        <ele>271.20001220703</ele>
        <time>2013-10-26T12:25:35Z</time>
      </trkpt>
      <trkpt lat="43.41269" lon="6.1">
        <ele>271.20001220703</ele>
        <time>2013-10-26T12:25:38Z</time>
      </trkpt>
      <trkpt lat="43.41261" lon="6.10008">
        <ele>271.20001220703</ele>
        <time>2013-10-26T12:25:41Z</time>
      </trkpt>
      <trkpt lat="43.41258" lon="6.1001">
        <ele>271.20001220703</ele>
        <time>2013-10-26T12:25:42Z</time>
      </trkpt>
      <trkpt lat="43.41248" lon="6.10015">
        <ele>271.20001220703</ele>
        <time>2013-10-26T12:25:45Z</time>
      </trkpt>
      <trkpt lat="43.41233" lon="6.10024">
        <ele>272</ele>
        <time>2013-10-26T12:25:50Z</time>
      </trkpt>
      <trkpt lat="43.41219" lon="6.10031">
        <ele>273.20001220703</ele>
        <time>2013-10-26T12:25:55Z</time>
      </trkpt>
      <trkpt lat="43.41215" lon="6.10037">
        <ele>273.60000610352</ele>
        <time>2013-10-26T12:25:57Z</time>
      </trkpt>
      <trkpt lat="43.41215" lon="6.10041">
        <ele>274</ele>
        <time>2013-10-26T12:25:58Z</time>
      </trkpt>
      <trkpt lat="43.41215" lon="6.10045">
        <ele>274.39999389648</ele>
        <time>2013-10-26T12:25:59Z</time>
      </trkpt>
      <trkpt lat="43.41217" lon="6.10053">
        <ele>275.39999389648</ele>
        <time>2013-10-26T12:26:01Z</time>
      </trkpt>
      <trkpt lat="43.4122" lon="6.10061">
        <ele>275.39999389648</ele>
        <time>2013-10-26T12:26:03Z</time>
      </trkpt>
      <trkpt lat="43.41229" lon="6.10095">
        <ele>275.39999389648</ele>
        <time>2013-10-26T12:26:10Z</time>
      </trkpt>
      <trkpt lat="43.41235" lon="6.1012">
        <ele>275.39999389648</ele>
        <time>2013-10-26T12:26:14Z</time>
      </trkpt>
      <trkpt lat="43.41239" lon="6.10132">
        <ele>275.39999389648</ele>
        <time>2013-10-26T12:26:16Z</time>
      </trkpt>
      <trkpt lat="43.41249" lon="6.10166">
        <ele>275.39999389648</ele>
        <time>2013-10-26T12:26:22Z</time>
      </trkpt>
      <trkpt lat="43.41255" lon="6.10184">
        <ele>275.39999389648</ele>
        <time>2013-10-26T12:26:25Z</time>
      </trkpt>
      <trkpt lat="43.41267" lon="6.10222">
        <ele>275.39999389648</ele>
        <time>2013-10-26T12:26:30Z</time>
      </trkpt>
      <trkpt lat="43.41269" lon="6.10228">
        <ele>275</ele>
        <time>2013-10-26T12:26:31Z</time>
      </trkpt>
      <trkpt lat="43.41271" lon="6.10234">
        <ele>274.39999389648</ele>
        <time>2013-10-26T12:26:32Z</time>
      </trkpt>
      <trkpt lat="43.41273" lon="6.10241">
        <ele>274</ele>
        <time>2013-10-26T12:26:33Z</time>
      </trkpt>
      <trkpt lat="43.41275" lon="6.10247">
        <ele>273.60000610352</ele>
        <time>2013-10-26T12:26:34Z</time>
      </trkpt>
      <trkpt lat="43.41277" lon="6.10253">
        <ele>273.20001220703</ele>
        <time>2013-10-26T12:26:35Z</time>
      </trkpt>
      <trkpt lat="43.41281" lon="6.10266">
        <ele>273.20001220703</ele>
        <time>2013-10-26T12:26:37Z</time>
      </trkpt>
      <trkpt lat="43.41291" lon="6.10289">
        <ele>273.20001220703</ele>
        <time>2013-10-26T12:26:42Z</time>
      </trkpt>
      <trkpt lat="43.41296" lon="6.10299">
        <ele>273.20001220703</ele>
        <time>2013-10-26T12:26:45Z</time>
      </trkpt>
      <trkpt lat="43.41298" lon="6.10302">
        <ele>273.60000610352</ele>
        <time>2013-10-26T12:26:46Z</time>
      </trkpt>
      <trkpt lat="43.41301" lon="6.10307">
        <ele>274.39999389648</ele>
        <time>2013-10-26T12:26:48Z</time>
      </trkpt>
      <trkpt lat="43.41303" lon="6.1031">
        <ele>274.79998779297</ele>
        <time>2013-10-26T12:26:49Z</time>
      </trkpt>
      <trkpt lat="43.41305" lon="6.10313">
        <ele>275.20001220703</ele>
        <time>2013-10-26T12:26:50Z</time>
      </trkpt>
      <trkpt lat="43.41312" lon="6.10331">
        <ele>275.20001220703</ele>
        <time>2013-10-26T12:26:54Z</time>
      </trkpt>
      <trkpt lat="43.41318" lon="6.10342">
        <ele>275.20001220703</ele>
        <time>2013-10-26T12:26:56Z</time>
      </trkpt>
      <trkpt lat="43.41329" lon="6.10367">
        <ele>275.20001220703</ele>
        <time>2013-10-26T12:27:02Z</time>
      </trkpt>
      <trkpt lat="43.41339" lon="6.10385">
        <ele>277</ele>
        <time>2013-10-26T12:27:08Z</time>
      </trkpt>
      <trkpt lat="43.4134" lon="6.10388">
        <ele>277.39999389648</ele>
        <time>2013-10-26T12:27:09Z</time>
      </trkpt>
      <trkpt lat="43.41344" lon="6.10397">
        <ele>277.39999389648</ele>
        <time>2013-10-26T12:27:12Z</time>
      </trkpt>
      <trkpt lat="43.41352" lon="6.10412">
        <ele>277.39999389648</ele>
        <time>2013-10-26T12:27:17Z</time>
      </trkpt>
      <trkpt lat="43.41363" lon="6.10432">
        <ele>277.39999389648</ele>
        <time>2013-10-26T12:27:22Z</time>
      </trkpt>
      <trkpt lat="43.41367" lon="6.1045">
        <ele>277.39999389648</ele>
        <time>2013-10-26T12:27:26Z</time>
      </trkpt>
      <trkpt lat="43.41372" lon="6.10465">
        <ele>277.39999389648</ele>
        <time>2013-10-26T12:27:30Z</time>
      </trkpt>
      <trkpt lat="43.41381" lon="6.10477">
        <ele>277.39999389648</ele>
        <time>2013-10-26T12:27:33Z</time>
      </trkpt>
      <trkpt lat="43.41386" lon="6.10487">
        <ele>277.39999389648</ele>
        <time>2013-10-26T12:27:35Z</time>
      </trkpt>
      <trkpt lat="43.41393" lon="6.10501">
        <ele>277.39999389648</ele>
        <time>2013-10-26T12:27:38Z</time>
      </trkpt>
      <trkpt lat="43.41397" lon="6.10512">
        <ele>277.39999389648</ele>
        <time>2013-10-26T12:27:40Z</time>
      </trkpt>
      <trkpt lat="43.41407" lon="6.10531">
        <ele>277.39999389648</ele>
        <time>2013-10-26T12:27:45Z</time>
      </trkpt>
      <trkpt lat="43.41409" lon="6.10539">
        <ele>277.39999389648</ele>
        <time>2013-10-26T12:27:47Z</time>
      </trkpt>
      <trkpt lat="43.41414" lon="6.10551">
        <ele>277.39999389648</ele>
        <time>2013-10-26T12:27:50Z</time>
      </trkpt>
      <trkpt lat="43.41416" lon="6.10556">
        <ele>277.39999389648</ele>
        <time>2013-10-26T12:27:51Z</time>
      </trkpt>
      <trkpt lat="43.41425" lon="6.10566">
        <ele>277.39999389648</ele>
        <time>2013-10-26T12:27:54Z</time>
      </trkpt>
      <trkpt lat="43.41432" lon="6.10568">
        <ele>276.79998779297</ele>
        <time>2013-10-26T12:27:56Z</time>
      </trkpt>
      <trkpt lat="43.41434" lon="6.10573">
        <ele>276.39999389648</ele>
        <time>2013-10-26T12:27:57Z</time>
      </trkpt>
      <trkpt lat="43.41439" lon="6.10592">
        <ele>274.79998779297</ele>
        <time>2013-10-26T12:28:00Z</time>
      </trkpt>
      <trkpt lat="43.41441" lon="6.10599">
        <ele>274.79998779297</ele>
        <time>2013-10-26T12:28:01Z</time>
      </trkpt>
      <trkpt lat="43.41443" lon="6.10622">
        <ele>274.39999389648</ele>
        <time>2013-10-26T12:28:04Z</time>
      </trkpt>
      <trkpt lat="43.41444" lon="6.10631">
        <ele>273.79998779297</ele>
        <time>2013-10-26T12:28:05Z</time>
      </trkpt>
      <trkpt lat="43.41445" lon="6.10641">
        <ele>273.39999389648</ele>
        <time>2013-10-26T12:28:06Z</time>
      </trkpt>
      <trkpt lat="43.41446" lon="6.1065">
        <ele>272.79998779297</ele>
        <time>2013-10-26T12:28:07Z</time>
      </trkpt>
      <trkpt lat="43.41446" lon="6.10659">
        <ele>272</ele>
        <time>2013-10-26T12:28:08Z</time>
      </trkpt>
      <trkpt lat="43.41447" lon="6.10667">
        <ele>271.39999389648</ele>
        <time>2013-10-26T12:28:09Z</time>
      </trkpt>
      <trkpt lat="43.41448" lon="6.10676">
        <ele>270.79998779297</ele>
        <time>2013-10-26T12:28:10Z</time>
      </trkpt>
      <trkpt lat="43.41449" lon="6.10684">
        <ele>270</ele>
        <time>2013-10-26T12:28:11Z</time>
      </trkpt>
      <trkpt lat="43.41453" lon="6.10706">
        <ele>269.60000610352</ele>
        <time>2013-10-26T12:28:14Z</time>
      </trkpt>
      <trkpt lat="43.41454" lon="6.10716">
        <ele>268.79998779297</ele>
        <time>2013-10-26T12:28:16Z</time>
      </trkpt>
      <trkpt lat="43.41456" lon="6.1072">
        <ele>268.20001220703</ele>
        <time>2013-10-26T12:28:17Z</time>
      </trkpt>
      <trkpt lat="43.41458" lon="6.10725">
        <ele>267.79998779297</ele>
        <time>2013-10-26T12:28:18Z</time>
      </trkpt>
      <trkpt lat="43.41465" lon="6.10746">
        <ele>267.79998779297</ele>
        <time>2013-10-26T12:28:22Z</time>
      </trkpt>
      <trkpt lat="43.41467" lon="6.10753">
        <ele>267.79998779297</ele>
        <time>2013-10-26T12:28:23Z</time>
      </trkpt>
      <trkpt lat="43.4147" lon="6.10776">
        <ele>267.79998779297</ele>
        <time>2013-10-26T12:28:26Z</time>
      </trkpt>
      <trkpt lat="43.4147" lon="6.10783">
        <ele>267.79998779297</ele>
        <time>2013-10-26T12:28:27Z</time>
      </trkpt>
      <trkpt lat="43.41466" lon="6.10803">
        <ele>267.79998779297</ele>
        <time>2013-10-26T12:28:30Z</time>
      </trkpt>
      <trkpt lat="43.41465" lon="6.1081">
        <ele>267.79998779297</ele>
        <time>2013-10-26T12:28:31Z</time>
      </trkpt>
      <trkpt lat="43.41459" lon="6.10831">
        <ele>267.39999389648</ele>
        <time>2013-10-26T12:28:34Z</time>
      </trkpt>
      <trkpt lat="43.41456" lon="6.10838">
        <ele>266.79998779297</ele>
        <time>2013-10-26T12:28:35Z</time>
      </trkpt>
      <trkpt lat="43.4145" lon="6.10849">
        <ele>266</ele>
        <time>2013-10-26T12:28:37Z</time>
      </trkpt>
      <trkpt lat="43.41446" lon="6.10853">
        <ele>265.39999389648</ele>
        <time>2013-10-26T12:28:38Z</time>
      </trkpt>
      <trkpt lat="43.41436" lon="6.10856">
        <ele>265.39999389648</ele>
        <time>2013-10-26T12:28:41Z</time>
      </trkpt>
      <trkpt lat="43.41428" lon="6.10857">
        <ele>265</ele>
        <time>2013-10-26T12:28:43Z</time>
      </trkpt>
      <trkpt lat="43.4141" lon="6.10857">
        <ele>263.20001220703</ele>
        <time>2013-10-26T12:28:46Z</time>
      </trkpt>
      <trkpt lat="43.41396" lon="6.10859">
        <ele>261.39999389648</ele>
        <time>2013-10-26T12:28:49Z</time>
      </trkpt>
      <trkpt lat="43.41392" lon="6.10861">
        <ele>260.60000610352</ele>
        <time>2013-10-26T12:28:50Z</time>
      </trkpt>
      <trkpt lat="43.41388" lon="6.10863">
        <ele>260</ele>
        <time>2013-10-26T12:28:51Z</time>
      </trkpt>
      <trkpt lat="43.4138" lon="6.10866">
        <ele>258.60000610352</ele>
        <time>2013-10-26T12:28:53Z</time>
      </trkpt>
      <trkpt lat="43.41376" lon="6.10868">
        <ele>257.79998779297</ele>
        <time>2013-10-26T12:28:54Z</time>
      </trkpt>
      <trkpt lat="43.41369" lon="6.10874">
        <ele>256</ele>
        <time>2013-10-26T12:28:56Z</time>
      </trkpt>
      <trkpt lat="43.41367" lon="6.10877">
        <ele>255</ele>
        <time>2013-10-26T12:28:57Z</time>
      </trkpt>
      <trkpt lat="43.41362" lon="6.10881">
        <ele>254</ele>
        <time>2013-10-26T12:28:58Z</time>
      </trkpt>
      <trkpt lat="43.41357" lon="6.10886">
        <ele>252</ele>
        <time>2013-10-26T12:29:00Z</time>
      </trkpt>
      <trkpt lat="43.41356" lon="6.10889">
        <ele>251</ele>
        <time>2013-10-26T12:29:01Z</time>
      </trkpt>
      <trkpt lat="43.41355" lon="6.10894">
        <ele>250</ele>
        <time>2013-10-26T12:29:02Z</time>
      </trkpt>
      <trkpt lat="43.41351" lon="6.10903">
        <ele>248.19999694824</ele>
        <time>2013-10-26T12:29:04Z</time>
      </trkpt>
      <trkpt lat="43.41349" lon="6.10906">
        <ele>247.39999389648</ele>
        <time>2013-10-26T12:29:05Z</time>
      </trkpt>
      <trkpt lat="43.41347" lon="6.1091">
        <ele>246.39999389648</ele>
        <time>2013-10-26T12:29:06Z</time>
      </trkpt>
      <trkpt lat="43.41339" lon="6.10919">
        <ele>243.39999389648</ele>
        <time>2013-10-26T12:29:09Z</time>
      </trkpt>
      <trkpt lat="43.41337" lon="6.10923">
        <ele>242.60000610352</ele>
        <time>2013-10-26T12:29:10Z</time>
      </trkpt>
      <trkpt lat="43.41335" lon="6.10927">
        <ele>242</ele>
        <time>2013-10-26T12:29:11Z</time>
      </trkpt>
      <trkpt lat="43.41326" lon="6.10944">
        <ele>240.60000610352</ele>
        <time>2013-10-26T12:29:14Z</time>
      </trkpt>
      <trkpt lat="43.41322" lon="6.10949">
        <ele>240</ele>
        <time>2013-10-26T12:29:15Z</time>
      </trkpt>
      <trkpt lat="43.41312" lon="6.10957">
        <ele>238.80000305176</ele>
        <time>2013-10-26T12:29:17Z</time>
      </trkpt>
      <trkpt lat="43.41309" lon="6.10959">
        <ele>238.19999694824</ele>
        <time>2013-10-26T12:29:18Z</time>
      </trkpt>
      <trkpt lat="43.41308" lon="6.10963">
        <ele>237.60000610352</ele>
        <time>2013-10-26T12:29:19Z</time>
      </trkpt>
      <trkpt lat="43.41306" lon="6.10968">
        <ele>237.19999694824</ele>
        <time>2013-10-26T12:29:20Z</time>
      </trkpt>
      <trkpt lat="43.41304" lon="6.10974">
        <ele>236.80000305176</ele>
        <time>2013-10-26T12:29:21Z</time>
      </trkpt>
      <trkpt lat="43.41303" lon="6.1098">
        <ele>236.39999389648</ele>
        <time>2013-10-26T12:29:22Z</time>
      </trkpt>
      <trkpt lat="43.41302" lon="6.10986">
        <ele>235.80000305176</ele>
        <time>2013-10-26T12:29:23Z</time>
      </trkpt>
      <trkpt lat="43.41294" lon="6.11006">
        <ele>233.80000305176</ele>
        <time>2013-10-26T12:29:26Z</time>
      </trkpt>
      <trkpt lat="43.41292" lon="6.11013">
        <ele>233.19999694824</ele>
        <time>2013-10-26T12:29:27Z</time>
      </trkpt>
      <trkpt lat="43.4129" lon="6.1102">
        <ele>232.39999389648</ele>
        <time>2013-10-26T12:29:28Z</time>
      </trkpt>
      <trkpt lat="43.41289" lon="6.11029">
        <ele>231.60000610352</ele>
        <time>2013-10-26T12:29:29Z</time>
      </trkpt>
      <trkpt lat="43.41289" lon="6.11044">
        <ele>229.80000305176</ele>
        <time>2013-10-26T12:29:31Z</time>
      </trkpt>
      <trkpt lat="43.41288" lon="6.1105">
        <ele>228.80000305176</ele>
        <time>2013-10-26T12:29:32Z</time>
      </trkpt>
      <trkpt lat="43.41286" lon="6.11055">
        <ele>227</ele>
        <time>2013-10-26T12:29:33Z</time>
      </trkpt>
      <trkpt lat="43.41283" lon="6.11057">
        <ele>226</ele>
        <time>2013-10-26T12:29:34Z</time>
      </trkpt>
      <trkpt lat="43.41275" lon="6.11062">
        <ele>224.19999694824</ele>
        <time>2013-10-26T12:29:36Z</time>
      </trkpt>
      <trkpt lat="43.41269" lon="6.11064">
        <ele>223.39999389648</ele>
        <time>2013-10-26T12:29:37Z</time>
      </trkpt>
      <trkpt lat="43.41257" lon="6.11066">
        <ele>221.80000305176</ele>
        <time>2013-10-26T12:29:39Z</time>
      </trkpt>
      <trkpt lat="43.41247" lon="6.11073">
        <ele>220.39999389648</ele>
        <time>2013-10-26T12:29:41Z</time>
      </trkpt>
      <trkpt lat="43.41244" lon="6.11076">
        <ele>219.60000610352</ele>
        <time>2013-10-26T12:29:42Z</time>
      </trkpt>
      <trkpt lat="43.41243" lon="6.11077">
        <ele>219.19999694824</ele>
        <time>2013-10-26T12:29:43Z</time>
      </trkpt>
      <trkpt lat="43.41243" lon="6.11077">
        <ele>218.80000305176</ele>
        <time>2013-10-26T12:29:44Z</time>
      </trkpt>
      <trkpt lat="43.41243" lon="6.11077">
        <ele>217.60000610352</ele>
        <time>2013-10-26T12:30:00Z</time>
      </trkpt>
      <trkpt lat="43.41243" lon="6.11078">
        <ele>217.60000610352</ele>
        <time>2013-10-26T12:31:07Z</time>
      </trkpt>
      <trkpt lat="43.41243" lon="6.11078">
        <ele>217.60000610352</ele>
        <time>2013-10-26T12:31:29Z</time>
      </trkpt>
      <trkpt lat="43.41244" lon="6.11078">
        <ele>217.60000610352</ele>
        <time>2013-10-26T12:31:55Z</time>
      </trkpt>
      <trkpt lat="43.41244" lon="6.11078">
        <ele>217.60000610352</ele>
        <time>2013-10-26T12:32:18Z</time>
      </trkpt>
      <trkpt lat="43.41244" lon="6.11078">
        <ele>217.60000610352</ele>
        <time>2013-10-26T12:32:30Z</time>
      </trkpt>
      <trkpt lat="43.41244" lon="6.11078">
        <ele>217.60000610352</ele>
        <time>2013-10-26T12:32:48Z</time>
      </trkpt>
      <trkpt lat="43.41244" lon="6.11079">
        <ele>217.60000610352</ele>
        <time>2013-10-26T12:32:51Z</time>
      </trkpt>
      <trkpt lat="43.41247" lon="6.11082">
        <ele>216.60000610352</ele>
        <time>2013-10-26T12:32:53Z</time>
      </trkpt>
      <trkpt lat="43.41248" lon="6.11083">
        <ele>216.19999694824</ele>
        <time>2013-10-26T12:32:54Z</time>
      </trkpt>
      <trkpt lat="43.41251" lon="6.11084">
        <ele>215.80000305176</ele>
        <time>2013-10-26T12:32:55Z</time>
      </trkpt>
      <trkpt lat="43.41253" lon="6.11085">
        <ele>215.39999389648</ele>
        <time>2013-10-26T12:32:56Z</time>
      </trkpt>
      <trkpt lat="43.41257" lon="6.11087">
        <ele>215.39999389648</ele>
        <time>2013-10-26T12:32:57Z</time>
      </trkpt>
      <trkpt lat="43.41261" lon="6.11089">
        <ele>215.39999389648</ele>
        <time>2013-10-26T12:32:58Z</time>
      </trkpt>
      <trkpt lat="43.41271" lon="6.11092">
        <ele>215.39999389648</ele>
        <time>2013-10-26T12:33:00Z</time>
      </trkpt>
      <trkpt lat="43.41276" lon="6.11095">
        <ele>215</ele>
        <time>2013-10-26T12:33:01Z</time>
      </trkpt>
      <trkpt lat="43.41281" lon="6.11098">
        <ele>214.60000610352</ele>
        <time>2013-10-26T12:33:02Z</time>
      </trkpt>
      <trkpt lat="43.41285" lon="6.111">
        <ele>214.19999694824</ele>
        <time>2013-10-26T12:33:03Z</time>
      </trkpt>
      <trkpt lat="43.41289" lon="6.11101">
        <ele>213.80000305176</ele>
        <time>2013-10-26T12:33:04Z</time>
      </trkpt>
      <trkpt lat="43.41293" lon="6.11101">
        <ele>213.39999389648</ele>
        <time>2013-10-26T12:33:05Z</time>
      </trkpt>
      <trkpt lat="43.41298" lon="6.11106">
        <ele>213.39999389648</ele>
        <time>2013-10-26T12:33:08Z</time>
      </trkpt>
      <trkpt lat="43.41298" lon="6.11107">
        <ele>213.39999389648</ele>
        <time>2013-10-26T12:33:09Z</time>
      </trkpt>
      <trkpt lat="43.41299" lon="6.11117">
        <ele>213.39999389648</ele>
        <time>2013-10-26T12:33:12Z</time>
      </trkpt>
      <trkpt lat="43.41298" lon="6.11123">
        <ele>213.39999389648</ele>
        <time>2013-10-26T12:33:14Z</time>
      </trkpt>
      <trkpt lat="43.41298" lon="6.11133">
        <ele>213</ele>
        <time>2013-10-26T12:33:17Z</time>
      </trkpt>
      <trkpt lat="43.41296" lon="6.11146">
        <ele>211.19999694824</ele>
        <time>2013-10-26T12:33:21Z</time>
      </trkpt>
      <trkpt lat="43.41288" lon="6.11191">
        <ele>211.19999694824</ele>
        <time>2013-10-26T12:33:33Z</time>
      </trkpt>
      <trkpt lat="43.41282" lon="6.11215">
        <ele>211.19999694824</ele>
        <time>2013-10-26T12:33:39Z</time>
      </trkpt>
      <trkpt lat="43.4128" lon="6.11222">
        <ele>211.19999694824</ele>
        <time>2013-10-26T12:33:41Z</time>
      </trkpt>
      <trkpt lat="43.4128" lon="6.11237">
        <ele>211.19999694824</ele>
        <time>2013-10-26T12:33:46Z</time>
      </trkpt>
      <trkpt lat="43.41282" lon="6.11239">
        <ele>211.19999694824</ele>
        <time>2013-10-26T12:33:47Z</time>
      </trkpt>
      <trkpt lat="43.41293" lon="6.11256">
        <ele>211.19999694824</ele>
        <time>2013-10-26T12:33:54Z</time>
      </trkpt>
      <trkpt lat="43.41301" lon="6.11274">
        <ele>211.19999694824</ele>
        <time>2013-10-26T12:34:00Z</time>
      </trkpt>
      <trkpt lat="43.41312" lon="6.11296">
        <ele>211.19999694824</ele>
        <time>2013-10-26T12:34:07Z</time>
      </trkpt>
      <trkpt lat="43.41322" lon="6.11308">
        <ele>211.19999694824</ele>
        <time>2013-10-26T12:34:12Z</time>
      </trkpt>
      <trkpt lat="43.41339" lon="6.11313">
        <ele>211.19999694824</ele>
        <time>2013-10-26T12:34:18Z</time>
      </trkpt>
      <trkpt lat="43.41357" lon="6.1132">
        <ele>211.19999694824</ele>
        <time>2013-10-26T12:34:24Z</time>
      </trkpt>
      <trkpt lat="43.41376" lon="6.11325">
        <ele>212.60000610352</ele>
        <time>2013-10-26T12:34:32Z</time>
      </trkpt>
      <trkpt lat="43.41379" lon="6.11332">
        <ele>213.39999389648</ele>
        <time>2013-10-26T12:34:35Z</time>
      </trkpt>
      <trkpt lat="43.41378" lon="6.11339">
        <ele>213.39999389648</ele>
        <time>2013-10-26T12:34:38Z</time>
      </trkpt>
      <trkpt lat="43.41377" lon="6.11345">
        <ele>213.80000305176</ele>
        <time>2013-10-26T12:34:40Z</time>
      </trkpt>
      <trkpt lat="43.41376" lon="6.11352">
        <ele>214.60000610352</ele>
        <time>2013-10-26T12:34:42Z</time>
      </trkpt>
      <trkpt lat="43.41376" lon="6.11355">
        <ele>215</ele>
        <time>2013-10-26T12:34:43Z</time>
      </trkpt>
      <trkpt lat="43.41373" lon="6.11369">
        <ele>215.39999389648</ele>
        <time>2013-10-26T12:34:47Z</time>
      </trkpt>
      <trkpt lat="43.41362" lon="6.11407">
        <ele>216.19999694824</ele>
        <time>2013-10-26T12:34:57Z</time>
      </trkpt>
      <trkpt lat="43.41359" lon="6.1142">
        <ele>217.39999389648</ele>
        <time>2013-10-26T12:35:00Z</time>
      </trkpt>
      <trkpt lat="43.41356" lon="6.11434">
        <ele>217.39999389648</ele>
        <time>2013-10-26T12:35:03Z</time>
      </trkpt>
      <trkpt lat="43.41355" lon="6.11462">
        <ele>217.39999389648</ele>
        <time>2013-10-26T12:35:09Z</time>
      </trkpt>
      <trkpt lat="43.41361" lon="6.11515">
        <ele>217.39999389648</ele>
        <time>2013-10-26T12:35:22Z</time>
      </trkpt>
      <trkpt lat="43.41363" lon="6.11537">
        <ele>217.39999389648</ele>
        <time>2013-10-26T12:35:28Z</time>
      </trkpt>
      <trkpt lat="43.41357" lon="6.1155">
        <ele>217.39999389648</ele>
        <time>2013-10-26T12:35:32Z</time>
      </trkpt>
      <trkpt lat="43.4134" lon="6.11558">
        <ele>217.39999389648</ele>
        <time>2013-10-26T12:35:37Z</time>
      </trkpt>
      <trkpt lat="43.41312" lon="6.11566">
        <ele>217.39999389648</ele>
        <time>2013-10-26T12:35:45Z</time>
      </trkpt>
      <trkpt lat="43.41296" lon="6.1158">
        <ele>217.39999389648</ele>
        <time>2013-10-26T12:35:50Z</time>
      </trkpt>
      <trkpt lat="43.41276" lon="6.11604">
        <ele>217.39999389648</ele>
        <time>2013-10-26T12:35:57Z</time>
      </trkpt>
      <trkpt lat="43.41255" lon="6.11625">
        <ele>218.19999694824</ele>
        <time>2013-10-26T12:36:04Z</time>
      </trkpt>
      <trkpt lat="43.41226" lon="6.11656">
        <ele>219.39999389648</ele>
        <time>2013-10-26T12:36:15Z</time>
      </trkpt>
      <trkpt lat="43.41211" lon="6.11675">
        <ele>219.39999389648</ele>
        <time>2013-10-26T12:36:22Z</time>
      </trkpt>
      <trkpt lat="43.4121" lon="6.11683">
        <ele>219.80000305176</ele>
        <time>2013-10-26T12:36:25Z</time>
      </trkpt>
      <trkpt lat="43.41219" lon="6.1169">
        <ele>221.60000610352</ele>
        <time>2013-10-26T12:36:29Z</time>
      </trkpt>
      <trkpt lat="43.41225" lon="6.11697">
        <ele>221.60000610352</ele>
        <time>2013-10-26T12:36:32Z</time>
      </trkpt>
      <trkpt lat="43.41239" lon="6.11709">
        <ele>222.80000305176</ele>
        <time>2013-10-26T12:36:39Z</time>
      </trkpt>
      <trkpt lat="43.41248" lon="6.1172">
        <ele>223.60000610352</ele>
        <time>2013-10-26T12:36:44Z</time>
      </trkpt>
      <trkpt lat="43.41256" lon="6.11732">
        <ele>224</ele>
        <time>2013-10-26T12:36:49Z</time>
      </trkpt>
      <trkpt lat="43.41265" lon="6.1175">
        <ele>225.80000305176</ele>
        <time>2013-10-26T12:36:57Z</time>
      </trkpt>
      <trkpt lat="43.41268" lon="6.11753">
        <ele>225.80000305176</ele>
        <time>2013-10-26T12:36:59Z</time>
      </trkpt>
      <trkpt lat="43.41267" lon="6.11757">
        <ele>225.80000305176</ele>
        <time>2013-10-26T12:37:01Z</time>
      </trkpt>
      <trkpt lat="43.41266" lon="6.11762">
        <ele>225.80000305176</ele>
        <time>2013-10-26T12:37:03Z</time>
      </trkpt>
      <trkpt lat="43.41265" lon="6.11772">
        <ele>225.80000305176</ele>
        <time>2013-10-26T12:37:07Z</time>
      </trkpt>
      <trkpt lat="43.41266" lon="6.11778">
        <ele>226.60000610352</ele>
        <time>2013-10-26T12:37:09Z</time>
      </trkpt>
      <trkpt lat="43.41265" lon="6.11782">
        <ele>227</ele>
        <time>2013-10-26T12:37:10Z</time>
      </trkpt>
      <trkpt lat="43.41265" lon="6.11786">
        <ele>227.39999389648</ele>
        <time>2013-10-26T12:37:11Z</time>
      </trkpt>
      <trkpt lat="43.41265" lon="6.11795">
        <ele>227.80000305176</ele>
        <time>2013-10-26T12:37:13Z</time>
      </trkpt>
      <trkpt lat="43.41263" lon="6.1182">
        <ele>227.80000305176</ele>
        <time>2013-10-26T12:37:17Z</time>
      </trkpt>
      <trkpt lat="43.41263" lon="6.11826">
        <ele>227.80000305176</ele>
        <time>2013-10-26T12:37:18Z</time>
      </trkpt>
      <trkpt lat="43.4126" lon="6.11858">
        <ele>227.80000305176</ele>
        <time>2013-10-26T12:37:24Z</time>
      </trkpt>
      <trkpt lat="43.4126" lon="6.11863">
        <ele>227.80000305176</ele>
        <time>2013-10-26T12:37:25Z</time>
      </trkpt>
      <trkpt lat="43.41256" lon="6.11892">
        <ele>227.80000305176</ele>
        <time>2013-10-26T12:37:31Z</time>
      </trkpt>
      <trkpt lat="43.41255" lon="6.11916">
        <ele>227.80000305176</ele>
        <time>2013-10-26T12:37:37Z</time>
      </trkpt>
      <trkpt lat="43.41252" lon="6.11946">
        <ele>227.80000305176</ele>
        <time>2013-10-26T12:37:44Z</time>
      </trkpt>
      <trkpt lat="43.41248" lon="6.11975">
        <ele>227.80000305176</ele>
        <time>2013-10-26T12:37:51Z</time>
      </trkpt>
      <trkpt lat="43.41246" lon="6.12002">
        <ele>227.80000305176</ele>
        <time>2013-10-26T12:37:57Z</time>
      </trkpt>
      <trkpt lat="43.41251" lon="6.12029">
        <ele>227.80000305176</ele>
        <time>2013-10-26T12:38:02Z</time>
      </trkpt>
      <trkpt lat="43.41257" lon="6.12047">
        <ele>227.80000305176</ele>
        <time>2013-10-26T12:38:05Z</time>
      </trkpt>
      <trkpt lat="43.41261" lon="6.12057">
        <ele>227.80000305176</ele>
        <time>2013-10-26T12:38:08Z</time>
      </trkpt>
      <trkpt lat="43.41264" lon="6.12078">
        <ele>227.80000305176</ele>
        <time>2013-10-26T12:38:13Z</time>
      </trkpt>
      <trkpt lat="43.41266" lon="6.12087">
        <ele>227.80000305176</ele>
        <time>2013-10-26T12:38:16Z</time>
      </trkpt>
      <trkpt lat="43.41268" lon="6.12092">
        <ele>227.80000305176</ele>
        <time>2013-10-26T12:38:18Z</time>
      </trkpt>
      <trkpt lat="43.41274" lon="6.1211">
        <ele>227.80000305176</ele>
        <time>2013-10-26T12:38:22Z</time>
      </trkpt>
      <trkpt lat="43.4128" lon="6.12123">
        <ele>227.80000305176</ele>
        <time>2013-10-26T12:38:26Z</time>
      </trkpt>
      <trkpt lat="43.41282" lon="6.1214">
        <ele>227.80000305176</ele>
        <time>2013-10-26T12:38:32Z</time>
      </trkpt>
      <trkpt lat="43.41284" lon="6.12152">
        <ele>227.80000305176</ele>
        <time>2013-10-26T12:38:38Z</time>
      </trkpt>
      <trkpt lat="43.41285" lon="6.12158">
        <ele>227.80000305176</ele>
        <time>2013-10-26T12:38:44Z</time>
      </trkpt>
      <trkpt lat="43.41289" lon="6.12173">
        <ele>227.80000305176</ele>
        <time>2013-10-26T12:38:49Z</time>
      </trkpt>
      <trkpt lat="43.4129" lon="6.1218">
        <ele>227.80000305176</ele>
        <time>2013-10-26T12:38:51Z</time>
      </trkpt>
      <trkpt lat="43.41287" lon="6.12201">
        <ele>227.80000305176</ele>
        <time>2013-10-26T12:38:56Z</time>
      </trkpt>
      <trkpt lat="43.41283" lon="6.12226">
        <ele>227.80000305176</ele>
        <time>2013-10-26T12:39:02Z</time>
      </trkpt>
      <trkpt lat="43.41279" lon="6.12255">
        <ele>227.80000305176</ele>
        <time>2013-10-26T12:39:08Z</time>
      </trkpt>
      <trkpt lat="43.41275" lon="6.12284">
        <ele>227.80000305176</ele>
        <time>2013-10-26T12:39:14Z</time>
      </trkpt>
      <trkpt lat="43.41273" lon="6.12325">
        <ele>229.80000305176</ele>
        <time>2013-10-26T12:39:23Z</time>
      </trkpt>
      <trkpt lat="43.41272" lon="6.12344">
        <ele>229.80000305176</ele>
        <time>2013-10-26T12:39:27Z</time>
      </trkpt>
      <trkpt lat="43.41268" lon="6.12366">
        <ele>229.80000305176</ele>
        <time>2013-10-26T12:39:32Z</time>
      </trkpt>
      <trkpt lat="43.41264" lon="6.12392">
        <ele>229.80000305176</ele>
        <time>2013-10-26T12:39:38Z</time>
      </trkpt>
      <trkpt lat="43.41261" lon="6.12409">
        <ele>230.60000610352</ele>
        <time>2013-10-26T12:39:42Z</time>
      </trkpt>
      <trkpt lat="43.41257" lon="6.12431">
        <ele>232</ele>
        <time>2013-10-26T12:39:48Z</time>
      </trkpt>
      <trkpt lat="43.41254" lon="6.12452">
        <ele>232</ele>
        <time>2013-10-26T12:39:54Z</time>
      </trkpt>
      <trkpt lat="43.41255" lon="6.12468">
        <ele>232.80000305176</ele>
        <time>2013-10-26T12:39:59Z</time>
      </trkpt>
      <trkpt lat="43.41257" lon="6.12482">
        <ele>234</ele>
        <time>2013-10-26T12:40:03Z</time>
      </trkpt>
      <trkpt lat="43.41261" lon="6.12501">
        <ele>234</ele>
        <time>2013-10-26T12:40:09Z</time>
      </trkpt>
      <trkpt lat="43.41266" lon="6.12517">
        <ele>235</ele>
        <time>2013-10-26T12:40:14Z</time>
      </trkpt>
      <trkpt lat="43.41268" lon="6.12525">
        <ele>235.80000305176</ele>
        <time>2013-10-26T12:40:16Z</time>
      </trkpt>
      <trkpt lat="43.41269" lon="6.12528">
        <ele>236.19999694824</ele>
        <time>2013-10-26T12:40:17Z</time>
      </trkpt>
      <trkpt lat="43.41267" lon="6.12534">
        <ele>236.19999694824</ele>
        <time>2013-10-26T12:40:20Z</time>
      </trkpt>
      <trkpt lat="43.41269" lon="6.12553">
        <ele>236.19999694824</ele>
        <time>2013-10-26T12:40:25Z</time>
      </trkpt>
      <trkpt lat="43.41268" lon="6.12576">
        <ele>236.19999694824</ele>
        <time>2013-10-26T12:40:31Z</time>
      </trkpt>
      <trkpt lat="43.41269" lon="6.12589">
        <ele>236.60000610352</ele>
        <time>2013-10-26T12:40:34Z</time>
      </trkpt>
      <trkpt lat="43.4127" lon="6.12605">
        <ele>238.19999694824</ele>
        <time>2013-10-26T12:40:38Z</time>
      </trkpt>
      <trkpt lat="43.41267" lon="6.12619">
        <ele>238.19999694824</ele>
        <time>2013-10-26T12:40:42Z</time>
      </trkpt>
      <trkpt lat="43.4126" lon="6.12631">
        <ele>238.19999694824</ele>
        <time>2013-10-26T12:40:47Z</time>
      </trkpt>
      <trkpt lat="43.41253" lon="6.12644">
        <ele>238.19999694824</ele>
        <time>2013-10-26T12:40:52Z</time>
      </trkpt>
      <trkpt lat="43.41248" lon="6.12653">
        <ele>239.39999389648</ele>
        <time>2013-10-26T12:40:55Z</time>
      </trkpt>
      <trkpt lat="43.41243" lon="6.1266">
        <ele>240.19999694824</ele>
        <time>2013-10-26T12:40:58Z</time>
      </trkpt>
      <trkpt lat="43.41235" lon="6.1268">
        <ele>240.19999694824</ele>
        <time>2013-10-26T12:41:04Z</time>
      </trkpt>
      <trkpt lat="43.41232" lon="6.12697">
        <ele>240.19999694824</ele>
        <time>2013-10-26T12:41:09Z</time>
      </trkpt>
      <trkpt lat="43.4123" lon="6.12714">
        <ele>242.39999389648</ele>
        <time>2013-10-26T12:41:14Z</time>
      </trkpt>
      <trkpt lat="43.41228" lon="6.1272">
        <ele>242.39999389648</ele>
        <time>2013-10-26T12:41:16Z</time>
      </trkpt>
      <trkpt lat="43.41217" lon="6.12757">
        <ele>244</ele>
        <time>2013-10-26T12:41:28Z</time>
      </trkpt>
      <trkpt lat="43.41216" lon="6.12759">
        <ele>244.39999389648</ele>
        <time>2013-10-26T12:41:29Z</time>
      </trkpt>
      <trkpt lat="43.41211" lon="6.12768">
        <ele>244.39999389648</ele>
        <time>2013-10-26T12:41:32Z</time>
      </trkpt>
      <trkpt lat="43.41206" lon="6.12787">
        <ele>244.39999389648</ele>
        <time>2013-10-26T12:41:39Z</time>
      </trkpt>
      <trkpt lat="43.41199" lon="6.12805">
        <ele>244.39999389648</ele>
        <time>2013-10-26T12:41:46Z</time>
      </trkpt>
      <trkpt lat="43.41193" lon="6.12815">
        <ele>244.80000305176</ele>
        <time>2013-10-26T12:41:51Z</time>
      </trkpt>
      <trkpt lat="43.41186" lon="6.12831">
        <ele>246.60000610352</ele>
        <time>2013-10-26T12:41:59Z</time>
      </trkpt>
      <trkpt lat="43.41182" lon="6.12841">
        <ele>247</ele>
        <time>2013-10-26T12:42:05Z</time>
      </trkpt>
      <trkpt lat="43.41179" lon="6.12846">
        <ele>248.19999694824</ele>
        <time>2013-10-26T12:42:08Z</time>
      </trkpt>
      <trkpt lat="43.41177" lon="6.12848">
        <ele>248.60000610352</ele>
        <time>2013-10-26T12:42:09Z</time>
      </trkpt>
      <trkpt lat="43.41177" lon="6.12856">
        <ele>248.60000610352</ele>
        <time>2013-10-26T12:42:13Z</time>
      </trkpt>
      <trkpt lat="43.41172" lon="6.12878">
        <ele>249.19999694824</ele>
        <time>2013-10-26T12:42:23Z</time>
      </trkpt>
      <trkpt lat="43.4117" lon="6.12883">
        <ele>250.39999389648</ele>
        <time>2013-10-26T12:42:26Z</time>
      </trkpt>
      <trkpt lat="43.4117" lon="6.12885">
        <ele>251</ele>
        <time>2013-10-26T12:42:27Z</time>
      </trkpt>
      <trkpt lat="43.41171" lon="6.12894">
        <ele>251</ele>
        <time>2013-10-26T12:42:31Z</time>
      </trkpt>
      <trkpt lat="43.41176" lon="6.12907">
        <ele>251.39999389648</ele>
        <time>2013-10-26T12:42:36Z</time>
      </trkpt>
      <trkpt lat="43.41177" lon="6.12909">
        <ele>251.80000305176</ele>
        <time>2013-10-26T12:42:37Z</time>
      </trkpt>
      <trkpt lat="43.41178" lon="6.1291">
        <ele>252.19999694824</ele>
        <time>2013-10-26T12:42:38Z</time>
      </trkpt>
      <trkpt lat="43.4118" lon="6.12914">
        <ele>253.19999694824</ele>
        <time>2013-10-26T12:42:40Z</time>
      </trkpt>
      <trkpt lat="43.4119" lon="6.12928">
        <ele>254</ele>
        <time>2013-10-26T12:42:50Z</time>
      </trkpt>
      <trkpt lat="43.41192" lon="6.12933">
        <ele>255.39999389648</ele>
        <time>2013-10-26T12:42:54Z</time>
      </trkpt>
      <trkpt lat="43.41194" lon="6.12938">
        <ele>255.39999389648</ele>
        <time>2013-10-26T12:42:57Z</time>
      </trkpt>
      <trkpt lat="43.41195" lon="6.1294">
        <ele>255.39999389648</ele>
        <time>2013-10-26T12:42:59Z</time>
      </trkpt>
      <trkpt lat="43.41196" lon="6.1295">
        <ele>255.39999389648</ele>
        <time>2013-10-26T12:43:04Z</time>
      </trkpt>
      <trkpt lat="43.41197" lon="6.12961">
        <ele>255.39999389648</ele>
        <time>2013-10-26T12:43:10Z</time>
      </trkpt>
      <trkpt lat="43.41197" lon="6.1297">
        <ele>256.20001220703</ele>
        <time>2013-10-26T12:43:16Z</time>
      </trkpt>
      <trkpt lat="43.41197" lon="6.12975">
        <ele>257.39999389648</ele>
        <time>2013-10-26T12:43:19Z</time>
      </trkpt>
      <trkpt lat="43.41203" lon="6.12997">
        <ele>258.79998779297</ele>
        <time>2013-10-26T12:43:30Z</time>
      </trkpt>
      <trkpt lat="43.41206" lon="6.13">
        <ele>259.60000610352</ele>
        <time>2013-10-26T12:43:32Z</time>
      </trkpt>
      <trkpt lat="43.41211" lon="6.13006">
        <ele>260</ele>
        <time>2013-10-26T12:43:36Z</time>
      </trkpt>
      <trkpt lat="43.41217" lon="6.13015">
        <ele>261.79998779297</ele>
        <time>2013-10-26T12:43:41Z</time>
      </trkpt>
      <trkpt lat="43.4122" lon="6.13019">
        <ele>261.79998779297</ele>
        <time>2013-10-26T12:43:44Z</time>
      </trkpt>
      <trkpt lat="43.41222" lon="6.13023">
        <ele>262.60000610352</ele>
        <time>2013-10-26T12:43:47Z</time>
      </trkpt>
      <trkpt lat="43.41223" lon="6.13025">
        <ele>263</ele>
        <time>2013-10-26T12:43:48Z</time>
      </trkpt>
      <trkpt lat="43.41225" lon="6.13027">
        <ele>263.79998779297</ele>
        <time>2013-10-26T12:43:50Z</time>
      </trkpt>
      <trkpt lat="43.41232" lon="6.13032">
        <ele>264.60000610352</ele>
        <time>2013-10-26T12:43:56Z</time>
      </trkpt>
      <trkpt lat="43.41238" lon="6.13035">
        <ele>265.79998779297</ele>
        <time>2013-10-26T12:44:01Z</time>
      </trkpt>
      <trkpt lat="43.41242" lon="6.13035">
        <ele>265.79998779297</ele>
        <time>2013-10-26T12:44:04Z</time>
      </trkpt>
      <trkpt lat="43.41245" lon="6.13036">
        <ele>265.79998779297</ele>
        <time>2013-10-26T12:44:07Z</time>
      </trkpt>
      <trkpt lat="43.41249" lon="6.13036">
        <ele>266.60000610352</ele>
        <time>2013-10-26T12:44:10Z</time>
      </trkpt>
      <trkpt lat="43.4125" lon="6.13036">
        <ele>267.20001220703</ele>
        <time>2013-10-26T12:44:11Z</time>
      </trkpt>
      <trkpt lat="43.41259" lon="6.1304">
        <ele>268.39999389648</ele>
        <time>2013-10-26T12:44:19Z</time>
      </trkpt>
      <trkpt lat="43.41262" lon="6.13042">
        <ele>270</ele>
        <time>2013-10-26T12:44:22Z</time>
      </trkpt>
      <trkpt lat="43.41265" lon="6.13043">
        <ele>270</ele>
        <time>2013-10-26T12:44:25Z</time>
      </trkpt>
      <trkpt lat="43.41267" lon="6.13044">
        <ele>270</ele>
        <time>2013-10-26T12:44:26Z</time>
      </trkpt>
      <trkpt lat="43.4127" lon="6.13045">
        <ele>270.79998779297</ele>
        <time>2013-10-26T12:44:30Z</time>
      </trkpt>
      <trkpt lat="43.41272" lon="6.13045">
        <ele>271.60000610352</ele>
        <time>2013-10-26T12:44:32Z</time>
      </trkpt>
      <trkpt lat="43.41273" lon="6.13046">
        <ele>272</ele>
        <time>2013-10-26T12:44:33Z</time>
      </trkpt>
      <trkpt lat="43.41283" lon="6.1305">
        <ele>272</ele>
        <time>2013-10-26T12:44:40Z</time>
      </trkpt>
      <trkpt lat="43.41286" lon="6.13052">
        <ele>273</ele>
        <time>2013-10-26T12:44:42Z</time>
      </trkpt>
      <trkpt lat="43.41289" lon="6.13053">
        <ele>274.20001220703</ele>
        <time>2013-10-26T12:44:45Z</time>
      </trkpt>
      <trkpt lat="43.41296" lon="6.13056">
        <ele>274.20001220703</ele>
        <time>2013-10-26T12:44:51Z</time>
      </trkpt>
      <trkpt lat="43.41298" lon="6.13056">
        <ele>274.20001220703</ele>
        <time>2013-10-26T12:44:52Z</time>
      </trkpt>
      <trkpt lat="43.41302" lon="6.13058">
        <ele>274.20001220703</ele>
        <time>2013-10-26T12:44:56Z</time>
      </trkpt>
      <trkpt lat="43.41303" lon="6.13056">
        <ele>274.20001220703</ele>
        <time>2013-10-26T12:44:58Z</time>
      </trkpt>
      <trkpt lat="43.41303" lon="6.13056">
        <ele>274.20001220703</ele>
        <time>2013-10-26T12:45:03Z</time>
      </trkpt>
      <trkpt lat="43.41303" lon="6.13056">
        <ele>274.20001220703</ele>
        <time>2013-10-26T12:45:18Z</time>
      </trkpt>
      <trkpt lat="43.41303" lon="6.13056">
        <ele>274.20001220703</ele>
        <time>2013-10-26T12:45:38Z</time>
      </trkpt>
      <trkpt lat="43.41304" lon="6.13055">
        <ele>274.20001220703</ele>
        <time>2013-10-26T12:45:42Z</time>
      </trkpt>
      <trkpt lat="43.41304" lon="6.13055">
        <ele>274.20001220703</ele>
        <time>2013-10-26T12:45:57Z</time>
      </trkpt>
      <trkpt lat="43.41303" lon="6.13055">
        <ele>274.20001220703</ele>
        <time>2013-10-26T12:46:19Z</time>
      </trkpt>
      <trkpt lat="43.41303" lon="6.13055">
        <ele>274.20001220703</ele>
        <time>2013-10-26T12:46:38Z</time>
      </trkpt>
      <trkpt lat="43.41303" lon="6.13056">
        <ele>274.20001220703</ele>
        <time>2013-10-26T12:47:11Z</time>
      </trkpt>
      <trkpt lat="43.41303" lon="6.13056">
        <ele>274.20001220703</ele>
        <time>2013-10-26T12:47:23Z</time>
      </trkpt>
      <trkpt lat="43.41305" lon="6.13055">
        <ele>274.20001220703</ele>
        <time>2013-10-26T12:47:30Z</time>
      </trkpt>
      <trkpt lat="43.41307" lon="6.13055">
        <ele>274.20001220703</ele>
        <time>2013-10-26T12:47:31Z</time>
      </trkpt>
      <trkpt lat="43.41309" lon="6.13054">
        <ele>274.20001220703</ele>
        <time>2013-10-26T12:47:33Z</time>
      </trkpt>
      <trkpt lat="43.41315" lon="6.13051">
        <ele>274.20001220703</ele>
        <time>2013-10-26T12:47:37Z</time>
      </trkpt>
      <trkpt lat="43.41318" lon="6.13049">
        <ele>275.60000610352</ele>
        <time>2013-10-26T12:47:39Z</time>
      </trkpt>
      <trkpt lat="43.4132" lon="6.13046">
        <ele>276.39999389648</ele>
        <time>2013-10-26T12:47:41Z</time>
      </trkpt>
      <trkpt lat="43.41322" lon="6.13043">
        <ele>276.39999389648</ele>
        <time>2013-10-26T12:47:43Z</time>
      </trkpt>
      <trkpt lat="43.41325" lon="6.13039">
        <ele>276.39999389648</ele>
        <time>2013-10-26T12:47:46Z</time>
      </trkpt>
      <trkpt lat="43.41329" lon="6.13033">
        <ele>277.20001220703</ele>
        <time>2013-10-26T12:47:51Z</time>
      </trkpt>
      <trkpt lat="43.41331" lon="6.13031">
        <ele>278</ele>
        <time>2013-10-26T12:47:53Z</time>
      </trkpt>
      <trkpt lat="43.4134" lon="6.13023">
        <ele>278.39999389648</ele>
        <time>2013-10-26T12:48:01Z</time>
      </trkpt>
      <trkpt lat="43.41342" lon="6.13022">
        <ele>279.20001220703</ele>
        <time>2013-10-26T12:48:03Z</time>
      </trkpt>
      <trkpt lat="43.41344" lon="6.1302">
        <ele>280</ele>
        <time>2013-10-26T12:48:05Z</time>
      </trkpt>
      <trkpt lat="43.41348" lon="6.13017">
        <ele>280.39999389648</ele>
        <time>2013-10-26T12:48:09Z</time>
      </trkpt>
      <trkpt lat="43.41349" lon="6.13016">
        <ele>280.39999389648</ele>
        <time>2013-10-26T12:48:10Z</time>
      </trkpt>
      <trkpt lat="43.41356" lon="6.13005">
        <ele>280.39999389648</ele>
        <time>2013-10-26T12:48:16Z</time>
      </trkpt>
      <trkpt lat="43.41357" lon="6.12999">
        <ele>280.39999389648</ele>
        <time>2013-10-26T12:48:19Z</time>
      </trkpt>
      <trkpt lat="43.41359" lon="6.12992">
        <ele>281.79998779297</ele>
        <time>2013-10-26T12:48:22Z</time>
      </trkpt>
      <trkpt lat="43.41361" lon="6.12979">
        <ele>282.60000610352</ele>
        <time>2013-10-26T12:48:28Z</time>
      </trkpt>
      <trkpt lat="43.41361" lon="6.12965">
        <ele>282.60000610352</ele>
        <time>2013-10-26T12:48:35Z</time>
      </trkpt>
      <trkpt lat="43.41362" lon="6.12952">
        <ele>282.60000610352</ele>
        <time>2013-10-26T12:48:40Z</time>
      </trkpt>
      <trkpt lat="43.41364" lon="6.12938">
        <ele>282.60000610352</ele>
        <time>2013-10-26T12:48:44Z</time>
      </trkpt>
      <trkpt lat="43.41364" lon="6.12934">
        <ele>282.60000610352</ele>
        <time>2013-10-26T12:48:45Z</time>
      </trkpt>
      <trkpt lat="43.41366" lon="6.12912">
        <ele>282.60000610352</ele>
        <time>2013-10-26T12:48:51Z</time>
      </trkpt>
      <trkpt lat="43.4137" lon="6.12853">
        <ele>284.60000610352</ele>
        <time>2013-10-26T12:49:10Z</time>
      </trkpt>
      <trkpt lat="43.4137" lon="6.12847">
        <ele>284.60000610352</ele>
        <time>2013-10-26T12:49:12Z</time>
      </trkpt>
      <trkpt lat="43.41369" lon="6.12839">
        <ele>284.60000610352</ele>
        <time>2013-10-26T12:49:15Z</time>
      </trkpt>
      <trkpt lat="43.41372" lon="6.1282">
        <ele>284.60000610352</ele>
        <time>2013-10-26T12:49:21Z</time>
      </trkpt>
      <trkpt lat="43.41379" lon="6.12799">
        <ele>284.60000610352</ele>
        <time>2013-10-26T12:49:27Z</time>
      </trkpt>
      <trkpt lat="43.41389" lon="6.12773">
        <ele>284.60000610352</ele>
        <time>2013-10-26T12:49:33Z</time>
      </trkpt>
      <trkpt lat="43.41396" lon="6.1275">
        <ele>284.60000610352</ele>
        <time>2013-10-26T12:49:38Z</time>
      </trkpt>
      <trkpt lat="43.41402" lon="6.12724">
        <ele>284.60000610352</ele>
        <time>2013-10-26T12:49:43Z</time>
      </trkpt>
      <trkpt lat="43.41402" lon="6.12718">
        <ele>284.60000610352</ele>
        <time>2013-10-26T12:49:44Z</time>
      </trkpt>
      <trkpt lat="43.41406" lon="6.12679">
        <ele>284.60000610352</ele>
        <time>2013-10-26T12:49:51Z</time>
      </trkpt>
      <trkpt lat="43.41407" lon="6.12667">
        <ele>284.60000610352</ele>
        <time>2013-10-26T12:49:53Z</time>
      </trkpt>
      <trkpt lat="43.41408" lon="6.12643">
        <ele>284.60000610352</ele>
        <time>2013-10-26T12:49:57Z</time>
      </trkpt>
      <trkpt lat="43.41409" lon="6.1263">
        <ele>284.20001220703</ele>
        <time>2013-10-26T12:49:59Z</time>
      </trkpt>
      <trkpt lat="43.41409" lon="6.12618">
        <ele>283.39999389648</ele>
        <time>2013-10-26T12:50:01Z</time>
      </trkpt>
      <trkpt lat="43.4141" lon="6.12612">
        <ele>283</ele>
        <time>2013-10-26T12:50:02Z</time>
      </trkpt>
      <trkpt lat="43.41415" lon="6.12569">
        <ele>282.60000610352</ele>
        <time>2013-10-26T12:50:10Z</time>
      </trkpt>
      <trkpt lat="43.41416" lon="6.12553">
        <ele>282.60000610352</ele>
        <time>2013-10-26T12:50:13Z</time>
      </trkpt>
      <trkpt lat="43.41419" lon="6.12529">
        <ele>282.60000610352</ele>
        <time>2013-10-26T12:50:17Z</time>
      </trkpt>
      <trkpt lat="43.4142" lon="6.1248">
        <ele>281.20001220703</ele>
        <time>2013-10-26T12:50:26Z</time>
      </trkpt>
      <trkpt lat="43.41421" lon="6.12468">
        <ele>280.39999389648</ele>
        <time>2013-10-26T12:50:28Z</time>
      </trkpt>
      <trkpt lat="43.41428" lon="6.12438">
        <ele>280.39999389648</ele>
        <time>2013-10-26T12:50:33Z</time>
      </trkpt>
      <trkpt lat="43.41431" lon="6.12426">
        <ele>280.39999389648</ele>
        <time>2013-10-26T12:50:35Z</time>
      </trkpt>
      <trkpt lat="43.41442" lon="6.12389">
        <ele>280.39999389648</ele>
        <time>2013-10-26T12:50:41Z</time>
      </trkpt>
      <trkpt lat="43.41447" lon="6.12366">
        <ele>279.20001220703</ele>
        <time>2013-10-26T12:50:45Z</time>
      </trkpt>
      <trkpt lat="43.41459" lon="6.12322">
        <ele>278.39999389648</ele>
        <time>2013-10-26T12:50:53Z</time>
      </trkpt>
      <trkpt lat="43.41461" lon="6.12311">
        <ele>278.39999389648</ele>
        <time>2013-10-26T12:50:55Z</time>
      </trkpt>
      <trkpt lat="43.41468" lon="6.1228">
        <ele>278.39999389648</ele>
        <time>2013-10-26T12:51:01Z</time>
      </trkpt>
      <trkpt lat="43.4147" lon="6.1227">
        <ele>278.39999389648</ele>
        <time>2013-10-26T12:51:03Z</time>
      </trkpt>
      <trkpt lat="43.41479" lon="6.12212">
        <ele>278.39999389648</ele>
        <time>2013-10-26T12:51:13Z</time>
      </trkpt>
      <trkpt lat="43.4148" lon="6.12179">
        <ele>278.39999389648</ele>
        <time>2013-10-26T12:51:19Z</time>
      </trkpt>
      <trkpt lat="43.41481" lon="6.12156">
        <ele>278.39999389648</ele>
        <time>2013-10-26T12:51:23Z</time>
      </trkpt>
      <trkpt lat="43.41482" lon="6.1214">
        <ele>278.39999389648</ele>
        <time>2013-10-26T12:51:26Z</time>
      </trkpt>
      <trkpt lat="43.41483" lon="6.12135">
        <ele>278.39999389648</ele>
        <time>2013-10-26T12:51:27Z</time>
      </trkpt>
      <trkpt lat="43.41486" lon="6.1213">
        <ele>278.39999389648</ele>
        <time>2013-10-26T12:51:29Z</time>
      </trkpt>
      <trkpt lat="43.41488" lon="6.12128">
        <ele>278.39999389648</ele>
        <time>2013-10-26T12:51:33Z</time>
      </trkpt>
      <trkpt lat="43.41488" lon="6.12128">
        <ele>278.39999389648</ele>
        <time>2013-10-26T12:51:56Z</time>
      </trkpt>
      <trkpt lat="43.41488" lon="6.12128">
        <ele>278.39999389648</ele>
        <time>2013-10-26T12:52:09Z</time>
      </trkpt>
      <trkpt lat="43.41488" lon="6.12127">
        <ele>278.39999389648</ele>
        <time>2013-10-26T12:52:20Z</time>
      </trkpt>
      <trkpt lat="43.41491" lon="6.12124">
        <ele>278</ele>
        <time>2013-10-26T12:52:23Z</time>
      </trkpt>
      <trkpt lat="43.41494" lon="6.1212">
        <ele>277.60000610352</ele>
        <time>2013-10-26T12:52:24Z</time>
      </trkpt>
      <trkpt lat="43.41496" lon="6.12117">
        <ele>277</ele>
        <time>2013-10-26T12:52:25Z</time>
      </trkpt>
      <trkpt lat="43.41498" lon="6.12112">
        <ele>276.60000610352</ele>
        <time>2013-10-26T12:52:26Z</time>
      </trkpt>
      <trkpt lat="43.415" lon="6.12106">
        <ele>276.20001220703</ele>
        <time>2013-10-26T12:52:27Z</time>
      </trkpt>
      <trkpt lat="43.41502" lon="6.121">
        <ele>276.20001220703</ele>
        <time>2013-10-26T12:52:28Z</time>
      </trkpt>
      <trkpt lat="43.41506" lon="6.12094">
        <ele>275.79998779297</ele>
        <time>2013-10-26T12:52:29Z</time>
      </trkpt>
      <trkpt lat="43.4151" lon="6.12088">
        <ele>275.20001220703</ele>
        <time>2013-10-26T12:52:30Z</time>
      </trkpt>
      <trkpt lat="43.41514" lon="6.12082">
        <ele>274.79998779297</ele>
        <time>2013-10-26T12:52:31Z</time>
      </trkpt>
      <trkpt lat="43.41518" lon="6.12076">
        <ele>274.20001220703</ele>
        <time>2013-10-26T12:52:32Z</time>
      </trkpt>
      <trkpt lat="43.41522" lon="6.1207">
        <ele>273.79998779297</ele>
        <time>2013-10-26T12:52:33Z</time>
      </trkpt>
      <trkpt lat="43.41524" lon="6.12065">
        <ele>272.60000610352</ele>
        <time>2013-10-26T12:52:34Z</time>
      </trkpt>
      <trkpt lat="43.41526" lon="6.12062">
        <ele>272.20001220703</ele>
        <time>2013-10-26T12:52:35Z</time>
      </trkpt>
      <trkpt lat="43.41527" lon="6.12058">
        <ele>271.60000610352</ele>
        <time>2013-10-26T12:52:36Z</time>
      </trkpt>
      <trkpt lat="43.41528" lon="6.12055">
        <ele>271.20001220703</ele>
        <time>2013-10-26T12:52:37Z</time>
      </trkpt>
      <trkpt lat="43.41529" lon="6.12052">
        <ele>270.79998779297</ele>
        <time>2013-10-26T12:52:38Z</time>
      </trkpt>
      <trkpt lat="43.41529" lon="6.12049">
        <ele>270.39999389648</ele>
        <time>2013-10-26T12:52:39Z</time>
      </trkpt>
      <trkpt lat="43.41531" lon="6.12044">
        <ele>269.39999389648</ele>
        <time>2013-10-26T12:52:41Z</time>
      </trkpt>
      <trkpt lat="43.41531" lon="6.12043">
        <ele>269</ele>
        <time>2013-10-26T12:52:42Z</time>
      </trkpt>
      <trkpt lat="43.41531" lon="6.12043">
        <ele>269</ele>
        <time>2013-10-26T12:52:45Z</time>
      </trkpt>
      <trkpt lat="43.41532" lon="6.1204">
        <ele>269</ele>
        <time>2013-10-26T12:52:50Z</time>
      </trkpt>
      <trkpt lat="43.4154" lon="6.12026">
        <ele>268.60000610352</ele>
        <time>2013-10-26T12:52:54Z</time>
      </trkpt>
      <trkpt lat="43.41542" lon="6.12025">
        <ele>268.20001220703</ele>
        <time>2013-10-26T12:52:55Z</time>
      </trkpt>
      <trkpt lat="43.41544" lon="6.12027">
        <ele>267.79998779297</ele>
        <time>2013-10-26T12:52:56Z</time>
      </trkpt>
      <trkpt lat="43.41545" lon="6.1203">
        <ele>267.20001220703</ele>
        <time>2013-10-26T12:52:57Z</time>
      </trkpt>
      <trkpt lat="43.41546" lon="6.12034">
        <ele>266.79998779297</ele>
        <time>2013-10-26T12:52:58Z</time>
      </trkpt>
      <trkpt lat="43.41546" lon="6.12036">
        <ele>265.60000610352</ele>
        <time>2013-10-26T12:52:59Z</time>
      </trkpt>
      <trkpt lat="43.41546" lon="6.12038">
        <ele>265.20001220703</ele>
        <time>2013-10-26T12:53:00Z</time>
      </trkpt>
      <trkpt lat="43.41547" lon="6.12039">
        <ele>264.60000610352</ele>
        <time>2013-10-26T12:53:01Z</time>
      </trkpt>
      <trkpt lat="43.41546" lon="6.12039">
        <ele>264.60000610352</ele>
        <time>2013-10-26T12:53:04Z</time>
      </trkpt>
      <trkpt lat="43.41546" lon="6.12039">
        <ele>264.60000610352</ele>
        <time>2013-10-26T12:53:24Z</time>
      </trkpt>
      <trkpt lat="43.41546" lon="6.12039">
        <ele>264.60000610352</ele>
        <time>2013-10-26T12:53:35Z</time>
      </trkpt>
      <trkpt lat="43.41546" lon="6.1204">
        <ele>264.60000610352</ele>
        <time>2013-10-26T12:53:43Z</time>
      </trkpt>
      <trkpt lat="43.41548" lon="6.12037">
        <ele>264.60000610352</ele>
        <time>2013-10-26T12:53:48Z</time>
      </trkpt>
      <trkpt lat="43.41551" lon="6.12033">
        <ele>264.20001220703</ele>
        <time>2013-10-26T12:53:49Z</time>
      </trkpt>
      <trkpt lat="43.41554" lon="6.12028">
        <ele>263.79998779297</ele>
        <time>2013-10-26T12:53:50Z</time>
      </trkpt>
      <trkpt lat="43.41558" lon="6.12023">
        <ele>263.20001220703</ele>
        <time>2013-10-26T12:53:51Z</time>
      </trkpt>
      <trkpt lat="43.41568" lon="6.12011">
        <ele>261.20001220703</ele>
        <time>2013-10-26T12:53:54Z</time>
      </trkpt>
      <trkpt lat="43.4157" lon="6.12008">
        <ele>260.60000610352</ele>
        <time>2013-10-26T12:53:55Z</time>
      </trkpt>
      <trkpt lat="43.41573" lon="6.12005">
        <ele>260</ele>
        <time>2013-10-26T12:53:56Z</time>
      </trkpt>
      <trkpt lat="43.41576" lon="6.12002">
        <ele>259.20001220703</ele>
        <time>2013-10-26T12:53:57Z</time>
      </trkpt>
      <trkpt lat="43.41578" lon="6.11999">
        <ele>258.60000610352</ele>
        <time>2013-10-26T12:53:58Z</time>
      </trkpt>
      <trkpt lat="43.41581" lon="6.11996">
        <ele>258</ele>
        <time>2013-10-26T12:53:59Z</time>
      </trkpt>
      <trkpt lat="43.41582" lon="6.11994">
        <ele>257.20001220703</ele>
        <time>2013-10-26T12:54:00Z</time>
      </trkpt>
      <trkpt lat="43.41585" lon="6.11989">
        <ele>256</ele>
        <time>2013-10-26T12:54:02Z</time>
      </trkpt>
      <trkpt lat="43.41587" lon="6.11988">
        <ele>255.39999389648</ele>
        <time>2013-10-26T12:54:03Z</time>
      </trkpt>
      <trkpt lat="43.41589" lon="6.11987">
        <ele>254.80000305176</ele>
        <time>2013-10-26T12:54:04Z</time>
      </trkpt>
      <trkpt lat="43.41591" lon="6.11984">
        <ele>254.19999694824</ele>
        <time>2013-10-26T12:54:05Z</time>
      </trkpt>
      <trkpt lat="43.41595" lon="6.11978">
        <ele>253.19999694824</ele>
        <time>2013-10-26T12:54:07Z</time>
      </trkpt>
      <trkpt lat="43.41596" lon="6.11977">
        <ele>252.60000610352</ele>
        <time>2013-10-26T12:54:08Z</time>
      </trkpt>
      <trkpt lat="43.416" lon="6.11974">
        <ele>251.19999694824</ele>
        <time>2013-10-26T12:54:10Z</time>
      </trkpt>
      <trkpt lat="43.41604" lon="6.1197">
        <ele>249.19999694824</ele>
        <time>2013-10-26T12:54:13Z</time>
      </trkpt>
      <trkpt lat="43.41607" lon="6.11967">
        <ele>247.60000610352</ele>
        <time>2013-10-26T12:54:15Z</time>
      </trkpt>
      <trkpt lat="43.41618" lon="6.11956">
        <ele>245</ele>
        <time>2013-10-26T12:54:19Z</time>
      </trkpt>
      <trkpt lat="43.41627" lon="6.11945">
        <ele>242</ele>
        <time>2013-10-26T12:54:23Z</time>
      </trkpt>
      <trkpt lat="43.41634" lon="6.11937">
        <ele>239.80000305176</ele>
        <time>2013-10-26T12:54:26Z</time>
      </trkpt>
      <trkpt lat="43.41639" lon="6.11929">
        <ele>237.39999389648</ele>
        <time>2013-10-26T12:54:30Z</time>
      </trkpt>
      <trkpt lat="43.41643" lon="6.11925">
        <ele>236.19999694824</ele>
        <time>2013-10-26T12:54:32Z</time>
      </trkpt>
      <trkpt lat="43.41648" lon="6.11918">
        <ele>235</ele>
        <time>2013-10-26T12:54:34Z</time>
      </trkpt>
      <trkpt lat="43.41652" lon="6.11913">
        <ele>234</ele>
        <time>2013-10-26T12:54:36Z</time>
      </trkpt>
      <trkpt lat="43.41654" lon="6.11912">
        <ele>233.19999694824</ele>
        <time>2013-10-26T12:54:37Z</time>
      </trkpt>
      <trkpt lat="43.41656" lon="6.11909">
        <ele>232</ele>
        <time>2013-10-26T12:54:38Z</time>
      </trkpt>
      <trkpt lat="43.41658" lon="6.11906">
        <ele>231.39999389648</ele>
        <time>2013-10-26T12:54:39Z</time>
      </trkpt>
      <trkpt lat="43.41661" lon="6.119">
        <ele>230.19999694824</ele>
        <time>2013-10-26T12:54:41Z</time>
      </trkpt>
      <trkpt lat="43.41664" lon="6.11897">
        <ele>229.60000610352</ele>
        <time>2013-10-26T12:54:42Z</time>
      </trkpt>
      <trkpt lat="43.41667" lon="6.11893">
        <ele>228.39999389648</ele>
        <time>2013-10-26T12:54:44Z</time>
      </trkpt>
      <trkpt lat="43.4167" lon="6.11889">
        <ele>227</ele>
        <time>2013-10-26T12:54:46Z</time>
      </trkpt>
      <trkpt lat="43.4167" lon="6.11888">
        <ele>226.60000610352</ele>
        <time>2013-10-26T12:54:47Z</time>
      </trkpt>
      <trkpt lat="43.4167" lon="6.11888">
        <ele>224.19999694824</ele>
        <time>2013-10-26T12:54:51Z</time>
      </trkpt>
      <trkpt lat="43.4167" lon="6.11888">
        <ele>224.19999694824</ele>
        <time>2013-10-26T12:54:52Z</time>
      </trkpt>
      <trkpt lat="43.41673" lon="6.11884">
        <ele>224.19999694824</ele>
        <time>2013-10-26T12:54:54Z</time>
      </trkpt>
      <trkpt lat="43.41677" lon="6.11878">
        <ele>223.80000305176</ele>
        <time>2013-10-26T12:54:57Z</time>
      </trkpt>
      <trkpt lat="43.41677" lon="6.11878">
        <ele>223.39999389648</ele>
        <time>2013-10-26T12:54:58Z</time>
      </trkpt>
      <trkpt lat="43.41677" lon="6.11878">
        <ele>223</ele>
        <time>2013-10-26T12:54:59Z</time>
      </trkpt>
      <trkpt lat="43.41677" lon="6.11877">
        <ele>222.60000610352</ele>
        <time>2013-10-26T12:55:00Z</time>
      </trkpt>
      <trkpt lat="43.41682" lon="6.11873">
        <ele>222.19999694824</ele>
        <time>2013-10-26T12:55:02Z</time>
      </trkpt>
      <trkpt lat="43.41687" lon="6.11868">
        <ele>221</ele>
        <time>2013-10-26T12:55:05Z</time>
      </trkpt>
      <trkpt lat="43.41687" lon="6.11867">
        <ele>220.19999694824</ele>
        <time>2013-10-26T12:55:07Z</time>
      </trkpt>
      <trkpt lat="43.41693" lon="6.11862">
        <ele>220.19999694824</ele>
        <time>2013-10-26T12:55:10Z</time>
      </trkpt>
      <trkpt lat="43.41698" lon="6.11856">
        <ele>219.19999694824</ele>
        <time>2013-10-26T12:55:12Z</time>
      </trkpt>
      <trkpt lat="43.41698" lon="6.11856">
        <ele>218.80000305176</ele>
        <time>2013-10-26T12:55:13Z</time>
      </trkpt>
      <trkpt lat="43.41698" lon="6.11856">
        <ele>218.19999694824</ele>
        <time>2013-10-26T12:55:14Z</time>
      </trkpt>
      <trkpt lat="43.41698" lon="6.11855">
        <ele>217.60000610352</ele>
        <time>2013-10-26T12:55:15Z</time>
      </trkpt>
      <trkpt lat="43.41698" lon="6.11855">
        <ele>217</ele>
        <time>2013-10-26T12:55:16Z</time>
      </trkpt>
      <trkpt lat="43.41698" lon="6.11855">
        <ele>216.39999389648</ele>
        <time>2013-10-26T12:55:17Z</time>
      </trkpt>
      <trkpt lat="43.41698" lon="6.11855">
        <ele>215.80000305176</ele>
        <time>2013-10-26T12:55:18Z</time>
      </trkpt>
      <trkpt lat="43.41698" lon="6.11854">
        <ele>215.80000305176</ele>
        <time>2013-10-26T12:55:23Z</time>
      </trkpt>
      <trkpt lat="43.41698" lon="6.11854">
        <ele>215.80000305176</ele>
        <time>2013-10-26T12:55:48Z</time>
      </trkpt>
      <trkpt lat="43.41698" lon="6.11854">
        <ele>215.80000305176</ele>
        <time>2013-10-26T12:56:02Z</time>
      </trkpt>
      <trkpt lat="43.417" lon="6.11854">
        <ele>215.80000305176</ele>
        <time>2013-10-26T12:56:06Z</time>
      </trkpt>
      <trkpt lat="43.417" lon="6.11854">
        <ele>215.80000305176</ele>
        <time>2013-10-26T12:56:34Z</time>
      </trkpt>
      <trkpt lat="43.417" lon="6.11854">
        <ele>215.80000305176</ele>
        <time>2013-10-26T12:56:42Z</time>
      </trkpt>
      <trkpt lat="43.41702" lon="6.11852">
        <ele>215.80000305176</ele>
        <time>2013-10-26T12:56:54Z</time>
      </trkpt>
      <trkpt lat="43.41702" lon="6.11852">
        <ele>215.80000305176</ele>
        <time>2013-10-26T12:57:02Z</time>
      </trkpt>
      <trkpt lat="43.41702" lon="6.11852">
        <ele>215.80000305176</ele>
        <time>2013-10-26T12:57:15Z</time>
      </trkpt>
      <trkpt lat="43.41702" lon="6.11854">
        <ele>215.80000305176</ele>
        <time>2013-10-26T12:57:20Z</time>
      </trkpt>
      <trkpt lat="43.41701" lon="6.11865">
        <ele>215.80000305176</ele>
        <time>2013-10-26T12:57:25Z</time>
      </trkpt>
      <trkpt lat="43.41701" lon="6.11867">
        <ele>215.80000305176</ele>
        <time>2013-10-26T12:57:26Z</time>
      </trkpt>
      <trkpt lat="43.41702" lon="6.11884">
        <ele>215.80000305176</ele>
        <time>2013-10-26T12:57:32Z</time>
      </trkpt>
      <trkpt lat="43.41705" lon="6.11898">
        <ele>215.80000305176</ele>
        <time>2013-10-26T12:57:41Z</time>
      </trkpt>
      <trkpt lat="43.41705" lon="6.11905">
        <ele>215.80000305176</ele>
        <time>2013-10-26T12:57:46Z</time>
      </trkpt>
      <trkpt lat="43.41708" lon="6.11923">
        <ele>215</ele>
        <time>2013-10-26T12:57:52Z</time>
      </trkpt>
      <trkpt lat="43.41709" lon="6.11929">
        <ele>214.19999694824</ele>
        <time>2013-10-26T12:57:54Z</time>
      </trkpt>
      <trkpt lat="43.41709" lon="6.11935">
        <ele>213.39999389648</ele>
        <time>2013-10-26T12:57:59Z</time>
      </trkpt>
      <trkpt lat="43.41709" lon="6.11943">
        <ele>212.19999694824</ele>
        <time>2013-10-26T12:58:02Z</time>
      </trkpt>
      <trkpt lat="43.41709" lon="6.11949">
        <ele>211.80000305176</ele>
        <time>2013-10-26T12:58:04Z</time>
      </trkpt>
      <trkpt lat="43.4171" lon="6.11967">
        <ele>211.80000305176</ele>
        <time>2013-10-26T12:58:09Z</time>
      </trkpt>
      <trkpt lat="43.4171" lon="6.1198">
        <ele>211.80000305176</ele>
        <time>2013-10-26T12:58:14Z</time>
      </trkpt>
      <trkpt lat="43.4171" lon="6.11992">
        <ele>211.80000305176</ele>
        <time>2013-10-26T12:58:20Z</time>
      </trkpt>
      <trkpt lat="43.4171" lon="6.11998">
        <ele>212.19999694824</ele>
        <time>2013-10-26T12:58:23Z</time>
      </trkpt>
      <trkpt lat="43.4171" lon="6.12019">
        <ele>214.19999694824</ele>
        <time>2013-10-26T12:58:33Z</time>
      </trkpt>
      <trkpt lat="43.4171" lon="6.12021">
        <ele>214.60000610352</ele>
        <time>2013-10-26T12:58:34Z</time>
      </trkpt>
      <trkpt lat="43.41713" lon="6.12027">
        <ele>215.80000305176</ele>
        <time>2013-10-26T12:58:38Z</time>
      </trkpt>
      <trkpt lat="43.41719" lon="6.12032">
        <ele>215.80000305176</ele>
        <time>2013-10-26T12:58:44Z</time>
      </trkpt>
      <trkpt lat="43.41722" lon="6.12035">
        <ele>215</ele>
        <time>2013-10-26T12:58:48Z</time>
      </trkpt>
      <trkpt lat="43.41722" lon="6.12035">
        <ele>214.60000610352</ele>
        <time>2013-10-26T12:58:49Z</time>
      </trkpt>
      <trkpt lat="43.41722" lon="6.12035">
        <ele>213.80000305176</ele>
        <time>2013-10-26T12:58:57Z</time>
      </trkpt>
      <trkpt lat="43.41723" lon="6.12035">
        <ele>213.80000305176</ele>
        <time>2013-10-26T12:59:02Z</time>
      </trkpt>
      <trkpt lat="43.41724" lon="6.12039">
        <ele>213.80000305176</ele>
        <time>2013-10-26T12:59:06Z</time>
      </trkpt>
      <trkpt lat="43.41724" lon="6.12041">
        <ele>213.80000305176</ele>
        <time>2013-10-26T12:59:08Z</time>
      </trkpt>
      <trkpt lat="43.41724" lon="6.12041">
        <ele>213.80000305176</ele>
        <time>2013-10-26T12:59:18Z</time>
      </trkpt>
      <trkpt lat="43.41723" lon="6.12042">
        <ele>213.80000305176</ele>
        <time>2013-10-26T12:59:29Z</time>
      </trkpt>
      <trkpt lat="43.41724" lon="6.12043">
        <ele>213.80000305176</ele>
        <time>2013-10-26T12:59:43Z</time>
      </trkpt>
      <trkpt lat="43.41724" lon="6.12043">
        <ele>213.80000305176</ele>
        <time>2013-10-26T12:59:52Z</time>
      </trkpt>
      <trkpt lat="43.41724" lon="6.12043">
        <ele>213.80000305176</ele>
        <time>2013-10-26T13:00:05Z</time>
      </trkpt>
      <trkpt lat="43.41724" lon="6.12043">
        <ele>213.80000305176</ele>
        <time>2013-10-26T13:00:07Z</time>
      </trkpt>
      <trkpt lat="43.41724" lon="6.12052">
        <ele>213.39999389648</ele>
        <time>2013-10-26T13:00:12Z</time>
      </trkpt>
      <trkpt lat="43.41724" lon="6.12055">
        <ele>212.60000610352</ele>
        <time>2013-10-26T13:00:14Z</time>
      </trkpt>
      <trkpt lat="43.41723" lon="6.12057">
        <ele>211.80000305176</ele>
        <time>2013-10-26T13:00:16Z</time>
      </trkpt>
      <trkpt lat="43.41723" lon="6.12062">
        <ele>211.80000305176</ele>
        <time>2013-10-26T13:00:20Z</time>
      </trkpt>
      <trkpt lat="43.41724" lon="6.12064">
        <ele>211.80000305176</ele>
        <time>2013-10-26T13:00:22Z</time>
      </trkpt>
      <trkpt lat="43.41724" lon="6.12064">
        <ele>211.80000305176</ele>
        <time>2013-10-26T13:00:28Z</time>
      </trkpt>
      <trkpt lat="43.41724" lon="6.12064">
        <ele>211.80000305176</ele>
        <time>2013-10-26T13:00:44Z</time>
      </trkpt>
      <trkpt lat="43.41726" lon="6.12068">
        <ele>211.80000305176</ele>
        <time>2013-10-26T13:01:04Z</time>
      </trkpt>
      <trkpt lat="43.41727" lon="6.1207">
        <ele>211.80000305176</ele>
        <time>2013-10-26T13:01:08Z</time>
      </trkpt>
      <trkpt lat="43.41727" lon="6.1207">
        <ele>211.39999389648</ele>
        <time>2013-10-26T13:01:12Z</time>
      </trkpt>
      <trkpt lat="43.41726" lon="6.12071">
        <ele>211</ele>
        <time>2013-10-26T13:01:13Z</time>
      </trkpt>
      <trkpt lat="43.41726" lon="6.12074">
        <ele>210.19999694824</ele>
        <time>2013-10-26T13:01:15Z</time>
      </trkpt>
      <trkpt lat="43.41725" lon="6.12084">
        <ele>209.80000305176</ele>
        <time>2013-10-26T13:01:19Z</time>
      </trkpt>
      <trkpt lat="43.41725" lon="6.12087">
        <ele>209.80000305176</ele>
        <time>2013-10-26T13:01:20Z</time>
      </trkpt>
      <trkpt lat="43.41726" lon="6.12095">
        <ele>209.80000305176</ele>
        <time>2013-10-26T13:01:23Z</time>
      </trkpt>
      <trkpt lat="43.41725" lon="6.12099">
        <ele>209.80000305176</ele>
        <time>2013-10-26T13:01:25Z</time>
      </trkpt>
      <trkpt lat="43.41726" lon="6.12109">
        <ele>209.80000305176</ele>
        <time>2013-10-26T13:01:30Z</time>
      </trkpt>
      <trkpt lat="43.41725" lon="6.12119">
        <ele>209.80000305176</ele>
        <time>2013-10-26T13:01:35Z</time>
      </trkpt>
      <trkpt lat="43.41725" lon="6.12134">
        <ele>209.80000305176</ele>
        <time>2013-10-26T13:01:42Z</time>
      </trkpt>
      <trkpt lat="43.41725" lon="6.12137">
        <ele>209.80000305176</ele>
        <time>2013-10-26T13:01:47Z</time>
      </trkpt>
      <trkpt lat="43.41725" lon="6.12138">
        <ele>209.80000305176</ele>
        <time>2013-10-26T13:01:54Z</time>
      </trkpt>
      <trkpt lat="43.41725" lon="6.1214">
        <ele>209.80000305176</ele>
        <time>2013-10-26T13:02:06Z</time>
      </trkpt>
      <trkpt lat="43.41725" lon="6.12142">
        <ele>209.80000305176</ele>
        <time>2013-10-26T13:02:13Z</time>
      </trkpt>
      <trkpt lat="43.41725" lon="6.12142">
        <ele>209.80000305176</ele>
        <time>2013-10-26T13:02:20Z</time>
      </trkpt>
      <trkpt lat="43.41724" lon="6.12143">
        <ele>209.80000305176</ele>
        <time>2013-10-26T13:02:26Z</time>
      </trkpt>
      <trkpt lat="43.41724" lon="6.12143">
        <ele>209.80000305176</ele>
        <time>2013-10-26T13:02:35Z</time>
      </trkpt>
      <trkpt lat="43.41724" lon="6.12146">
        <ele>209.80000305176</ele>
        <time>2013-10-26T13:02:38Z</time>
      </trkpt>
      <trkpt lat="43.41723" lon="6.12148">
        <ele>209.80000305176</ele>
        <time>2013-10-26T13:02:40Z</time>
      </trkpt>
      <trkpt lat="43.41723" lon="6.1215">
        <ele>209.80000305176</ele>
        <time>2013-10-26T13:02:46Z</time>
      </trkpt>
      <trkpt lat="43.41723" lon="6.1215">
        <ele>209.80000305176</ele>
        <time>2013-10-26T13:03:02Z</time>
      </trkpt>
      <trkpt lat="43.41723" lon="6.1215">
        <ele>209.80000305176</ele>
        <time>2013-10-26T13:03:15Z</time>
      </trkpt>
      <trkpt lat="43.41721" lon="6.12151">
        <ele>209.80000305176</ele>
        <time>2013-10-26T13:03:18Z</time>
      </trkpt>
      <trkpt lat="43.4172" lon="6.12153">
        <ele>209.80000305176</ele>
        <time>2013-10-26T13:03:20Z</time>
      </trkpt>
      <trkpt lat="43.41719" lon="6.12158">
        <ele>209.80000305176</ele>
        <time>2013-10-26T13:03:23Z</time>
      </trkpt>
      <trkpt lat="43.41719" lon="6.12161">
        <ele>209.80000305176</ele>
        <time>2013-10-26T13:03:25Z</time>
      </trkpt>
      <trkpt lat="43.41717" lon="6.12163">
        <ele>209.80000305176</ele>
        <time>2013-10-26T13:03:27Z</time>
      </trkpt>
      <trkpt lat="43.41717" lon="6.12164">
        <ele>209.80000305176</ele>
        <time>2013-10-26T13:03:30Z</time>
      </trkpt>
      <trkpt lat="43.41714" lon="6.12167">
        <ele>209.80000305176</ele>
        <time>2013-10-26T13:03:34Z</time>
      </trkpt>
      <trkpt lat="43.41708" lon="6.12174">
        <ele>210.19999694824</ele>
        <time>2013-10-26T13:03:39Z</time>
      </trkpt>
      <trkpt lat="43.41707" lon="6.12178">
        <ele>211.60000610352</ele>
        <time>2013-10-26T13:03:41Z</time>
      </trkpt>
      <trkpt lat="43.41706" lon="6.1218">
        <ele>212</ele>
        <time>2013-10-26T13:03:42Z</time>
      </trkpt>
      <trkpt lat="43.41705" lon="6.12182">
        <ele>212</ele>
        <time>2013-10-26T13:03:44Z</time>
      </trkpt>
      <trkpt lat="43.41703" lon="6.12185">
        <ele>212.80000305176</ele>
        <time>2013-10-26T13:03:47Z</time>
      </trkpt>
      <trkpt lat="43.41703" lon="6.12186">
        <ele>213.60000610352</ele>
        <time>2013-10-26T13:03:49Z</time>
      </trkpt>
      <trkpt lat="43.41703" lon="6.12186">
        <ele>214.19999694824</ele>
        <time>2013-10-26T13:03:50Z</time>
      </trkpt>
      <trkpt lat="43.41702" lon="6.12188">
        <ele>214.19999694824</ele>
        <time>2013-10-26T13:03:56Z</time>
      </trkpt>
      <trkpt lat="43.41702" lon="6.12189">
        <ele>214.19999694824</ele>
        <time>2013-10-26T13:03:57Z</time>
      </trkpt>
      <trkpt lat="43.417" lon="6.12195">
        <ele>214.19999694824</ele>
        <time>2013-10-26T13:04:02Z</time>
      </trkpt>
      <trkpt lat="43.41698" lon="6.122">
        <ele>214.19999694824</ele>
        <time>2013-10-26T13:04:07Z</time>
      </trkpt>
      <trkpt lat="43.41698" lon="6.12206">
        <ele>214.19999694824</ele>
        <time>2013-10-26T13:04:15Z</time>
      </trkpt>
      <trkpt lat="43.41698" lon="6.12214">
        <ele>214.19999694824</ele>
        <time>2013-10-26T13:04:22Z</time>
      </trkpt>
      <trkpt lat="43.41699" lon="6.1222">
        <ele>214.19999694824</ele>
        <time>2013-10-26T13:04:27Z</time>
      </trkpt>
      <trkpt lat="43.41698" lon="6.12225">
        <ele>214.19999694824</ele>
        <time>2013-10-26T13:04:32Z</time>
      </trkpt>
      <trkpt lat="43.41698" lon="6.12226">
        <ele>214.19999694824</ele>
        <time>2013-10-26T13:04:33Z</time>
      </trkpt>
      <trkpt lat="43.41698" lon="6.12228">
        <ele>214.19999694824</ele>
        <time>2013-10-26T13:04:36Z</time>
      </trkpt>
      <trkpt lat="43.41698" lon="6.12228">
        <ele>214.19999694824</ele>
        <time>2013-10-26T13:04:38Z</time>
      </trkpt>
      <trkpt lat="43.41698" lon="6.12231">
        <ele>214.19999694824</ele>
        <time>2013-10-26T13:04:42Z</time>
      </trkpt>
      <trkpt lat="43.41698" lon="6.12233">
        <ele>214.19999694824</ele>
        <time>2013-10-26T13:04:43Z</time>
      </trkpt>
      <trkpt lat="43.41697" lon="6.1224">
        <ele>214.60000610352</ele>
        <time>2013-10-26T13:04:46Z</time>
      </trkpt>
      <trkpt lat="43.41697" lon="6.12243">
        <ele>215</ele>
        <time>2013-10-26T13:04:47Z</time>
      </trkpt>
      <trkpt lat="43.41698" lon="6.12248">
        <ele>215.80000305176</ele>
        <time>2013-10-26T13:04:49Z</time>
      </trkpt>
      <trkpt lat="43.41698" lon="6.12251">
        <ele>216.19999694824</ele>
        <time>2013-10-26T13:04:50Z</time>
      </trkpt>
      <trkpt lat="43.41702" lon="6.12266">
        <ele>216.19999694824</ele>
        <time>2013-10-26T13:04:55Z</time>
      </trkpt>
      <trkpt lat="43.41703" lon="6.1228">
        <ele>216.19999694824</ele>
        <time>2013-10-26T13:04:59Z</time>
      </trkpt>
      <trkpt lat="43.41705" lon="6.12283">
        <ele>216.19999694824</ele>
        <time>2013-10-26T13:05:00Z</time>
      </trkpt>
      <trkpt lat="43.41708" lon="6.12292">
        <ele>215.80000305176</ele>
        <time>2013-10-26T13:05:02Z</time>
      </trkpt>
      <trkpt lat="43.41709" lon="6.12296">
        <ele>215.19999694824</ele>
        <time>2013-10-26T13:05:03Z</time>
      </trkpt>
      <trkpt lat="43.4171" lon="6.1231">
        <ele>214</ele>
        <time>2013-10-26T13:05:06Z</time>
      </trkpt>
      <trkpt lat="43.4171" lon="6.12318">
        <ele>213</ele>
        <time>2013-10-26T13:05:09Z</time>
      </trkpt>
      <trkpt lat="43.41711" lon="6.12326">
        <ele>212</ele>
        <time>2013-10-26T13:05:11Z</time>
      </trkpt>
      <trkpt lat="43.41719" lon="6.12335">
        <ele>212</ele>
        <time>2013-10-26T13:05:15Z</time>
      </trkpt>
      <trkpt lat="43.41733" lon="6.12336">
        <ele>209.80000305176</ele>
        <time>2013-10-26T13:05:21Z</time>
      </trkpt>
      <trkpt lat="43.41738" lon="6.12332">
        <ele>209.80000305176</ele>
        <time>2013-10-26T13:05:23Z</time>
      </trkpt>
      <trkpt lat="43.4174" lon="6.12325">
        <ele>209.39999389648</ele>
        <time>2013-10-26T13:05:25Z</time>
      </trkpt>
      <trkpt lat="43.41741" lon="6.12321">
        <ele>209</ele>
        <time>2013-10-26T13:05:26Z</time>
      </trkpt>
      <trkpt lat="43.41743" lon="6.12317">
        <ele>208.60000610352</ele>
        <time>2013-10-26T13:05:27Z</time>
      </trkpt>
      <trkpt lat="43.41744" lon="6.12315">
        <ele>208.19999694824</ele>
        <time>2013-10-26T13:05:28Z</time>
      </trkpt>
      <trkpt lat="43.41747" lon="6.12313">
        <ele>207.80000305176</ele>
        <time>2013-10-26T13:05:29Z</time>
      </trkpt>
      <trkpt lat="43.41752" lon="6.12305">
        <ele>207.80000305176</ele>
        <time>2013-10-26T13:05:32Z</time>
      </trkpt>
      <trkpt lat="43.41754" lon="6.12301">
        <ele>207.80000305176</ele>
        <time>2013-10-26T13:05:36Z</time>
      </trkpt>
      <trkpt lat="43.41754" lon="6.12301">
        <ele>207.80000305176</ele>
        <time>2013-10-26T13:05:59Z</time>
      </trkpt>
      <trkpt lat="43.41754" lon="6.12301">
        <ele>207.80000305176</ele>
        <time>2013-10-26T13:06:13Z</time>
      </trkpt>
      <trkpt lat="43.41754" lon="6.12301">
        <ele>207.80000305176</ele>
        <time>2013-10-26T13:06:15Z</time>
      </trkpt>
      <trkpt lat="43.41754" lon="6.12301">
        <ele>207.80000305176</ele>
        <time>2013-10-26T13:06:27Z</time>
      </trkpt>
      <trkpt lat="43.41756" lon="6.12297">
        <ele>207.80000305176</ele>
        <time>2013-10-26T13:06:36Z</time>
      </trkpt>
      <trkpt lat="43.41764" lon="6.12281">
        <ele>207.80000305176</ele>
        <time>2013-10-26T13:06:42Z</time>
      </trkpt>
      <trkpt lat="43.41776" lon="6.12263">
        <ele>207.39999389648</ele>
        <time>2013-10-26T13:06:48Z</time>
      </trkpt>
      <trkpt lat="43.41778" lon="6.12259">
        <ele>207</ele>
        <time>2013-10-26T13:06:49Z</time>
      </trkpt>
      <trkpt lat="43.4178" lon="6.12255">
        <ele>206.60000610352</ele>
        <time>2013-10-26T13:06:50Z</time>
      </trkpt>
      <trkpt lat="43.41785" lon="6.12248">
        <ele>205.60000610352</ele>
        <time>2013-10-26T13:06:52Z</time>
      </trkpt>
      <trkpt lat="43.41794" lon="6.12232">
        <ele>205.60000610352</ele>
        <time>2013-10-26T13:06:56Z</time>
      </trkpt>
      <trkpt lat="43.41813" lon="6.12196">
        <ele>205.60000610352</ele>
        <time>2013-10-26T13:07:04Z</time>
      </trkpt>
      <trkpt lat="43.41833" lon="6.12161">
        <ele>205.19999694824</ele>
        <time>2013-10-26T13:07:11Z</time>
      </trkpt>
      <trkpt lat="43.41838" lon="6.1215">
        <ele>204.39999389648</ele>
        <time>2013-10-26T13:07:13Z</time>
      </trkpt>
      <trkpt lat="43.41843" lon="6.12139">
        <ele>203.60000610352</ele>
        <time>2013-10-26T13:07:15Z</time>
      </trkpt>
      <trkpt lat="43.41854" lon="6.12118">
        <ele>203.60000610352</ele>
        <time>2013-10-26T13:07:19Z</time>
      </trkpt>
      <trkpt lat="43.41866" lon="6.12091">
        <ele>203.60000610352</ele>
        <time>2013-10-26T13:07:24Z</time>
      </trkpt>
      <trkpt lat="43.4187" lon="6.12081">
        <ele>203.19999694824</ele>
        <time>2013-10-26T13:07:26Z</time>
      </trkpt>
      <trkpt lat="43.41879" lon="6.12059">
        <ele>201.60000610352</ele>
        <time>2013-10-26T13:07:31Z</time>
      </trkpt>
      <trkpt lat="43.41885" lon="6.12034">
        <ele>201.60000610352</ele>
        <time>2013-10-26T13:07:36Z</time>
      </trkpt>
      <trkpt lat="43.41898" lon="6.12004">
        <ele>201.60000610352</ele>
        <time>2013-10-26T13:07:43Z</time>
      </trkpt>
      <trkpt lat="43.41906" lon="6.11985">
        <ele>201.60000610352</ele>
        <time>2013-10-26T13:07:48Z</time>
      </trkpt>
      <trkpt lat="43.41908" lon="6.11978">
        <ele>201.60000610352</ele>
        <time>2013-10-26T13:07:50Z</time>
      </trkpt>
      <trkpt lat="43.41914" lon="6.11963">
        <ele>201.60000610352</ele>
        <time>2013-10-26T13:07:54Z</time>
      </trkpt>
      <trkpt lat="43.41918" lon="6.11952">
        <ele>201.60000610352</ele>
        <time>2013-10-26T13:07:57Z</time>
      </trkpt>
      <trkpt lat="43.4192" lon="6.11945">
        <ele>202</ele>
        <time>2013-10-26T13:07:59Z</time>
      </trkpt>
      <trkpt lat="43.41921" lon="6.11941">
        <ele>202.80000305176</ele>
        <time>2013-10-26T13:08:01Z</time>
      </trkpt>
      <trkpt lat="43.41924" lon="6.11937">
        <ele>203.60000610352</ele>
        <time>2013-10-26T13:08:05Z</time>
      </trkpt>
      <trkpt lat="43.41929" lon="6.11938">
        <ele>203.60000610352</ele>
        <time>2013-10-26T13:08:08Z</time>
      </trkpt>
      <trkpt lat="43.41941" lon="6.11941">
        <ele>203.60000610352</ele>
        <time>2013-10-26T13:08:13Z</time>
      </trkpt>
      <trkpt lat="43.41943" lon="6.11941">
        <ele>203.60000610352</ele>
        <time>2013-10-26T13:08:14Z</time>
      </trkpt>
      <trkpt lat="43.41959" lon="6.1195">
        <ele>203.60000610352</ele>
        <time>2013-10-26T13:08:19Z</time>
      </trkpt>
      <trkpt lat="43.41962" lon="6.11952">
        <ele>203.19999694824</ele>
        <time>2013-10-26T13:08:20Z</time>
      </trkpt>
      <trkpt lat="43.41965" lon="6.11953">
        <ele>202.80000305176</ele>
        <time>2013-10-26T13:08:21Z</time>
      </trkpt>
      <trkpt lat="43.41969" lon="6.11956">
        <ele>202.39999389648</ele>
        <time>2013-10-26T13:08:22Z</time>
      </trkpt>
      <trkpt lat="43.41973" lon="6.11957">
        <ele>201.80000305176</ele>
        <time>2013-10-26T13:08:23Z</time>
      </trkpt>
      <trkpt lat="43.41986" lon="6.11962">
        <ele>201</ele>
        <time>2013-10-26T13:08:25Z</time>
      </trkpt>
      <trkpt lat="43.41994" lon="6.11974">
        <ele>200.19999694824</ele>
        <time>2013-10-26T13:08:27Z</time>
      </trkpt>
      <trkpt lat="43.41996" lon="6.11984">
        <ele>199.19999694824</ele>
        <time>2013-10-26T13:08:29Z</time>
      </trkpt>
      <trkpt lat="43.41999" lon="6.11995">
        <ele>199.19999694824</ele>
        <time>2013-10-26T13:08:31Z</time>
      </trkpt>
      <trkpt lat="43.42001" lon="6.12001">
        <ele>199.19999694824</ele>
        <time>2013-10-26T13:08:32Z</time>
      </trkpt>
      <trkpt lat="43.4201" lon="6.1202">
        <ele>199.19999694824</ele>
        <time>2013-10-26T13:08:36Z</time>
      </trkpt>
      <trkpt lat="43.42028" lon="6.12047">
        <ele>199.19999694824</ele>
        <time>2013-10-26T13:08:43Z</time>
      </trkpt>
      <trkpt lat="43.42036" lon="6.12074">
        <ele>199.19999694824</ele>
        <time>2013-10-26T13:08:49Z</time>
      </trkpt>
      <trkpt lat="43.42039" lon="6.12089">
        <ele>199.19999694824</ele>
        <time>2013-10-26T13:08:52Z</time>
      </trkpt>
      <trkpt lat="43.4204" lon="6.12098">
        <ele>199.19999694824</ele>
        <time>2013-10-26T13:08:54Z</time>
      </trkpt>
      <trkpt lat="43.42043" lon="6.1212">
        <ele>199.19999694824</ele>
        <time>2013-10-26T13:08:58Z</time>
      </trkpt>
      <trkpt lat="43.42044" lon="6.12132">
        <ele>199.19999694824</ele>
        <time>2013-10-26T13:09:00Z</time>
      </trkpt>
      <trkpt lat="43.42046" lon="6.1216">
        <ele>199.19999694824</ele>
        <time>2013-10-26T13:09:05Z</time>
      </trkpt>
      <trkpt lat="43.42035" lon="6.1222">
        <ele>199.19999694824</ele>
        <time>2013-10-26T13:09:18Z</time>
      </trkpt>
      <trkpt lat="43.42033" lon="6.12244">
        <ele>199.19999694824</ele>
        <time>2013-10-26T13:09:24Z</time>
      </trkpt>
      <trkpt lat="43.42036" lon="6.12259">
        <ele>199.19999694824</ele>
        <time>2013-10-26T13:09:29Z</time>
      </trkpt>
      <trkpt lat="43.42043" lon="6.12282">
        <ele>199.19999694824</ele>
        <time>2013-10-26T13:09:35Z</time>
      </trkpt>
      <trkpt lat="43.42054" lon="6.12307">
        <ele>199.19999694824</ele>
        <time>2013-10-26T13:09:41Z</time>
      </trkpt>
      <trkpt lat="43.42064" lon="6.12312">
        <ele>199.19999694824</ele>
        <time>2013-10-26T13:09:44Z</time>
      </trkpt>
      <trkpt lat="43.4207" lon="6.12316">
        <ele>199.19999694824</ele>
        <time>2013-10-26T13:09:46Z</time>
      </trkpt>
      <trkpt lat="43.42078" lon="6.12326">
        <ele>199.19999694824</ele>
        <time>2013-10-26T13:09:50Z</time>
      </trkpt>
      <trkpt lat="43.42075" lon="6.12339">
        <ele>199.19999694824</ele>
        <time>2013-10-26T13:09:54Z</time>
      </trkpt>
      <trkpt lat="43.42072" lon="6.12344">
        <ele>199.19999694824</ele>
        <time>2013-10-26T13:09:56Z</time>
      </trkpt>
      <trkpt lat="43.42064" lon="6.12354">
        <ele>199.19999694824</ele>
        <time>2013-10-26T13:10:00Z</time>
      </trkpt>
      <trkpt lat="43.4205" lon="6.12372">
        <ele>199.19999694824</ele>
        <time>2013-10-26T13:10:07Z</time>
      </trkpt>
      <trkpt lat="43.42045" lon="6.12387">
        <ele>199.19999694824</ele>
        <time>2013-10-26T13:10:12Z</time>
      </trkpt>
      <trkpt lat="43.4203" lon="6.12419">
        <ele>199.19999694824</ele>
        <time>2013-10-26T13:10:22Z</time>
      </trkpt>
      <trkpt lat="43.42027" lon="6.12425">
        <ele>199.19999694824</ele>
        <time>2013-10-26T13:10:24Z</time>
      </trkpt>
      <trkpt lat="43.4202" lon="6.12445">
        <ele>199.19999694824</ele>
        <time>2013-10-26T13:10:30Z</time>
      </trkpt>
      <trkpt lat="43.42019" lon="6.12458">
        <ele>201.39999389648</ele>
        <time>2013-10-26T13:10:35Z</time>
      </trkpt>
      <trkpt lat="43.42017" lon="6.12474">
        <ele>201.39999389648</ele>
        <time>2013-10-26T13:10:42Z</time>
      </trkpt>
      <trkpt lat="43.42015" lon="6.12488">
        <ele>201.39999389648</ele>
        <time>2013-10-26T13:10:48Z</time>
      </trkpt>
      <trkpt lat="43.42014" lon="6.12493">
        <ele>202.19999694824</ele>
        <time>2013-10-26T13:10:50Z</time>
      </trkpt>
      <trkpt lat="43.42013" lon="6.12499">
        <ele>203.60000610352</ele>
        <time>2013-10-26T13:10:53Z</time>
      </trkpt>
      <trkpt lat="43.42005" lon="6.12527">
        <ele>205.60000610352</ele>
        <time>2013-10-26T13:11:06Z</time>
      </trkpt>
      <trkpt lat="43.42003" lon="6.12536">
        <ele>205.60000610352</ele>
        <time>2013-10-26T13:11:10Z</time>
      </trkpt>
      <trkpt lat="43.42003" lon="6.1255">
        <ele>205.60000610352</ele>
        <time>2013-10-26T13:11:17Z</time>
      </trkpt>
      <trkpt lat="43.42" lon="6.12563">
        <ele>206</ele>
        <time>2013-10-26T13:11:24Z</time>
      </trkpt>
      <trkpt lat="43.41995" lon="6.12583">
        <ele>207.60000610352</ele>
        <time>2013-10-26T13:11:34Z</time>
      </trkpt>
      <trkpt lat="43.41991" lon="6.12595">
        <ele>208.39999389648</ele>
        <time>2013-10-26T13:11:40Z</time>
      </trkpt>
      <trkpt lat="43.41988" lon="6.12599">
        <ele>209.60000610352</ele>
        <time>2013-10-26T13:11:43Z</time>
      </trkpt>
      <trkpt lat="43.41984" lon="6.12611">
        <ele>209.60000610352</ele>
        <time>2013-10-26T13:11:50Z</time>
      </trkpt>
      <trkpt lat="43.41979" lon="6.12621">
        <ele>209.60000610352</ele>
        <time>2013-10-26T13:11:56Z</time>
      </trkpt>
      <trkpt lat="43.41973" lon="6.12635">
        <ele>209.60000610352</ele>
        <time>2013-10-26T13:12:03Z</time>
      </trkpt>
      <trkpt lat="43.4197" lon="6.12644">
        <ele>211.19999694824</ele>
        <time>2013-10-26T13:12:08Z</time>
      </trkpt>
      <trkpt lat="43.41967" lon="6.12659">
        <ele>211.60000610352</ele>
        <time>2013-10-26T13:12:16Z</time>
      </trkpt>
      <trkpt lat="43.41965" lon="6.12665">
        <ele>211.60000610352</ele>
        <time>2013-10-26T13:12:20Z</time>
      </trkpt>
      <trkpt lat="43.41964" lon="6.12667">
        <ele>211.60000610352</ele>
        <time>2013-10-26T13:12:22Z</time>
      </trkpt>
      <trkpt lat="43.41963" lon="6.12673">
        <ele>211.60000610352</ele>
        <time>2013-10-26T13:12:26Z</time>
      </trkpt>
      <trkpt lat="43.41962" lon="6.12675">
        <ele>211.60000610352</ele>
        <time>2013-10-26T13:12:28Z</time>
      </trkpt>
      <trkpt lat="43.41962" lon="6.12678">
        <ele>212</ele>
        <time>2013-10-26T13:12:32Z</time>
      </trkpt>
      <trkpt lat="43.41962" lon="6.12678">
        <ele>213.80000305176</ele>
        <time>2013-10-26T13:12:40Z</time>
      </trkpt>
      <trkpt lat="43.41962" lon="6.12678">
        <ele>213.80000305176</ele>
        <time>2013-10-26T13:12:43Z</time>
      </trkpt>
      <trkpt lat="43.41962" lon="6.12681">
        <ele>213.80000305176</ele>
        <time>2013-10-26T13:12:51Z</time>
      </trkpt>
      <trkpt lat="43.41958" lon="6.12697">
        <ele>213.80000305176</ele>
        <time>2013-10-26T13:12:58Z</time>
      </trkpt>
      <trkpt lat="43.41955" lon="6.12709">
        <ele>213.80000305176</ele>
        <time>2013-10-26T13:13:04Z</time>
      </trkpt>
      <trkpt lat="43.41952" lon="6.12724">
        <ele>215.80000305176</ele>
        <time>2013-10-26T13:13:11Z</time>
      </trkpt>
      <trkpt lat="43.41951" lon="6.12738">
        <ele>215.80000305176</ele>
        <time>2013-10-26T13:13:16Z</time>
      </trkpt>
      <trkpt lat="43.41952" lon="6.1275">
        <ele>216.19999694824</ele>
        <time>2013-10-26T13:13:21Z</time>
      </trkpt>
      <trkpt lat="43.41953" lon="6.12767">
        <ele>217.80000305176</ele>
        <time>2013-10-26T13:13:29Z</time>
      </trkpt>
      <trkpt lat="43.41954" lon="6.12782">
        <ele>217.80000305176</ele>
        <time>2013-10-26T13:13:36Z</time>
      </trkpt>
      <trkpt lat="43.41955" lon="6.12794">
        <ele>218.19999694824</ele>
        <time>2013-10-26T13:13:41Z</time>
      </trkpt>
      <trkpt lat="43.41955" lon="6.12799">
        <ele>219</ele>
        <time>2013-10-26T13:13:43Z</time>
      </trkpt>
      <trkpt lat="43.41956" lon="6.12813">
        <ele>219.80000305176</ele>
        <time>2013-10-26T13:13:51Z</time>
      </trkpt>
      <trkpt lat="43.41957" lon="6.12826">
        <ele>219.80000305176</ele>
        <time>2013-10-26T13:13:58Z</time>
      </trkpt>
      <trkpt lat="43.41957" lon="6.12833">
        <ele>221.60000610352</ele>
        <time>2013-10-26T13:14:02Z</time>
      </trkpt>
      <trkpt lat="43.41957" lon="6.12845">
        <ele>222</ele>
        <time>2013-10-26T13:14:07Z</time>
      </trkpt>
      <trkpt lat="43.41959" lon="6.12854">
        <ele>222</ele>
        <time>2013-10-26T13:14:11Z</time>
      </trkpt>
      <trkpt lat="43.41959" lon="6.12872">
        <ele>222.39999389648</ele>
        <time>2013-10-26T13:14:19Z</time>
      </trkpt>
      <trkpt lat="43.4196" lon="6.12886">
        <ele>224</ele>
        <time>2013-10-26T13:14:25Z</time>
      </trkpt>
      <trkpt lat="43.4196" lon="6.12896">
        <ele>224</ele>
        <time>2013-10-26T13:14:29Z</time>
      </trkpt>
      <trkpt lat="43.41961" lon="6.12903">
        <ele>224</ele>
        <time>2013-10-26T13:14:32Z</time>
      </trkpt>
      <trkpt lat="43.41961" lon="6.12923">
        <ele>224</ele>
        <time>2013-10-26T13:14:39Z</time>
      </trkpt>
      <trkpt lat="43.41959" lon="6.12941">
        <ele>224</ele>
        <time>2013-10-26T13:14:44Z</time>
      </trkpt>
      <trkpt lat="43.41959" lon="6.12964">
        <ele>224</ele>
        <time>2013-10-26T13:14:49Z</time>
      </trkpt>
      <trkpt lat="43.41957" lon="6.12991">
        <ele>224</ele>
        <time>2013-10-26T13:14:58Z</time>
      </trkpt>
      <trkpt lat="43.41956" lon="6.13018">
        <ele>224</ele>
        <time>2013-10-26T13:15:04Z</time>
      </trkpt>
      <trkpt lat="43.41954" lon="6.13027">
        <ele>224</ele>
        <time>2013-10-26T13:15:06Z</time>
      </trkpt>
      <trkpt lat="43.41952" lon="6.13053">
        <ele>224</ele>
        <time>2013-10-26T13:15:12Z</time>
      </trkpt>
      <trkpt lat="43.41949" lon="6.13074">
        <ele>224</ele>
        <time>2013-10-26T13:15:18Z</time>
      </trkpt>
      <trkpt lat="43.41947" lon="6.1309">
        <ele>224</ele>
        <time>2013-10-26T13:15:23Z</time>
      </trkpt>
      <trkpt lat="43.41947" lon="6.13104">
        <ele>224</ele>
        <time>2013-10-26T13:15:28Z</time>
      </trkpt>
      <trkpt lat="43.41947" lon="6.13107">
        <ele>224</ele>
        <time>2013-10-26T13:15:29Z</time>
      </trkpt>
      <trkpt lat="43.41952" lon="6.13121">
        <ele>224</ele>
        <time>2013-10-26T13:15:35Z</time>
      </trkpt>
      <trkpt lat="43.41953" lon="6.13126">
        <ele>225.39999389648</ele>
        <time>2013-10-26T13:15:37Z</time>
      </trkpt>
      <trkpt lat="43.41954" lon="6.13129">
        <ele>226.19999694824</ele>
        <time>2013-10-26T13:15:39Z</time>
      </trkpt>
      <trkpt lat="43.41954" lon="6.13133">
        <ele>226.19999694824</ele>
        <time>2013-10-26T13:15:41Z</time>
      </trkpt>
      <trkpt lat="43.41956" lon="6.13139">
        <ele>226.19999694824</ele>
        <time>2013-10-26T13:15:47Z</time>
      </trkpt>
      <trkpt lat="43.41956" lon="6.13139">
        <ele>226.19999694824</ele>
        <time>2013-10-26T13:15:52Z</time>
      </trkpt>
      <trkpt lat="43.41956" lon="6.13144">
        <ele>226.19999694824</ele>
        <time>2013-10-26T13:15:55Z</time>
      </trkpt>
      <trkpt lat="43.41959" lon="6.13158">
        <ele>226.19999694824</ele>
        <time>2013-10-26T13:16:02Z</time>
      </trkpt>
      <trkpt lat="43.41959" lon="6.13169">
        <ele>226.19999694824</ele>
        <time>2013-10-26T13:16:07Z</time>
      </trkpt>
      <trkpt lat="43.41958" lon="6.13179">
        <ele>226.60000610352</ele>
        <time>2013-10-26T13:16:11Z</time>
      </trkpt>
      <trkpt lat="43.41957" lon="6.13189">
        <ele>228.19999694824</ele>
        <time>2013-10-26T13:16:15Z</time>
      </trkpt>
      <trkpt lat="43.41955" lon="6.13202">
        <ele>228.19999694824</ele>
        <time>2013-10-26T13:16:20Z</time>
      </trkpt>
      <trkpt lat="43.41955" lon="6.13236">
        <ele>228.19999694824</ele>
        <time>2013-10-26T13:16:34Z</time>
      </trkpt>
      <trkpt lat="43.41955" lon="6.13253">
        <ele>230.19999694824</ele>
        <time>2013-10-26T13:16:41Z</time>
      </trkpt>
      <trkpt lat="43.41956" lon="6.13268">
        <ele>230.19999694824</ele>
        <time>2013-10-26T13:16:47Z</time>
      </trkpt>
      <trkpt lat="43.41956" lon="6.1328">
        <ele>231</ele>
        <time>2013-10-26T13:16:53Z</time>
      </trkpt>
      <trkpt lat="43.41958" lon="6.13298">
        <ele>232.39999389648</ele>
        <time>2013-10-26T13:17:01Z</time>
      </trkpt>
      <trkpt lat="43.41959" lon="6.13311">
        <ele>232.39999389648</ele>
        <time>2013-10-26T13:17:07Z</time>
      </trkpt>
      <trkpt lat="43.41959" lon="6.13318">
        <ele>233.19999694824</ele>
        <time>2013-10-26T13:17:11Z</time>
      </trkpt>
      <trkpt lat="43.41959" lon="6.13323">
        <ele>234.39999389648</ele>
        <time>2013-10-26T13:17:14Z</time>
      </trkpt>
      <trkpt lat="43.41961" lon="6.13325">
        <ele>234.39999389648</ele>
        <time>2013-10-26T13:17:15Z</time>
      </trkpt>
      <trkpt lat="43.41963" lon="6.13332">
        <ele>234.39999389648</ele>
        <time>2013-10-26T13:17:19Z</time>
      </trkpt>
      <trkpt lat="43.41963" lon="6.13333">
        <ele>234.39999389648</ele>
        <time>2013-10-26T13:17:20Z</time>
      </trkpt>
      <trkpt lat="43.41966" lon="6.13339">
        <ele>234.39999389648</ele>
        <time>2013-10-26T13:17:25Z</time>
      </trkpt>
      <trkpt lat="43.41966" lon="6.13339">
        <ele>234.39999389648</ele>
        <time>2013-10-26T13:17:30Z</time>
      </trkpt>
      <trkpt lat="43.41966" lon="6.13339">
        <ele>234.39999389648</ele>
        <time>2013-10-26T13:17:49Z</time>
      </trkpt>
      <trkpt lat="43.41966" lon="6.13339">
        <ele>234.39999389648</ele>
        <time>2013-10-26T13:18:03Z</time>
      </trkpt>
      <trkpt lat="43.41966" lon="6.13339">
        <ele>234.39999389648</ele>
        <time>2013-10-26T13:18:06Z</time>
      </trkpt>
      <trkpt lat="43.41966" lon="6.13339">
        <ele>234.39999389648</ele>
        <time>2013-10-26T13:18:36Z</time>
      </trkpt>
      <trkpt lat="43.41966" lon="6.1334">
        <ele>234.39999389648</ele>
        <time>2013-10-26T13:18:52Z</time>
      </trkpt>
      <trkpt lat="43.41966" lon="6.1334">
        <ele>234.39999389648</ele>
        <time>2013-10-26T13:19:03Z</time>
      </trkpt>
      <trkpt lat="43.41966" lon="6.13342">
        <ele>234.39999389648</ele>
        <time>2013-10-26T13:19:09Z</time>
      </trkpt>
      <trkpt lat="43.41966" lon="6.13343">
        <ele>234.39999389648</ele>
        <time>2013-10-26T13:19:16Z</time>
      </trkpt>
      <trkpt lat="43.41966" lon="6.13343">
        <ele>234.39999389648</ele>
        <time>2013-10-26T13:19:30Z</time>
      </trkpt>
      <trkpt lat="43.41966" lon="6.13343">
        <ele>234.39999389648</ele>
        <time>2013-10-26T13:19:41Z</time>
      </trkpt>
      <trkpt lat="43.41966" lon="6.13344">
        <ele>234.39999389648</ele>
        <time>2013-10-26T13:19:43Z</time>
      </trkpt>
      <trkpt lat="43.41967" lon="6.13345">
        <ele>234.39999389648</ele>
        <time>2013-10-26T13:19:44Z</time>
      </trkpt>
      <trkpt lat="43.41968" lon="6.1335">
        <ele>234.39999389648</ele>
        <time>2013-10-26T13:19:46Z</time>
      </trkpt>
      <trkpt lat="43.41969" lon="6.13355">
        <ele>234.39999389648</ele>
        <time>2013-10-26T13:19:49Z</time>
      </trkpt>
      <trkpt lat="43.4197" lon="6.13361">
        <ele>234.80000305176</ele>
        <time>2013-10-26T13:19:52Z</time>
      </trkpt>
      <trkpt lat="43.4197" lon="6.13366">
        <ele>236</ele>
        <time>2013-10-26T13:19:55Z</time>
      </trkpt>
      <trkpt lat="43.41968" lon="6.13383">
        <ele>236.39999389648</ele>
        <time>2013-10-26T13:20:03Z</time>
      </trkpt>
      <trkpt lat="43.41972" lon="6.13425">
        <ele>238.60000610352</ele>
        <time>2013-10-26T13:20:21Z</time>
      </trkpt>
      <trkpt lat="43.41973" lon="6.13436">
        <ele>239</ele>
        <time>2013-10-26T13:20:26Z</time>
      </trkpt>
      <trkpt lat="43.41972" lon="6.13459">
        <ele>240.60000610352</ele>
        <time>2013-10-26T13:20:36Z</time>
      </trkpt>
      <trkpt lat="43.41975" lon="6.13475">
        <ele>240.60000610352</ele>
        <time>2013-10-26T13:20:42Z</time>
      </trkpt>
      <trkpt lat="43.41977" lon="6.13487">
        <ele>241</ele>
        <time>2013-10-26T13:20:47Z</time>
      </trkpt>
      <trkpt lat="43.41977" lon="6.13496">
        <ele>242.80000305176</ele>
        <time>2013-10-26T13:20:51Z</time>
      </trkpt>
      <trkpt lat="43.41977" lon="6.13498">
        <ele>242.80000305176</ele>
        <time>2013-10-26T13:20:52Z</time>
      </trkpt>
      <trkpt lat="43.4198" lon="6.13506">
        <ele>242.80000305176</ele>
        <time>2013-10-26T13:20:56Z</time>
      </trkpt>
      <trkpt lat="43.41981" lon="6.1351">
        <ele>242.80000305176</ele>
        <time>2013-10-26T13:20:58Z</time>
      </trkpt>
      <trkpt lat="43.41986" lon="6.13521">
        <ele>243.19999694824</ele>
        <time>2013-10-26T13:21:04Z</time>
      </trkpt>
      <trkpt lat="43.41991" lon="6.13528">
        <ele>244.80000305176</ele>
        <time>2013-10-26T13:21:08Z</time>
      </trkpt>
      <trkpt lat="43.41995" lon="6.13533">
        <ele>244.80000305176</ele>
        <time>2013-10-26T13:21:11Z</time>
      </trkpt>
      <trkpt lat="43.42005" lon="6.13544">
        <ele>244.80000305176</ele>
        <time>2013-10-26T13:21:18Z</time>
      </trkpt>
      <trkpt lat="43.42015" lon="6.13552">
        <ele>244.80000305176</ele>
        <time>2013-10-26T13:21:24Z</time>
      </trkpt>
      <trkpt lat="43.42026" lon="6.1356">
        <ele>244.80000305176</ele>
        <time>2013-10-26T13:21:31Z</time>
      </trkpt>
      <trkpt lat="43.42034" lon="6.13573">
        <ele>244.80000305176</ele>
        <time>2013-10-26T13:21:36Z</time>
      </trkpt>
      <trkpt lat="43.42044" lon="6.13587">
        <ele>244.80000305176</ele>
        <time>2013-10-26T13:21:42Z</time>
      </trkpt>
      <trkpt lat="43.42047" lon="6.13591">
        <ele>244.80000305176</ele>
        <time>2013-10-26T13:21:44Z</time>
      </trkpt>
      <trkpt lat="43.42051" lon="6.13599">
        <ele>246</ele>
        <time>2013-10-26T13:21:47Z</time>
      </trkpt>
      <trkpt lat="43.42061" lon="6.13619">
        <ele>246.80000305176</ele>
        <time>2013-10-26T13:21:58Z</time>
      </trkpt>
      <trkpt lat="43.42066" lon="6.13627">
        <ele>246.80000305176</ele>
        <time>2013-10-26T13:22:03Z</time>
      </trkpt>
      <trkpt lat="43.42072" lon="6.13636">
        <ele>246.80000305176</ele>
        <time>2013-10-26T13:22:10Z</time>
      </trkpt>
      <trkpt lat="43.42072" lon="6.13639">
        <ele>248</ele>
        <time>2013-10-26T13:22:12Z</time>
      </trkpt>
      <trkpt lat="43.42073" lon="6.13643">
        <ele>248.80000305176</ele>
        <time>2013-10-26T13:22:14Z</time>
      </trkpt>
      <trkpt lat="43.42074" lon="6.13645">
        <ele>248.80000305176</ele>
        <time>2013-10-26T13:22:16Z</time>
      </trkpt>
      <trkpt lat="43.42079" lon="6.13653">
        <ele>248.80000305176</ele>
        <time>2013-10-26T13:22:21Z</time>
      </trkpt>
      <trkpt lat="43.4209" lon="6.13678">
        <ele>250</ele>
        <time>2013-10-26T13:22:36Z</time>
      </trkpt>
      <trkpt lat="43.42093" lon="6.13689">
        <ele>250.80000305176</ele>
        <time>2013-10-26T13:22:41Z</time>
      </trkpt>
      <trkpt lat="43.42097" lon="6.13705">
        <ele>250.80000305176</ele>
        <time>2013-10-26T13:22:48Z</time>
      </trkpt>
      <trkpt lat="43.42103" lon="6.13721">
        <ele>250.80000305176</ele>
        <time>2013-10-26T13:22:55Z</time>
      </trkpt>
      <trkpt lat="43.42108" lon="6.13733">
        <ele>251.80000305176</ele>
        <time>2013-10-26T13:23:02Z</time>
      </trkpt>
      <trkpt lat="43.42111" lon="6.13738">
        <ele>253</ele>
        <time>2013-10-26T13:23:05Z</time>
      </trkpt>
      <trkpt lat="43.42118" lon="6.13752">
        <ele>253</ele>
        <time>2013-10-26T13:23:13Z</time>
      </trkpt>
      <trkpt lat="43.42125" lon="6.13764">
        <ele>253.80000305176</ele>
        <time>2013-10-26T13:23:19Z</time>
      </trkpt>
      <trkpt lat="43.42128" lon="6.1377">
        <ele>255</ele>
        <time>2013-10-26T13:23:22Z</time>
      </trkpt>
      <trkpt lat="43.42139" lon="6.13791">
        <ele>256.60000610352</ele>
        <time>2013-10-26T13:23:33Z</time>
      </trkpt>
      <trkpt lat="43.42144" lon="6.13804">
        <ele>257</ele>
        <time>2013-10-26T13:23:40Z</time>
      </trkpt>
      <trkpt lat="43.42153" lon="6.13818">
        <ele>257.39999389648</ele>
        <time>2013-10-26T13:23:49Z</time>
      </trkpt>
      <trkpt lat="43.42155" lon="6.13822">
        <ele>259.39999389648</ele>
        <time>2013-10-26T13:23:52Z</time>
      </trkpt>
      <trkpt lat="43.42157" lon="6.13829">
        <ele>259.39999389648</ele>
        <time>2013-10-26T13:23:56Z</time>
      </trkpt>
      <trkpt lat="43.4216" lon="6.13837">
        <ele>259.39999389648</ele>
        <time>2013-10-26T13:24:01Z</time>
      </trkpt>
      <trkpt lat="43.42163" lon="6.13837">
        <ele>259.79998779297</ele>
        <time>2013-10-26T13:24:05Z</time>
      </trkpt>
      <trkpt lat="43.42163" lon="6.13838">
        <ele>260.20001220703</ele>
        <time>2013-10-26T13:24:06Z</time>
      </trkpt>
      <trkpt lat="43.42163" lon="6.13838">
        <ele>261.39999389648</ele>
        <time>2013-10-26T13:24:24Z</time>
      </trkpt>
      <trkpt lat="43.42163" lon="6.13838">
        <ele>261.39999389648</ele>
        <time>2013-10-26T13:24:52Z</time>
      </trkpt>
      <trkpt lat="43.42162" lon="6.13838">
        <ele>261.39999389648</ele>
        <time>2013-10-26T13:24:57Z</time>
      </trkpt>
      <trkpt lat="43.42162" lon="6.13838">
        <ele>261.39999389648</ele>
        <time>2013-10-26T13:25:26Z</time>
      </trkpt>
      <trkpt lat="43.42162" lon="6.13837">
        <ele>261.39999389648</ele>
        <time>2013-10-26T13:26:44Z</time>
      </trkpt>
      <trkpt lat="43.42162" lon="6.13838">
        <ele>261.39999389648</ele>
        <time>2013-10-26T13:27:00Z</time>
      </trkpt>
      <trkpt lat="43.42162" lon="6.13838">
        <ele>261.39999389648</ele>
        <time>2013-10-26T13:27:02Z</time>
      </trkpt>
      <trkpt lat="43.42163" lon="6.1384">
        <ele>261.39999389648</ele>
        <time>2013-10-26T13:27:10Z</time>
      </trkpt>
      <trkpt lat="43.42165" lon="6.13841">
        <ele>261.39999389648</ele>
        <time>2013-10-26T13:27:11Z</time>
      </trkpt>
      <trkpt lat="43.42167" lon="6.13845">
        <ele>261.39999389648</ele>
        <time>2013-10-26T13:27:14Z</time>
      </trkpt>
      <trkpt lat="43.42171" lon="6.1385">
        <ele>261.39999389648</ele>
        <time>2013-10-26T13:27:18Z</time>
      </trkpt>
      <trkpt lat="43.42177" lon="6.13863">
        <ele>261.39999389648</ele>
        <time>2013-10-26T13:27:23Z</time>
      </trkpt>
      <trkpt lat="43.42181" lon="6.1387">
        <ele>262.39999389648</ele>
        <time>2013-10-26T13:27:27Z</time>
      </trkpt>
      <trkpt lat="43.42183" lon="6.13873">
        <ele>263.20001220703</ele>
        <time>2013-10-26T13:27:29Z</time>
      </trkpt>
      <trkpt lat="43.42184" lon="6.13878">
        <ele>263.60000610352</ele>
        <time>2013-10-26T13:27:32Z</time>
      </trkpt>
      <trkpt lat="43.42185" lon="6.13881">
        <ele>263.60000610352</ele>
        <time>2013-10-26T13:27:34Z</time>
      </trkpt>
      <trkpt lat="43.42188" lon="6.1389">
        <ele>263.60000610352</ele>
        <time>2013-10-26T13:27:40Z</time>
      </trkpt>
      <trkpt lat="43.42193" lon="6.13903">
        <ele>265.79998779297</ele>
        <time>2013-10-26T13:27:47Z</time>
      </trkpt>
      <trkpt lat="43.42195" lon="6.13908">
        <ele>265.79998779297</ele>
        <time>2013-10-26T13:27:50Z</time>
      </trkpt>
      <trkpt lat="43.42199" lon="6.1392">
        <ele>265.79998779297</ele>
        <time>2013-10-26T13:27:56Z</time>
      </trkpt>
      <trkpt lat="43.42202" lon="6.13931">
        <ele>268</ele>
        <time>2013-10-26T13:28:04Z</time>
      </trkpt>
      <trkpt lat="43.42202" lon="6.13935">
        <ele>268</ele>
        <time>2013-10-26T13:28:06Z</time>
      </trkpt>
      <trkpt lat="43.42204" lon="6.13951">
        <ele>268.39999389648</ele>
        <time>2013-10-26T13:28:16Z</time>
      </trkpt>
      <trkpt lat="43.42205" lon="6.13958">
        <ele>270</ele>
        <time>2013-10-26T13:28:20Z</time>
      </trkpt>
      <trkpt lat="43.42206" lon="6.13965">
        <ele>270</ele>
        <time>2013-10-26T13:28:25Z</time>
      </trkpt>
      <trkpt lat="43.42206" lon="6.13966">
        <ele>270</ele>
        <time>2013-10-26T13:28:26Z</time>
      </trkpt>
      <trkpt lat="43.42205" lon="6.13974">
        <ele>270</ele>
        <time>2013-10-26T13:28:31Z</time>
      </trkpt>
      <trkpt lat="43.42207" lon="6.13976">
        <ele>270</ele>
        <time>2013-10-26T13:28:35Z</time>
      </trkpt>
      <trkpt lat="43.42207" lon="6.13977">
        <ele>270.39999389648</ele>
        <time>2013-10-26T13:28:38Z</time>
      </trkpt>
      <trkpt lat="43.42207" lon="6.13977">
        <ele>272</ele>
        <time>2013-10-26T13:28:55Z</time>
      </trkpt>
      <trkpt lat="43.42207" lon="6.13977">
        <ele>272</ele>
        <time>2013-10-26T13:29:06Z</time>
      </trkpt>
      <trkpt lat="43.42207" lon="6.13977">
        <ele>272</ele>
        <time>2013-10-26T13:29:11Z</time>
      </trkpt>
      <trkpt lat="43.42205" lon="6.13981">
        <ele>272</ele>
        <time>2013-10-26T13:29:13Z</time>
      </trkpt>
      <trkpt lat="43.42205" lon="6.13986">
        <ele>272</ele>
        <time>2013-10-26T13:29:15Z</time>
      </trkpt>
      <trkpt lat="43.42204" lon="6.13994">
        <ele>272</ele>
        <time>2013-10-26T13:29:18Z</time>
      </trkpt>
      <trkpt lat="43.42204" lon="6.14001">
        <ele>272</ele>
        <time>2013-10-26T13:29:20Z</time>
      </trkpt>
      <trkpt lat="43.42203" lon="6.14004">
        <ele>272</ele>
        <time>2013-10-26T13:29:21Z</time>
      </trkpt>
      <trkpt lat="43.42203" lon="6.1401">
        <ele>272.39999389648</ele>
        <time>2013-10-26T13:29:23Z</time>
      </trkpt>
      <trkpt lat="43.42203" lon="6.14013">
        <ele>273</ele>
        <time>2013-10-26T13:29:24Z</time>
      </trkpt>
      <trkpt lat="43.42202" lon="6.14018">
        <ele>273.79998779297</ele>
        <time>2013-10-26T13:29:26Z</time>
      </trkpt>
      <trkpt lat="43.422" lon="6.14029">
        <ele>275</ele>
        <time>2013-10-26T13:29:30Z</time>
      </trkpt>
      <trkpt lat="43.42197" lon="6.14035">
        <ele>276.39999389648</ele>
        <time>2013-10-26T13:29:33Z</time>
      </trkpt>
      <trkpt lat="43.42193" lon="6.14044">
        <ele>276.79998779297</ele>
        <time>2013-10-26T13:29:39Z</time>
      </trkpt>
      <trkpt lat="43.42189" lon="6.14054">
        <ele>278.39999389648</ele>
        <time>2013-10-26T13:29:43Z</time>
      </trkpt>
      <trkpt lat="43.42185" lon="6.14064">
        <ele>278.39999389648</ele>
        <time>2013-10-26T13:29:48Z</time>
      </trkpt>
      <trkpt lat="43.42181" lon="6.14072">
        <ele>278.79998779297</ele>
        <time>2013-10-26T13:29:53Z</time>
      </trkpt>
      <trkpt lat="43.42178" lon="6.14087">
        <ele>280.39999389648</ele>
        <time>2013-10-26T13:30:03Z</time>
      </trkpt>
      <trkpt lat="43.42177" lon="6.1409">
        <ele>280.39999389648</ele>
        <time>2013-10-26T13:30:05Z</time>
      </trkpt>
      <trkpt lat="43.42176" lon="6.14092">
        <ele>280.39999389648</ele>
        <time>2013-10-26T13:30:10Z</time>
      </trkpt>
      <trkpt lat="43.42176" lon="6.14092">
        <ele>280.39999389648</ele>
        <time>2013-10-26T13:30:22Z</time>
      </trkpt>
      <trkpt lat="43.42176" lon="6.14092">
        <ele>280.39999389648</ele>
        <time>2013-10-26T13:30:32Z</time>
      </trkpt>
      <trkpt lat="43.42176" lon="6.14091">
        <ele>280.39999389648</ele>
        <time>2013-10-26T13:30:35Z</time>
      </trkpt>
      <trkpt lat="43.42178" lon="6.14088">
        <ele>280.39999389648</ele>
        <time>2013-10-26T13:30:37Z</time>
      </trkpt>
      <trkpt lat="43.42179" lon="6.1408">
        <ele>280.39999389648</ele>
        <time>2013-10-26T13:30:40Z</time>
      </trkpt>
      <trkpt lat="43.42181" lon="6.14074">
        <ele>280.39999389648</ele>
        <time>2013-10-26T13:30:42Z</time>
      </trkpt>
      <trkpt lat="43.42183" lon="6.14067">
        <ele>280.39999389648</ele>
        <time>2013-10-26T13:30:44Z</time>
      </trkpt>
      <trkpt lat="43.42184" lon="6.14064">
        <ele>280.39999389648</ele>
        <time>2013-10-26T13:30:45Z</time>
      </trkpt>
      <trkpt lat="43.42186" lon="6.14062">
        <ele>280.39999389648</ele>
        <time>2013-10-26T13:30:46Z</time>
      </trkpt>
      <trkpt lat="43.42187" lon="6.1406">
        <ele>280.39999389648</ele>
        <time>2013-10-26T13:30:47Z</time>
      </trkpt>
      <trkpt lat="43.4219" lon="6.14055">
        <ele>280.39999389648</ele>
        <time>2013-10-26T13:30:49Z</time>
      </trkpt>
      <trkpt lat="43.42192" lon="6.14052">
        <ele>280.39999389648</ele>
        <time>2013-10-26T13:30:51Z</time>
      </trkpt>
      <trkpt lat="43.42192" lon="6.1405">
        <ele>280.39999389648</ele>
        <time>2013-10-26T13:30:53Z</time>
      </trkpt>
      <trkpt lat="43.42192" lon="6.1405">
        <ele>280.39999389648</ele>
        <time>2013-10-26T13:30:56Z</time>
      </trkpt>
      <trkpt lat="43.42191" lon="6.1405">
        <ele>280.39999389648</ele>
        <time>2013-10-26T13:30:58Z</time>
      </trkpt>
      <trkpt lat="43.4219" lon="6.14051">
        <ele>280.39999389648</ele>
        <time>2013-10-26T13:30:59Z</time>
      </trkpt>
      <trkpt lat="43.42188" lon="6.14053">
        <ele>280.39999389648</ele>
        <time>2013-10-26T13:31:05Z</time>
      </trkpt>
      <trkpt lat="43.42187" lon="6.14058">
        <ele>280.39999389648</ele>
        <time>2013-10-26T13:31:09Z</time>
      </trkpt>
      <trkpt lat="43.42181" lon="6.1407">
        <ele>280.39999389648</ele>
        <time>2013-10-26T13:31:14Z</time>
      </trkpt>
      <trkpt lat="43.42179" lon="6.14075">
        <ele>280.39999389648</ele>
        <time>2013-10-26T13:31:16Z</time>
      </trkpt>
      <trkpt lat="43.42176" lon="6.14095">
        <ele>280.39999389648</ele>
        <time>2013-10-26T13:31:23Z</time>
      </trkpt>
      <trkpt lat="43.42172" lon="6.14103">
        <ele>280.39999389648</ele>
        <time>2013-10-26T13:31:26Z</time>
      </trkpt>
      <trkpt lat="43.42169" lon="6.14108">
        <ele>281.20001220703</ele>
        <time>2013-10-26T13:31:28Z</time>
      </trkpt>
      <trkpt lat="43.42164" lon="6.14112">
        <ele>282</ele>
        <time>2013-10-26T13:31:30Z</time>
      </trkpt>
      <trkpt lat="43.42162" lon="6.14113">
        <ele>282.39999389648</ele>
        <time>2013-10-26T13:31:31Z</time>
      </trkpt>
      <trkpt lat="43.42157" lon="6.14121">
        <ele>282.39999389648</ele>
        <time>2013-10-26T13:31:34Z</time>
      </trkpt>
      <trkpt lat="43.42151" lon="6.14126">
        <ele>282.39999389648</ele>
        <time>2013-10-26T13:31:37Z</time>
      </trkpt>
      <trkpt lat="43.4215" lon="6.14127">
        <ele>283</ele>
        <time>2013-10-26T13:31:38Z</time>
      </trkpt>
      <trkpt lat="43.42149" lon="6.14127">
        <ele>283.39999389648</ele>
        <time>2013-10-26T13:31:39Z</time>
      </trkpt>
      <trkpt lat="43.42147" lon="6.14129">
        <ele>284.60000610352</ele>
        <time>2013-10-26T13:31:41Z</time>
      </trkpt>
      <trkpt lat="43.42147" lon="6.14131">
        <ele>284.60000610352</ele>
        <time>2013-10-26T13:31:44Z</time>
      </trkpt>
      <trkpt lat="43.42147" lon="6.14131">
        <ele>284.60000610352</ele>
        <time>2013-10-26T13:32:09Z</time>
      </trkpt>
      <trkpt lat="43.42147" lon="6.14131">
        <ele>284.60000610352</ele>
        <time>2013-10-26T13:32:34Z</time>
      </trkpt>
      <trkpt lat="43.42147" lon="6.14131">
        <ele>284.60000610352</ele>
        <time>2013-10-26T13:32:44Z</time>
      </trkpt>
      <trkpt lat="43.42146" lon="6.14131">
        <ele>284.60000610352</ele>
        <time>2013-10-26T13:32:51Z</time>
      </trkpt>
      <trkpt lat="43.42145" lon="6.14131">
        <ele>284.60000610352</ele>
        <time>2013-10-26T13:32:52Z</time>
      </trkpt>
      <trkpt lat="43.42134" lon="6.14129">
        <ele>284.60000610352</ele>
        <time>2013-10-26T13:32:59Z</time>
      </trkpt>
      <trkpt lat="43.4212" lon="6.14127">
        <ele>284.60000610352</ele>
        <time>2013-10-26T13:33:06Z</time>
      </trkpt>
      <trkpt lat="43.42105" lon="6.14135">
        <ele>284.60000610352</ele>
        <time>2013-10-26T13:33:12Z</time>
      </trkpt>
      <trkpt lat="43.42093" lon="6.14149">
        <ele>284.60000610352</ele>
        <time>2013-10-26T13:33:18Z</time>
      </trkpt>
      <trkpt lat="43.42076" lon="6.14162">
        <ele>284.60000610352</ele>
        <time>2013-10-26T13:33:24Z</time>
      </trkpt>
      <trkpt lat="43.42074" lon="6.14165">
        <ele>284.60000610352</ele>
        <time>2013-10-26T13:33:25Z</time>
      </trkpt>
      <trkpt lat="43.42064" lon="6.14174">
        <ele>285</ele>
        <time>2013-10-26T13:33:29Z</time>
      </trkpt>
      <trkpt lat="43.42059" lon="6.14178">
        <ele>285.79998779297</ele>
        <time>2013-10-26T13:33:31Z</time>
      </trkpt>
      <trkpt lat="43.42054" lon="6.14182">
        <ele>286.60000610352</ele>
        <time>2013-10-26T13:33:33Z</time>
      </trkpt>
      <trkpt lat="43.42043" lon="6.14191">
        <ele>286.60000610352</ele>
        <time>2013-10-26T13:33:38Z</time>
      </trkpt>
      <trkpt lat="43.42033" lon="6.14197">
        <ele>286.60000610352</ele>
        <time>2013-10-26T13:33:43Z</time>
      </trkpt>
      <trkpt lat="43.42003" lon="6.14217">
        <ele>288.79998779297</ele>
        <time>2013-10-26T13:33:57Z</time>
      </trkpt>
      <trkpt lat="43.4199" lon="6.14224">
        <ele>288.79998779297</ele>
        <time>2013-10-26T13:34:03Z</time>
      </trkpt>
      <trkpt lat="43.41973" lon="6.14237">
        <ele>288.79998779297</ele>
        <time>2013-10-26T13:34:12Z</time>
      </trkpt>
      <trkpt lat="43.41951" lon="6.14261">
        <ele>290.39999389648</ele>
        <time>2013-10-26T13:34:24Z</time>
      </trkpt>
      <trkpt lat="43.41948" lon="6.14267">
        <ele>290.79998779297</ele>
        <time>2013-10-26T13:34:26Z</time>
      </trkpt>
      <trkpt lat="43.41945" lon="6.14284">
        <ele>290.79998779297</ele>
        <time>2013-10-26T13:34:31Z</time>
      </trkpt>
      <trkpt lat="43.41941" lon="6.14306">
        <ele>290.79998779297</ele>
        <time>2013-10-26T13:34:38Z</time>
      </trkpt>
      <trkpt lat="43.4194" lon="6.14324">
        <ele>290.79998779297</ele>
        <time>2013-10-26T13:34:44Z</time>
      </trkpt>
      <trkpt lat="43.41937" lon="6.14349">
        <ele>290.79998779297</ele>
        <time>2013-10-26T13:34:52Z</time>
      </trkpt>
      <trkpt lat="43.41936" lon="6.14393">
        <ele>292.79998779297</ele>
        <time>2013-10-26T13:35:05Z</time>
      </trkpt>
      <trkpt lat="43.41932" lon="6.14409">
        <ele>292.79998779297</ele>
        <time>2013-10-26T13:35:10Z</time>
      </trkpt>
      <trkpt lat="43.41922" lon="6.14451">
        <ele>292.79998779297</ele>
        <time>2013-10-26T13:35:22Z</time>
      </trkpt>
      <trkpt lat="43.41916" lon="6.14474">
        <ele>292.79998779297</ele>
        <time>2013-10-26T13:35:28Z</time>
      </trkpt>
      <trkpt lat="43.41901" lon="6.14517">
        <ele>292.79998779297</ele>
        <time>2013-10-26T13:35:42Z</time>
      </trkpt>
      <trkpt lat="43.41892" lon="6.14539">
        <ele>292.79998779297</ele>
        <time>2013-10-26T13:35:50Z</time>
      </trkpt>
      <trkpt lat="43.41888" lon="6.14559">
        <ele>292.79998779297</ele>
        <time>2013-10-26T13:35:56Z</time>
      </trkpt>
      <trkpt lat="43.41887" lon="6.14565">
        <ele>293.20001220703</ele>
        <time>2013-10-26T13:35:58Z</time>
      </trkpt>
      <trkpt lat="43.41887" lon="6.14575">
        <ele>294.39999389648</ele>
        <time>2013-10-26T13:36:01Z</time>
      </trkpt>
      <trkpt lat="43.41886" lon="6.14591">
        <ele>294.79998779297</ele>
        <time>2013-10-26T13:36:07Z</time>
      </trkpt>
      <trkpt lat="43.41887" lon="6.14594">
        <ele>294.79998779297</ele>
        <time>2013-10-26T13:36:08Z</time>
      </trkpt>
      <trkpt lat="43.41894" lon="6.14611">
        <ele>294.79998779297</ele>
        <time>2013-10-26T13:36:13Z</time>
      </trkpt>
      <trkpt lat="43.41899" lon="6.14623">
        <ele>294.79998779297</ele>
        <time>2013-10-26T13:36:18Z</time>
      </trkpt>
      <trkpt lat="43.41901" lon="6.14631">
        <ele>294.79998779297</ele>
        <time>2013-10-26T13:36:22Z</time>
      </trkpt>
      <trkpt lat="43.41902" lon="6.14633">
        <ele>294.79998779297</ele>
        <time>2013-10-26T13:36:23Z</time>
      </trkpt>
      <trkpt lat="43.41904" lon="6.14643">
        <ele>294.79998779297</ele>
        <time>2013-10-26T13:36:28Z</time>
      </trkpt>
      <trkpt lat="43.41905" lon="6.14649">
        <ele>294.79998779297</ele>
        <time>2013-10-26T13:36:31Z</time>
      </trkpt>
      <trkpt lat="43.41906" lon="6.1466">
        <ele>294.79998779297</ele>
        <time>2013-10-26T13:36:36Z</time>
      </trkpt>
      <trkpt lat="43.41906" lon="6.14697">
        <ele>296.79998779297</ele>
        <time>2013-10-26T13:36:51Z</time>
      </trkpt>
      <trkpt lat="43.41908" lon="6.14705">
        <ele>296.79998779297</ele>
        <time>2013-10-26T13:36:54Z</time>
      </trkpt>
      <trkpt lat="43.41907" lon="6.14708">
        <ele>296.79998779297</ele>
        <time>2013-10-26T13:36:55Z</time>
      </trkpt>
      <trkpt lat="43.41906" lon="6.14722">
        <ele>296.79998779297</ele>
        <time>2013-10-26T13:37:00Z</time>
      </trkpt>
      <trkpt lat="43.41906" lon="6.14727">
        <ele>296.79998779297</ele>
        <time>2013-10-26T13:37:02Z</time>
      </trkpt>
      <trkpt lat="43.41906" lon="6.14735">
        <ele>296.79998779297</ele>
        <time>2013-10-26T13:37:06Z</time>
      </trkpt>
      <trkpt lat="43.41907" lon="6.14738">
        <ele>296.79998779297</ele>
        <time>2013-10-26T13:37:08Z</time>
      </trkpt>
      <trkpt lat="43.41907" lon="6.14738">
        <ele>296.79998779297</ele>
        <time>2013-10-26T13:37:13Z</time>
      </trkpt>
      <trkpt lat="43.41907" lon="6.14738">
        <ele>296.79998779297</ele>
        <time>2013-10-26T13:37:37Z</time>
      </trkpt>
      <trkpt lat="43.41907" lon="6.14739">
        <ele>296.79998779297</ele>
        <time>2013-10-26T13:37:58Z</time>
      </trkpt>
      <trkpt lat="43.41907" lon="6.14739">
        <ele>296.79998779297</ele>
        <time>2013-10-26T13:38:14Z</time>
      </trkpt>
      <trkpt lat="43.41904" lon="6.14744">
        <ele>296.79998779297</ele>
        <time>2013-10-26T13:38:18Z</time>
      </trkpt>
      <trkpt lat="43.41903" lon="6.14748">
        <ele>296.79998779297</ele>
        <time>2013-10-26T13:38:20Z</time>
      </trkpt>
      <trkpt lat="43.41901" lon="6.14762">
        <ele>297.20001220703</ele>
        <time>2013-10-26T13:38:25Z</time>
      </trkpt>
      <trkpt lat="43.41902" lon="6.14766">
        <ele>298</ele>
        <time>2013-10-26T13:38:27Z</time>
      </trkpt>
      <trkpt lat="43.41905" lon="6.14771">
        <ele>298.79998779297</ele>
        <time>2013-10-26T13:38:29Z</time>
      </trkpt>
      <trkpt lat="43.41919" lon="6.14787">
        <ele>298.79998779297</ele>
        <time>2013-10-26T13:38:36Z</time>
      </trkpt>
      <trkpt lat="43.41925" lon="6.14795">
        <ele>298.79998779297</ele>
        <time>2013-10-26T13:38:39Z</time>
      </trkpt>
      <trkpt lat="43.41928" lon="6.14801">
        <ele>298.79998779297</ele>
        <time>2013-10-26T13:38:41Z</time>
      </trkpt>
      <trkpt lat="43.4194" lon="6.14821">
        <ele>298.79998779297</ele>
        <time>2013-10-26T13:38:47Z</time>
      </trkpt>
      <trkpt lat="43.41951" lon="6.14837">
        <ele>298.79998779297</ele>
        <time>2013-10-26T13:38:52Z</time>
      </trkpt>
      <trkpt lat="43.41953" lon="6.1484">
        <ele>298.79998779297</ele>
        <time>2013-10-26T13:38:53Z</time>
      </trkpt>
      <trkpt lat="43.41965" lon="6.1486">
        <ele>298.79998779297</ele>
        <time>2013-10-26T13:38:59Z</time>
      </trkpt>
      <trkpt lat="43.41967" lon="6.14867">
        <ele>298.79998779297</ele>
        <time>2013-10-26T13:39:02Z</time>
      </trkpt>
      <trkpt lat="43.41971" lon="6.14868">
        <ele>298.79998779297</ele>
        <time>2013-10-26T13:39:04Z</time>
      </trkpt>
      <trkpt lat="43.41974" lon="6.14871">
        <ele>298.79998779297</ele>
        <time>2013-10-26T13:39:06Z</time>
      </trkpt>
      <trkpt lat="43.41981" lon="6.14877">
        <ele>298.79998779297</ele>
        <time>2013-10-26T13:39:09Z</time>
      </trkpt>
      <trkpt lat="43.41991" lon="6.14893">
        <ele>298.79998779297</ele>
        <time>2013-10-26T13:39:14Z</time>
      </trkpt>
      <trkpt lat="43.42006" lon="6.14907">
        <ele>298.79998779297</ele>
        <time>2013-10-26T13:39:20Z</time>
      </trkpt>
      <trkpt lat="43.42013" lon="6.14918">
        <ele>298.79998779297</ele>
        <time>2013-10-26T13:39:24Z</time>
      </trkpt>
      <trkpt lat="43.42019" lon="6.1496">
        <ele>298.79998779297</ele>
        <time>2013-10-26T13:39:35Z</time>
      </trkpt>
      <trkpt lat="43.42024" lon="6.14977">
        <ele>298.79998779297</ele>
        <time>2013-10-26T13:39:40Z</time>
      </trkpt>
      <trkpt lat="43.42028" lon="6.14999">
        <ele>298.79998779297</ele>
        <time>2013-10-26T13:39:48Z</time>
      </trkpt>
      <trkpt lat="43.42031" lon="6.15021">
        <ele>298.79998779297</ele>
        <time>2013-10-26T13:39:54Z</time>
      </trkpt>
      <trkpt lat="43.42033" lon="6.15051">
        <ele>298.79998779297</ele>
        <time>2013-10-26T13:40:00Z</time>
      </trkpt>
      <trkpt lat="43.42033" lon="6.15068">
        <ele>298.79998779297</ele>
        <time>2013-10-26T13:40:05Z</time>
      </trkpt>
      <trkpt lat="43.42037" lon="6.15076">
        <ele>298.79998779297</ele>
        <time>2013-10-26T13:40:10Z</time>
      </trkpt>
      <trkpt lat="43.42042" lon="6.15085">
        <ele>298.79998779297</ele>
        <time>2013-10-26T13:40:14Z</time>
      </trkpt>
      <trkpt lat="43.42051" lon="6.15094">
        <ele>298.79998779297</ele>
        <time>2013-10-26T13:40:18Z</time>
      </trkpt>
      <trkpt lat="43.42063" lon="6.151">
        <ele>298.79998779297</ele>
        <time>2013-10-26T13:40:23Z</time>
      </trkpt>
      <trkpt lat="43.42075" lon="6.15105">
        <ele>299.20001220703</ele>
        <time>2013-10-26T13:40:28Z</time>
      </trkpt>
      <trkpt lat="43.4208" lon="6.15107">
        <ele>300.20001220703</ele>
        <time>2013-10-26T13:40:30Z</time>
      </trkpt>
      <trkpt lat="43.42087" lon="6.15113">
        <ele>301</ele>
        <time>2013-10-26T13:40:33Z</time>
      </trkpt>
      <trkpt lat="43.42094" lon="6.15127">
        <ele>301</ele>
        <time>2013-10-26T13:40:38Z</time>
      </trkpt>
      <trkpt lat="43.42097" lon="6.15148">
        <ele>301</ele>
        <time>2013-10-26T13:40:44Z</time>
      </trkpt>
      <trkpt lat="43.42102" lon="6.15171">
        <ele>301</ele>
        <time>2013-10-26T13:40:50Z</time>
      </trkpt>
      <trkpt lat="43.42105" lon="6.15198">
        <ele>301</ele>
        <time>2013-10-26T13:40:56Z</time>
      </trkpt>
      <trkpt lat="43.42111" lon="6.15237">
        <ele>301</ele>
        <time>2013-10-26T13:41:05Z</time>
      </trkpt>
      <trkpt lat="43.42115" lon="6.15257">
        <ele>301</ele>
        <time>2013-10-26T13:41:10Z</time>
      </trkpt>
      <trkpt lat="43.4212" lon="6.15285">
        <ele>301</ele>
        <time>2013-10-26T13:41:17Z</time>
      </trkpt>
      <trkpt lat="43.42123" lon="6.1531">
        <ele>301</ele>
        <time>2013-10-26T13:41:24Z</time>
      </trkpt>
      <trkpt lat="43.42125" lon="6.15329">
        <ele>301</ele>
        <time>2013-10-26T13:41:30Z</time>
      </trkpt>
      <trkpt lat="43.42126" lon="6.15331">
        <ele>301</ele>
        <time>2013-10-26T13:41:31Z</time>
      </trkpt>
      <trkpt lat="43.42121" lon="6.15359">
        <ele>303</ele>
        <time>2013-10-26T13:41:39Z</time>
      </trkpt>
      <trkpt lat="43.42115" lon="6.15377">
        <ele>303</ele>
        <time>2013-10-26T13:41:44Z</time>
      </trkpt>
      <trkpt lat="43.42109" lon="6.15395">
        <ele>303</ele>
        <time>2013-10-26T13:41:50Z</time>
      </trkpt>
      <trkpt lat="43.42107" lon="6.15417">
        <ele>303</ele>
        <time>2013-10-26T13:41:56Z</time>
      </trkpt>
      <trkpt lat="43.42109" lon="6.15445">
        <ele>303</ele>
        <time>2013-10-26T13:42:01Z</time>
      </trkpt>
      <trkpt lat="43.4211" lon="6.15456">
        <ele>303.39999389648</ele>
        <time>2013-10-26T13:42:03Z</time>
      </trkpt>
      <trkpt lat="43.42112" lon="6.15462">
        <ele>303.79998779297</ele>
        <time>2013-10-26T13:42:04Z</time>
      </trkpt>
      <trkpt lat="43.42118" lon="6.15468">
        <ele>304.60000610352</ele>
        <time>2013-10-26T13:42:06Z</time>
      </trkpt>
      <trkpt lat="43.42123" lon="6.15472">
        <ele>305</ele>
        <time>2013-10-26T13:42:08Z</time>
      </trkpt>
      <trkpt lat="43.42128" lon="6.15479">
        <ele>305</ele>
        <time>2013-10-26T13:42:10Z</time>
      </trkpt>
      <trkpt lat="43.42133" lon="6.155">
        <ele>305</ele>
        <time>2013-10-26T13:42:15Z</time>
      </trkpt>
      <trkpt lat="43.42135" lon="6.15507">
        <ele>305</ele>
        <time>2013-10-26T13:42:17Z</time>
      </trkpt>
      <trkpt lat="43.4214" lon="6.15515">
        <ele>305</ele>
        <time>2013-10-26T13:42:20Z</time>
      </trkpt>
      <trkpt lat="43.42152" lon="6.1553">
        <ele>305</ele>
        <time>2013-10-26T13:42:27Z</time>
      </trkpt>
      <trkpt lat="43.42166" lon="6.15536">
        <ele>305</ele>
        <time>2013-10-26T13:42:33Z</time>
      </trkpt>
      <trkpt lat="43.42181" lon="6.15534">
        <ele>305</ele>
        <time>2013-10-26T13:42:39Z</time>
      </trkpt>
      <trkpt lat="43.42197" lon="6.15537">
        <ele>305</ele>
        <time>2013-10-26T13:42:46Z</time>
      </trkpt>
      <trkpt lat="43.42215" lon="6.15539">
        <ele>305</ele>
        <time>2013-10-26T13:42:52Z</time>
      </trkpt>
      <trkpt lat="43.42236" lon="6.15543">
        <ele>305</ele>
        <time>2013-10-26T13:42:59Z</time>
      </trkpt>
      <trkpt lat="43.42247" lon="6.15548">
        <ele>305.39999389648</ele>
        <time>2013-10-26T13:43:03Z</time>
      </trkpt>
      <trkpt lat="43.42249" lon="6.15549">
        <ele>306</ele>
        <time>2013-10-26T13:43:04Z</time>
      </trkpt>
      <trkpt lat="43.42252" lon="6.15551">
        <ele>306.39999389648</ele>
        <time>2013-10-26T13:43:05Z</time>
      </trkpt>
      <trkpt lat="43.42255" lon="6.15555">
        <ele>307.20001220703</ele>
        <time>2013-10-26T13:43:07Z</time>
      </trkpt>
      <trkpt lat="43.42259" lon="6.1556">
        <ele>307.20001220703</ele>
        <time>2013-10-26T13:43:09Z</time>
      </trkpt>
      <trkpt lat="43.42266" lon="6.15564">
        <ele>307.20001220703</ele>
        <time>2013-10-26T13:43:12Z</time>
      </trkpt>
      <trkpt lat="43.42273" lon="6.15564">
        <ele>307.20001220703</ele>
        <time>2013-10-26T13:43:14Z</time>
      </trkpt>
      <trkpt lat="43.42277" lon="6.15564">
        <ele>307.20001220703</ele>
        <time>2013-10-26T13:43:18Z</time>
      </trkpt>
      <trkpt lat="43.42277" lon="6.15564">
        <ele>307.20001220703</ele>
        <time>2013-10-26T13:43:23Z</time>
      </trkpt>
      <trkpt lat="43.42277" lon="6.15564">
        <ele>307.20001220703</ele>
        <time>2013-10-26T13:43:28Z</time>
      </trkpt>
      <trkpt lat="43.42277" lon="6.15566">
        <ele>307.20001220703</ele>
        <time>2013-10-26T13:43:32Z</time>
      </trkpt>
      <trkpt lat="43.42276" lon="6.15568">
        <ele>307.20001220703</ele>
        <time>2013-10-26T13:43:37Z</time>
      </trkpt>
      <trkpt lat="43.42276" lon="6.15568">
        <ele>307.20001220703</ele>
        <time>2013-10-26T13:43:40Z</time>
      </trkpt>
      <trkpt lat="43.42275" lon="6.15569">
        <ele>307.20001220703</ele>
        <time>2013-10-26T13:43:43Z</time>
      </trkpt>
      <trkpt lat="43.42275" lon="6.15569">
        <ele>307.20001220703</ele>
        <time>2013-10-26T13:43:57Z</time>
      </trkpt>
      <trkpt lat="43.42275" lon="6.15569">
        <ele>307.20001220703</ele>
        <time>2013-10-26T13:44:02Z</time>
      </trkpt>
      <trkpt lat="43.42274" lon="6.15572">
        <ele>307.20001220703</ele>
        <time>2013-10-26T13:44:08Z</time>
      </trkpt>
      <trkpt lat="43.42273" lon="6.1558">
        <ele>307.20001220703</ele>
        <time>2013-10-26T13:44:14Z</time>
      </trkpt>
      <trkpt lat="43.42274" lon="6.15591">
        <ele>307.60000610352</ele>
        <time>2013-10-26T13:44:19Z</time>
      </trkpt>
      <trkpt lat="43.42274" lon="6.15597">
        <ele>308.39999389648</ele>
        <time>2013-10-26T13:44:21Z</time>
      </trkpt>
      <trkpt lat="43.42275" lon="6.15601">
        <ele>309.20001220703</ele>
        <time>2013-10-26T13:44:24Z</time>
      </trkpt>
      <trkpt lat="43.42275" lon="6.15605">
        <ele>309.20001220703</ele>
        <time>2013-10-26T13:44:26Z</time>
      </trkpt>
      <trkpt lat="43.42275" lon="6.15609">
        <ele>309.20001220703</ele>
        <time>2013-10-26T13:44:28Z</time>
      </trkpt>
      <trkpt lat="43.42273" lon="6.15614">
        <ele>309.20001220703</ele>
        <time>2013-10-26T13:44:30Z</time>
      </trkpt>
      <trkpt lat="43.42268" lon="6.15623">
        <ele>309.60000610352</ele>
        <time>2013-10-26T13:44:34Z</time>
      </trkpt>
      <trkpt lat="43.42266" lon="6.15625">
        <ele>310</ele>
        <time>2013-10-26T13:44:35Z</time>
      </trkpt>
      <trkpt lat="43.42265" lon="6.15627">
        <ele>310.39999389648</ele>
        <time>2013-10-26T13:44:36Z</time>
      </trkpt>
      <trkpt lat="43.42261" lon="6.15631">
        <ele>311.20001220703</ele>
        <time>2013-10-26T13:44:38Z</time>
      </trkpt>
      <trkpt lat="43.42254" lon="6.15638">
        <ele>311.20001220703</ele>
        <time>2013-10-26T13:44:42Z</time>
      </trkpt>
      <trkpt lat="43.4225" lon="6.15647">
        <ele>311.20001220703</ele>
        <time>2013-10-26T13:44:46Z</time>
      </trkpt>
      <trkpt lat="43.42249" lon="6.15652">
        <ele>311.20001220703</ele>
        <time>2013-10-26T13:44:48Z</time>
      </trkpt>
      <trkpt lat="43.42245" lon="6.15666">
        <ele>311.20001220703</ele>
        <time>2013-10-26T13:44:54Z</time>
      </trkpt>
      <trkpt lat="43.42239" lon="6.15676">
        <ele>311.20001220703</ele>
        <time>2013-10-26T13:44:58Z</time>
      </trkpt>
      <trkpt lat="43.42236" lon="6.15682">
        <ele>311.20001220703</ele>
        <time>2013-10-26T13:45:00Z</time>
      </trkpt>
      <trkpt lat="43.42229" lon="6.15694">
        <ele>311.20001220703</ele>
        <time>2013-10-26T13:45:05Z</time>
      </trkpt>
      <trkpt lat="43.4223" lon="6.15705">
        <ele>311.60000610352</ele>
        <time>2013-10-26T13:45:09Z</time>
      </trkpt>
      <trkpt lat="43.42231" lon="6.15707">
        <ele>312</ele>
        <time>2013-10-26T13:45:10Z</time>
      </trkpt>
      <trkpt lat="43.42232" lon="6.15708">
        <ele>312.39999389648</ele>
        <time>2013-10-26T13:45:11Z</time>
      </trkpt>
      <trkpt lat="43.42232" lon="6.15709">
        <ele>312.79998779297</ele>
        <time>2013-10-26T13:45:12Z</time>
      </trkpt>
      <trkpt lat="43.42232" lon="6.15709">
        <ele>313.20001220703</ele>
        <time>2013-10-26T13:45:18Z</time>
      </trkpt>
      <trkpt lat="43.42232" lon="6.15713">
        <ele>313.20001220703</ele>
        <time>2013-10-26T13:45:24Z</time>
      </trkpt>
      <trkpt lat="43.42231" lon="6.15719">
        <ele>313.20001220703</ele>
        <time>2013-10-26T13:45:27Z</time>
      </trkpt>
      <trkpt lat="43.42229" lon="6.15724">
        <ele>313.20001220703</ele>
        <time>2013-10-26T13:45:30Z</time>
      </trkpt>
      <trkpt lat="43.42224" lon="6.15733">
        <ele>313.20001220703</ele>
        <time>2013-10-26T13:45:35Z</time>
      </trkpt>
      <trkpt lat="43.42216" lon="6.15742">
        <ele>313.20001220703</ele>
        <time>2013-10-26T13:45:43Z</time>
      </trkpt>
      <trkpt lat="43.42216" lon="6.15751">
        <ele>313.20001220703</ele>
        <time>2013-10-26T13:45:47Z</time>
      </trkpt>
      <trkpt lat="43.4222" lon="6.15763">
        <ele>313.20001220703</ele>
        <time>2013-10-26T13:45:53Z</time>
      </trkpt>
      <trkpt lat="43.4222" lon="6.15774">
        <ele>313.20001220703</ele>
        <time>2013-10-26T13:45:57Z</time>
      </trkpt>
      <trkpt lat="43.42219" lon="6.15779">
        <ele>313.20001220703</ele>
        <time>2013-10-26T13:45:59Z</time>
      </trkpt>
      <trkpt lat="43.42217" lon="6.1578">
        <ele>313.20001220703</ele>
        <time>2013-10-26T13:46:00Z</time>
      </trkpt>
      <trkpt lat="43.42205" lon="6.15786">
        <ele>313.20001220703</ele>
        <time>2013-10-26T13:46:06Z</time>
      </trkpt>
      <trkpt lat="43.42202" lon="6.15792">
        <ele>313.20001220703</ele>
        <time>2013-10-26T13:46:09Z</time>
      </trkpt>
      <trkpt lat="43.42202" lon="6.15797">
        <ele>313.20001220703</ele>
        <time>2013-10-26T13:46:12Z</time>
      </trkpt>
      <trkpt lat="43.42199" lon="6.15816">
        <ele>313.20001220703</ele>
        <time>2013-10-26T13:46:18Z</time>
      </trkpt>
      <trkpt lat="43.42195" lon="6.15836">
        <ele>313.20001220703</ele>
        <time>2013-10-26T13:46:25Z</time>
      </trkpt>
      <trkpt lat="43.42191" lon="6.1586">
        <ele>313.20001220703</ele>
        <time>2013-10-26T13:46:32Z</time>
      </trkpt>
      <trkpt lat="43.42186" lon="6.15884">
        <ele>313.20001220703</ele>
        <time>2013-10-26T13:46:39Z</time>
      </trkpt>
      <trkpt lat="43.42181" lon="6.15909">
        <ele>313.20001220703</ele>
        <time>2013-10-26T13:46:46Z</time>
      </trkpt>
      <trkpt lat="43.42175" lon="6.15935">
        <ele>313.20001220703</ele>
        <time>2013-10-26T13:46:54Z</time>
      </trkpt>
      <trkpt lat="43.42171" lon="6.15955">
        <ele>313.20001220703</ele>
        <time>2013-10-26T13:47:00Z</time>
      </trkpt>
      <trkpt lat="43.42168" lon="6.15973">
        <ele>314.60000610352</ele>
        <time>2013-10-26T13:47:05Z</time>
      </trkpt>
      <trkpt lat="43.42163" lon="6.15999">
        <ele>315.39999389648</ele>
        <time>2013-10-26T13:47:11Z</time>
      </trkpt>
      <trkpt lat="43.42162" lon="6.16002">
        <ele>315.39999389648</ele>
        <time>2013-10-26T13:47:12Z</time>
      </trkpt>
      <trkpt lat="43.42157" lon="6.16029">
        <ele>315.39999389648</ele>
        <time>2013-10-26T13:47:19Z</time>
      </trkpt>
      <trkpt lat="43.42154" lon="6.1605">
        <ele>315.39999389648</ele>
        <time>2013-10-26T13:47:25Z</time>
      </trkpt>
      <trkpt lat="43.42152" lon="6.1608">
        <ele>315.39999389648</ele>
        <time>2013-10-26T13:47:32Z</time>
      </trkpt>
      <trkpt lat="43.4215" lon="6.16103">
        <ele>315.39999389648</ele>
        <time>2013-10-26T13:47:37Z</time>
      </trkpt>
      <trkpt lat="43.4215" lon="6.16111">
        <ele>315.39999389648</ele>
        <time>2013-10-26T13:47:39Z</time>
      </trkpt>
      <trkpt lat="43.42148" lon="6.16137">
        <ele>315.39999389648</ele>
        <time>2013-10-26T13:47:46Z</time>
      </trkpt>
      <trkpt lat="43.42143" lon="6.16192">
        <ele>315.39999389648</ele>
        <time>2013-10-26T13:47:59Z</time>
      </trkpt>
      <trkpt lat="43.42142" lon="6.16219">
        <ele>315.39999389648</ele>
        <time>2013-10-26T13:48:06Z</time>
      </trkpt>
      <trkpt lat="43.42141" lon="6.16255">
        <ele>315.39999389648</ele>
        <time>2013-10-26T13:48:15Z</time>
      </trkpt>
      <trkpt lat="43.42142" lon="6.16294">
        <ele>315.39999389648</ele>
        <time>2013-10-26T13:48:22Z</time>
      </trkpt>
      <trkpt lat="43.42144" lon="6.16311">
        <ele>315.39999389648</ele>
        <time>2013-10-26T13:48:25Z</time>
      </trkpt>
      <trkpt lat="43.42146" lon="6.16329">
        <ele>315.39999389648</ele>
        <time>2013-10-26T13:48:28Z</time>
      </trkpt>
      <trkpt lat="43.42148" lon="6.16341">
        <ele>315.39999389648</ele>
        <time>2013-10-26T13:48:30Z</time>
      </trkpt>
      <trkpt lat="43.4215" lon="6.16352">
        <ele>314.60000610352</ele>
        <time>2013-10-26T13:48:32Z</time>
      </trkpt>
      <trkpt lat="43.42159" lon="6.16381">
        <ele>312.39999389648</ele>
        <time>2013-10-26T13:48:36Z</time>
      </trkpt>
      <trkpt lat="43.42162" lon="6.16403">
        <ele>311.20001220703</ele>
        <time>2013-10-26T13:48:39Z</time>
      </trkpt>
      <trkpt lat="43.42162" lon="6.1641">
        <ele>311.20001220703</ele>
        <time>2013-10-26T13:48:40Z</time>
      </trkpt>
      <trkpt lat="43.4216" lon="6.16456">
        <ele>311.20001220703</ele>
        <time>2013-10-26T13:48:46Z</time>
      </trkpt>
      <trkpt lat="43.4216" lon="6.16475">
        <ele>310.20001220703</ele>
        <time>2013-10-26T13:48:48Z</time>
      </trkpt>
      <trkpt lat="43.42159" lon="6.16492">
        <ele>309.39999389648</ele>
        <time>2013-10-26T13:48:50Z</time>
      </trkpt>
      <trkpt lat="43.42158" lon="6.16501">
        <ele>308.79998779297</ele>
        <time>2013-10-26T13:48:51Z</time>
      </trkpt>
      <trkpt lat="43.42157" lon="6.16518">
        <ele>308.79998779297</ele>
        <time>2013-10-26T13:48:53Z</time>
      </trkpt>
      <trkpt lat="43.42156" lon="6.16542">
        <ele>308.79998779297</ele>
        <time>2013-10-26T13:48:56Z</time>
      </trkpt>
      <trkpt lat="43.42155" lon="6.16555">
        <ele>309.39999389648</ele>
        <time>2013-10-26T13:48:58Z</time>
      </trkpt>
      <trkpt lat="43.42154" lon="6.16569">
        <ele>310.39999389648</ele>
        <time>2013-10-26T13:49:00Z</time>
      </trkpt>
      <trkpt lat="43.42154" lon="6.16581">
        <ele>311.39999389648</ele>
        <time>2013-10-26T13:49:02Z</time>
      </trkpt>
      <trkpt lat="43.42154" lon="6.16588">
        <ele>311.39999389648</ele>
        <time>2013-10-26T13:49:03Z</time>
      </trkpt>
      <trkpt lat="43.42154" lon="6.16601">
        <ele>311.39999389648</ele>
        <time>2013-10-26T13:49:05Z</time>
      </trkpt>
      <trkpt lat="43.42153" lon="6.16646">
        <ele>311.39999389648</ele>
        <time>2013-10-26T13:49:11Z</time>
      </trkpt>
      <trkpt lat="43.42146" lon="6.16709">
        <ele>311.39999389648</ele>
        <time>2013-10-26T13:49:19Z</time>
      </trkpt>
      <trkpt lat="43.42144" lon="6.16735">
        <ele>311.39999389648</ele>
        <time>2013-10-26T13:49:23Z</time>
      </trkpt>
      <trkpt lat="43.42145" lon="6.1674">
        <ele>311.39999389648</ele>
        <time>2013-10-26T13:49:24Z</time>
      </trkpt>
      <trkpt lat="43.42145" lon="6.1675">
        <ele>311.79998779297</ele>
        <time>2013-10-26T13:49:26Z</time>
      </trkpt>
      <trkpt lat="43.42144" lon="6.16754">
        <ele>312.39999389648</ele>
        <time>2013-10-26T13:49:27Z</time>
      </trkpt>
      <trkpt lat="43.42145" lon="6.16764">
        <ele>313.79998779297</ele>
        <time>2013-10-26T13:49:30Z</time>
      </trkpt>
      <trkpt lat="43.42144" lon="6.16775">
        <ele>314.20001220703</ele>
        <time>2013-10-26T13:49:34Z</time>
      </trkpt>
      <trkpt lat="43.42144" lon="6.16779">
        <ele>315</ele>
        <time>2013-10-26T13:49:36Z</time>
      </trkpt>
      <trkpt lat="43.42144" lon="6.16781">
        <ele>315.39999389648</ele>
        <time>2013-10-26T13:49:37Z</time>
      </trkpt>
      <trkpt lat="43.42144" lon="6.16783">
        <ele>315.79998779297</ele>
        <time>2013-10-26T13:49:38Z</time>
      </trkpt>
      <trkpt lat="43.42144" lon="6.1679">
        <ele>315.79998779297</ele>
        <time>2013-10-26T13:49:41Z</time>
      </trkpt>
      <trkpt lat="43.42143" lon="6.16802">
        <ele>315.79998779297</ele>
        <time>2013-10-26T13:49:47Z</time>
      </trkpt>
      <trkpt lat="43.42143" lon="6.16812">
        <ele>318</ele>
        <time>2013-10-26T13:49:52Z</time>
      </trkpt>
      <trkpt lat="43.42143" lon="6.16826">
        <ele>318</ele>
        <time>2013-10-26T13:49:59Z</time>
      </trkpt>
      <trkpt lat="43.42143" lon="6.16839">
        <ele>320</ele>
        <time>2013-10-26T13:50:06Z</time>
      </trkpt>
      <trkpt lat="43.42142" lon="6.16841">
        <ele>320</ele>
        <time>2013-10-26T13:50:07Z</time>
      </trkpt>
      <trkpt lat="43.42141" lon="6.16854">
        <ele>320</ele>
        <time>2013-10-26T13:50:14Z</time>
      </trkpt>
      <trkpt lat="43.4214" lon="6.16863">
        <ele>320.39999389648</ele>
        <time>2013-10-26T13:50:18Z</time>
      </trkpt>
      <trkpt lat="43.42138" lon="6.16873">
        <ele>322</ele>
        <time>2013-10-26T13:50:23Z</time>
      </trkpt>
      <trkpt lat="43.42137" lon="6.16889">
        <ele>322</ele>
        <time>2013-10-26T13:50:29Z</time>
      </trkpt>
      <trkpt lat="43.42134" lon="6.16905">
        <ele>322</ele>
        <time>2013-10-26T13:50:36Z</time>
      </trkpt>
      <trkpt lat="43.42131" lon="6.16918">
        <ele>322.39999389648</ele>
        <time>2013-10-26T13:50:41Z</time>
      </trkpt>
      <trkpt lat="43.42128" lon="6.16941">
        <ele>324.20001220703</ele>
        <time>2013-10-26T13:50:48Z</time>
      </trkpt>
      <trkpt lat="43.42123" lon="6.16976">
        <ele>324.20001220703</ele>
        <time>2013-10-26T13:50:56Z</time>
      </trkpt>
      <trkpt lat="43.42117" lon="6.17017">
        <ele>324.20001220703</ele>
        <time>2013-10-26T13:51:04Z</time>
      </trkpt>
      <trkpt lat="43.42112" lon="6.1705">
        <ele>324.20001220703</ele>
        <time>2013-10-26T13:51:11Z</time>
      </trkpt>
      <trkpt lat="43.42107" lon="6.17089">
        <ele>324.20001220703</ele>
        <time>2013-10-26T13:51:19Z</time>
      </trkpt>
      <trkpt lat="43.421" lon="6.1713">
        <ele>324.20001220703</ele>
        <time>2013-10-26T13:51:26Z</time>
      </trkpt>
      <trkpt lat="43.42093" lon="6.17177">
        <ele>324.20001220703</ele>
        <time>2013-10-26T13:51:33Z</time>
      </trkpt>
      <trkpt lat="43.42088" lon="6.17204">
        <ele>324.20001220703</ele>
        <time>2013-10-26T13:51:37Z</time>
      </trkpt>
      <trkpt lat="43.42086" lon="6.17223">
        <ele>324.20001220703</ele>
        <time>2013-10-26T13:51:40Z</time>
      </trkpt>
      <trkpt lat="43.42084" lon="6.17234">
        <ele>324.20001220703</ele>
        <time>2013-10-26T13:51:42Z</time>
      </trkpt>
      <trkpt lat="43.42083" lon="6.17254">
        <ele>324.20001220703</ele>
        <time>2013-10-26T13:51:47Z</time>
      </trkpt>
      <trkpt lat="43.42081" lon="6.17267">
        <ele>324.20001220703</ele>
        <time>2013-10-26T13:51:50Z</time>
      </trkpt>
      <trkpt lat="43.4208" lon="6.17283">
        <ele>324.20001220703</ele>
        <time>2013-10-26T13:51:54Z</time>
      </trkpt>
      <trkpt lat="43.42077" lon="6.17314">
        <ele>324.20001220703</ele>
        <time>2013-10-26T13:52:01Z</time>
      </trkpt>
      <trkpt lat="43.42076" lon="6.17326">
        <ele>324.20001220703</ele>
        <time>2013-10-26T13:52:04Z</time>
      </trkpt>
      <trkpt lat="43.42074" lon="6.17338">
        <ele>324.20001220703</ele>
        <time>2013-10-26T13:52:07Z</time>
      </trkpt>
      <trkpt lat="43.4207" lon="6.17359">
        <ele>324.20001220703</ele>
        <time>2013-10-26T13:52:13Z</time>
      </trkpt>
      <trkpt lat="43.42069" lon="6.17365">
        <ele>324.20001220703</ele>
        <time>2013-10-26T13:52:15Z</time>
      </trkpt>
      <trkpt lat="43.42065" lon="6.1738">
        <ele>324.20001220703</ele>
        <time>2013-10-26T13:52:20Z</time>
      </trkpt>
      <trkpt lat="43.42064" lon="6.17384">
        <ele>324.20001220703</ele>
        <time>2013-10-26T13:52:21Z</time>
      </trkpt>
      <trkpt lat="43.42043" lon="6.17447">
        <ele>322</ele>
        <time>2013-10-26T13:52:36Z</time>
      </trkpt>
      <trkpt lat="43.42038" lon="6.17466">
        <ele>321.20001220703</ele>
        <time>2013-10-26T13:52:40Z</time>
      </trkpt>
      <trkpt lat="43.42036" lon="6.17471">
        <ele>320.79998779297</ele>
        <time>2013-10-26T13:52:41Z</time>
      </trkpt>
      <trkpt lat="43.42032" lon="6.17482">
        <ele>320</ele>
        <time>2013-10-26T13:52:43Z</time>
      </trkpt>
      <trkpt lat="43.42027" lon="6.17497">
        <ele>319.39999389648</ele>
        <time>2013-10-26T13:52:46Z</time>
      </trkpt>
      <trkpt lat="43.42024" lon="6.17508">
        <ele>318.60000610352</ele>
        <time>2013-10-26T13:52:48Z</time>
      </trkpt>
      <trkpt lat="43.42023" lon="6.17513">
        <ele>318.20001220703</ele>
        <time>2013-10-26T13:52:49Z</time>
      </trkpt>
      <trkpt lat="43.42022" lon="6.17518">
        <ele>317.60000610352</ele>
        <time>2013-10-26T13:52:50Z</time>
      </trkpt>
      <trkpt lat="43.42022" lon="6.17525">
        <ele>317.60000610352</ele>
        <time>2013-10-26T13:52:52Z</time>
      </trkpt>
      <trkpt lat="43.42023" lon="6.17528">
        <ele>317.60000610352</ele>
        <time>2013-10-26T13:52:53Z</time>
      </trkpt>
      <trkpt lat="43.42022" lon="6.17539">
        <ele>317.20001220703</ele>
        <time>2013-10-26T13:52:57Z</time>
      </trkpt>
      <trkpt lat="43.42021" lon="6.17541">
        <ele>316.79998779297</ele>
        <time>2013-10-26T13:52:58Z</time>
      </trkpt>
      <trkpt lat="43.42019" lon="6.17542">
        <ele>316.39999389648</ele>
        <time>2013-10-26T13:52:59Z</time>
      </trkpt>
      <trkpt lat="43.42019" lon="6.17543">
        <ele>316</ele>
        <time>2013-10-26T13:53:00Z</time>
      </trkpt>
      <trkpt lat="43.42019" lon="6.17543">
        <ele>315.39999389648</ele>
        <time>2013-10-26T13:53:01Z</time>
      </trkpt>
      <trkpt lat="43.42019" lon="6.17543">
        <ele>315.39999389648</ele>
        <time>2013-10-26T13:53:02Z</time>
      </trkpt>
      <trkpt lat="43.42019" lon="6.17543">
        <ele>315.39999389648</ele>
        <time>2013-10-26T13:53:11Z</time>
      </trkpt>
      <trkpt lat="43.42014" lon="6.17543">
        <ele>315.39999389648</ele>
        <time>2013-10-26T13:53:19Z</time>
      </trkpt>
      <trkpt lat="43.42014" lon="6.17543">
        <ele>315.39999389648</ele>
        <time>2013-10-26T13:53:25Z</time>
      </trkpt>
      <trkpt lat="43.42014" lon="6.17543">
        <ele>315.39999389648</ele>
        <time>2013-10-26T13:53:41Z</time>
      </trkpt>
      <trkpt lat="43.42014" lon="6.17544">
        <ele>315.39999389648</ele>
        <time>2013-10-26T13:53:47Z</time>
      </trkpt>
      <trkpt lat="43.42014" lon="6.17544">
        <ele>315.39999389648</ele>
        <time>2013-10-26T13:54:00Z</time>
      </trkpt>
      <trkpt lat="43.42014" lon="6.17544">
        <ele>315.39999389648</ele>
        <time>2013-10-26T13:54:12Z</time>
      </trkpt>
      <trkpt lat="43.42007" lon="6.17544">
        <ele>315.39999389648</ele>
        <time>2013-10-26T13:54:17Z</time>
      </trkpt>
      <trkpt lat="43.42" lon="6.17544">
        <ele>315</ele>
        <time>2013-10-26T13:54:19Z</time>
      </trkpt>
      <trkpt lat="43.41996" lon="6.17544">
        <ele>314.60000610352</ele>
        <time>2013-10-26T13:54:20Z</time>
      </trkpt>
      <trkpt lat="43.41992" lon="6.17545">
        <ele>314.20001220703</ele>
        <time>2013-10-26T13:54:21Z</time>
      </trkpt>
      <trkpt lat="43.41987" lon="6.17545">
        <ele>313.60000610352</ele>
        <time>2013-10-26T13:54:22Z</time>
      </trkpt>
      <trkpt lat="43.41981" lon="6.17546">
        <ele>313.20001220703</ele>
        <time>2013-10-26T13:54:23Z</time>
      </trkpt>
      <trkpt lat="43.41967" lon="6.17546">
        <ele>312.79998779297</ele>
        <time>2013-10-26T13:54:25Z</time>
      </trkpt>
      <trkpt lat="43.41955" lon="6.17547">
        <ele>311.79998779297</ele>
        <time>2013-10-26T13:54:27Z</time>
      </trkpt>
      <trkpt lat="43.41949" lon="6.17548">
        <ele>311.20001220703</ele>
        <time>2013-10-26T13:54:28Z</time>
      </trkpt>
      <trkpt lat="43.41944" lon="6.17548">
        <ele>310.60000610352</ele>
        <time>2013-10-26T13:54:29Z</time>
      </trkpt>
      <trkpt lat="43.4194" lon="6.17548">
        <ele>310</ele>
        <time>2013-10-26T13:54:30Z</time>
      </trkpt>
      <trkpt lat="43.41936" lon="6.17548">
        <ele>309.20001220703</ele>
        <time>2013-10-26T13:54:31Z</time>
      </trkpt>
      <trkpt lat="43.41932" lon="6.17547">
        <ele>308.60000610352</ele>
        <time>2013-10-26T13:54:32Z</time>
      </trkpt>
      <trkpt lat="43.41925" lon="6.17541">
        <ele>307.60000610352</ele>
        <time>2013-10-26T13:54:34Z</time>
      </trkpt>
      <trkpt lat="43.41917" lon="6.17537">
        <ele>306.39999389648</ele>
        <time>2013-10-26T13:54:36Z</time>
      </trkpt>
      <trkpt lat="43.41909" lon="6.17536">
        <ele>306.39999389648</ele>
        <time>2013-10-26T13:54:38Z</time>
      </trkpt>
      <trkpt lat="43.41906" lon="6.17536">
        <ele>306.39999389648</ele>
        <time>2013-10-26T13:54:39Z</time>
      </trkpt>
      <trkpt lat="43.41902" lon="6.17536">
        <ele>306</ele>
        <time>2013-10-26T13:54:41Z</time>
      </trkpt>
      <trkpt lat="43.41899" lon="6.17536">
        <ele>305.60000610352</ele>
        <time>2013-10-26T13:54:42Z</time>
      </trkpt>
      <trkpt lat="43.41889" lon="6.17533">
        <ele>304.20001220703</ele>
        <time>2013-10-26T13:54:46Z</time>
      </trkpt>
      <trkpt lat="43.41874" lon="6.17534">
        <ele>303.79998779297</ele>
        <time>2013-10-26T13:54:49Z</time>
      </trkpt>
      <trkpt lat="43.41861" lon="6.17537">
        <ele>302.39999389648</ele>
        <time>2013-10-26T13:54:52Z</time>
      </trkpt>
      <trkpt lat="43.41851" lon="6.17538">
        <ele>301</ele>
        <time>2013-10-26T13:54:54Z</time>
      </trkpt>
      <trkpt lat="43.41845" lon="6.17538">
        <ele>300.39999389648</ele>
        <time>2013-10-26T13:54:55Z</time>
      </trkpt>
      <trkpt lat="43.41825" lon="6.17531">
        <ele>297.79998779297</ele>
        <time>2013-10-26T13:54:59Z</time>
      </trkpt>
      <trkpt lat="43.41821" lon="6.1753">
        <ele>297</ele>
        <time>2013-10-26T13:55:00Z</time>
      </trkpt>
      <trkpt lat="43.41816" lon="6.17523">
        <ele>295.60000610352</ele>
        <time>2013-10-26T13:55:02Z</time>
      </trkpt>
      <trkpt lat="43.41814" lon="6.17504">
        <ele>293.60000610352</ele>
        <time>2013-10-26T13:55:05Z</time>
      </trkpt>
      <trkpt lat="43.41816" lon="6.17491">
        <ele>293.60000610352</ele>
        <time>2013-10-26T13:55:07Z</time>
      </trkpt>
      <trkpt lat="43.41819" lon="6.17448">
        <ele>291.20001220703</ele>
        <time>2013-10-26T13:55:12Z</time>
      </trkpt>
      <trkpt lat="43.41821" lon="6.17414">
        <ele>291.20001220703</ele>
        <time>2013-10-26T13:55:16Z</time>
      </trkpt>
      <trkpt lat="43.41816" lon="6.17398">
        <ele>291.20001220703</ele>
        <time>2013-10-26T13:55:18Z</time>
      </trkpt>
      <trkpt lat="43.41814" lon="6.1739">
        <ele>290.79998779297</ele>
        <time>2013-10-26T13:55:19Z</time>
      </trkpt>
      <trkpt lat="43.41809" lon="6.17356">
        <ele>289</ele>
        <time>2013-10-26T13:55:23Z</time>
      </trkpt>
      <trkpt lat="43.41805" lon="6.17331">
        <ele>289</ele>
        <time>2013-10-26T13:55:26Z</time>
      </trkpt>
      <trkpt lat="43.41806" lon="6.17297">
        <ele>289</ele>
        <time>2013-10-26T13:55:30Z</time>
      </trkpt>
      <trkpt lat="43.41804" lon="6.17281">
        <ele>289</ele>
        <time>2013-10-26T13:55:32Z</time>
      </trkpt>
      <trkpt lat="43.41803" lon="6.17265">
        <ele>288.20001220703</ele>
        <time>2013-10-26T13:55:34Z</time>
      </trkpt>
      <trkpt lat="43.41803" lon="6.17235">
        <ele>286.79998779297</ele>
        <time>2013-10-26T13:55:38Z</time>
      </trkpt>
      <trkpt lat="43.41801" lon="6.17218">
        <ele>286.79998779297</ele>
        <time>2013-10-26T13:55:40Z</time>
      </trkpt>
      <trkpt lat="43.41799" lon="6.17193">
        <ele>285.79998779297</ele>
        <time>2013-10-26T13:55:43Z</time>
      </trkpt>
      <trkpt lat="43.41798" lon="6.17176">
        <ele>284.79998779297</ele>
        <time>2013-10-26T13:55:45Z</time>
      </trkpt>
      <trkpt lat="43.41792" lon="6.17153">
        <ele>284.39999389648</ele>
        <time>2013-10-26T13:55:48Z</time>
      </trkpt>
      <trkpt lat="43.4179" lon="6.17136">
        <ele>284.39999389648</ele>
        <time>2013-10-26T13:55:50Z</time>
      </trkpt>
      <trkpt lat="43.41789" lon="6.17119">
        <ele>284.39999389648</ele>
        <time>2013-10-26T13:55:52Z</time>
      </trkpt>
      <trkpt lat="43.41791" lon="6.17101">
        <ele>284.39999389648</ele>
        <time>2013-10-26T13:55:54Z</time>
      </trkpt>
      <trkpt lat="43.41788" lon="6.17073">
        <ele>283.20001220703</ele>
        <time>2013-10-26T13:55:57Z</time>
      </trkpt>
      <trkpt lat="43.41788" lon="6.17064">
        <ele>282.39999389648</ele>
        <time>2013-10-26T13:55:58Z</time>
      </trkpt>
      <trkpt lat="43.4179" lon="6.17039">
        <ele>282.39999389648</ele>
        <time>2013-10-26T13:56:01Z</time>
      </trkpt>
      <trkpt lat="43.41795" lon="6.16996">
        <ele>282.39999389648</ele>
        <time>2013-10-26T13:56:06Z</time>
      </trkpt>
      <trkpt lat="43.41797" lon="6.16971">
        <ele>281.20001220703</ele>
        <time>2013-10-26T13:56:09Z</time>
      </trkpt>
      <trkpt lat="43.41794" lon="6.16955">
        <ele>280.39999389648</ele>
        <time>2013-10-26T13:56:11Z</time>
      </trkpt>
      <trkpt lat="43.41792" lon="6.16929">
        <ele>280</ele>
        <time>2013-10-26T13:56:14Z</time>
      </trkpt>
      <trkpt lat="43.41793" lon="6.1692">
        <ele>279.39999389648</ele>
        <time>2013-10-26T13:56:15Z</time>
      </trkpt>
      <trkpt lat="43.41793" lon="6.16901">
        <ele>278.60000610352</ele>
        <time>2013-10-26T13:56:17Z</time>
      </trkpt>
      <trkpt lat="43.41793" lon="6.16893">
        <ele>278.20001220703</ele>
        <time>2013-10-26T13:56:18Z</time>
      </trkpt>
      <trkpt lat="43.41794" lon="6.16862">
        <ele>278.20001220703</ele>
        <time>2013-10-26T13:56:22Z</time>
      </trkpt>
      <trkpt lat="43.41793" lon="6.16799">
        <ele>278.20001220703</ele>
        <time>2013-10-26T13:56:29Z</time>
      </trkpt>
      <trkpt lat="43.4179" lon="6.16753">
        <ele>277.60000610352</ele>
        <time>2013-10-26T13:56:34Z</time>
      </trkpt>
      <trkpt lat="43.41793" lon="6.16727">
        <ele>276.39999389648</ele>
        <time>2013-10-26T13:56:37Z</time>
      </trkpt>
      <trkpt lat="43.41793" lon="6.16682">
        <ele>275.60000610352</ele>
        <time>2013-10-26T13:56:42Z</time>
      </trkpt>
      <trkpt lat="43.41792" lon="6.16663">
        <ele>274.79998779297</ele>
        <time>2013-10-26T13:56:44Z</time>
      </trkpt>
      <trkpt lat="43.4179" lon="6.16644">
        <ele>274</ele>
        <time>2013-10-26T13:56:46Z</time>
      </trkpt>
      <trkpt lat="43.41789" lon="6.16616">
        <ele>272.60000610352</ele>
        <time>2013-10-26T13:56:49Z</time>
      </trkpt>
      <trkpt lat="43.41789" lon="6.16607">
        <ele>272.20001220703</ele>
        <time>2013-10-26T13:56:50Z</time>
      </trkpt>
      <trkpt lat="43.41789" lon="6.16598">
        <ele>271.79998779297</ele>
        <time>2013-10-26T13:56:51Z</time>
      </trkpt>
      <trkpt lat="43.41788" lon="6.1659">
        <ele>271.79998779297</ele>
        <time>2013-10-26T13:56:52Z</time>
      </trkpt>
      <trkpt lat="43.41784" lon="6.16574">
        <ele>271.79998779297</ele>
        <time>2013-10-26T13:56:54Z</time>
      </trkpt>
      <trkpt lat="43.41781" lon="6.16547">
        <ele>271.39999389648</ele>
        <time>2013-10-26T13:56:57Z</time>
      </trkpt>
      <trkpt lat="43.41781" lon="6.16537">
        <ele>270.79998779297</ele>
        <time>2013-10-26T13:56:58Z</time>
      </trkpt>
      <trkpt lat="43.41781" lon="6.16521">
        <ele>270</ele>
        <time>2013-10-26T13:57:00Z</time>
      </trkpt>
      <trkpt lat="43.41781" lon="6.16514">
        <ele>269.39999389648</ele>
        <time>2013-10-26T13:57:01Z</time>
      </trkpt>
      <trkpt lat="43.41782" lon="6.16504">
        <ele>269.39999389648</ele>
        <time>2013-10-26T13:57:03Z</time>
      </trkpt>
      <trkpt lat="43.41786" lon="6.16495">
        <ele>269</ele>
        <time>2013-10-26T13:57:06Z</time>
      </trkpt>
      <trkpt lat="43.41788" lon="6.16493">
        <ele>268.60000610352</ele>
        <time>2013-10-26T13:57:07Z</time>
      </trkpt>
      <trkpt lat="43.41787" lon="6.16486">
        <ele>267.79998779297</ele>
        <time>2013-10-26T13:57:09Z</time>
      </trkpt>
      <trkpt lat="43.41786" lon="6.16483">
        <ele>267.20001220703</ele>
        <time>2013-10-26T13:57:10Z</time>
      </trkpt>
      <trkpt lat="43.41785" lon="6.16477">
        <ele>267.20001220703</ele>
        <time>2013-10-26T13:57:12Z</time>
      </trkpt>
      <trkpt lat="43.4178" lon="6.16467">
        <ele>267.20001220703</ele>
        <time>2013-10-26T13:57:16Z</time>
      </trkpt>
      <trkpt lat="43.41771" lon="6.16458">
        <ele>267.20001220703</ele>
        <time>2013-10-26T13:57:22Z</time>
      </trkpt>
      <trkpt lat="43.41769" lon="6.16451">
        <ele>267.20001220703</ele>
        <time>2013-10-26T13:57:25Z</time>
      </trkpt>
      <trkpt lat="43.41768" lon="6.1644">
        <ele>269.39999389648</ele>
        <time>2013-10-26T13:57:30Z</time>
      </trkpt>
      <trkpt lat="43.41768" lon="6.16438">
        <ele>269.39999389648</ele>
        <time>2013-10-26T13:57:31Z</time>
      </trkpt>
      <trkpt lat="43.4177" lon="6.16432">
        <ele>269.39999389648</ele>
        <time>2013-10-26T13:57:34Z</time>
      </trkpt>
      <trkpt lat="43.4177" lon="6.16427">
        <ele>270.79998779297</ele>
        <time>2013-10-26T13:57:36Z</time>
      </trkpt>
      <trkpt lat="43.4177" lon="6.16425">
        <ele>271.20001220703</ele>
        <time>2013-10-26T13:57:37Z</time>
      </trkpt>
      <trkpt lat="43.41765" lon="6.16413">
        <ele>271.60000610352</ele>
        <time>2013-10-26T13:57:43Z</time>
      </trkpt>
      <trkpt lat="43.41765" lon="6.16407">
        <ele>271.60000610352</ele>
        <time>2013-10-26T13:57:45Z</time>
      </trkpt>
      <trkpt lat="43.41767" lon="6.16396">
        <ele>271.60000610352</ele>
        <time>2013-10-26T13:57:49Z</time>
      </trkpt>
      <trkpt lat="43.4177" lon="6.16379">
        <ele>271.60000610352</ele>
        <time>2013-10-26T13:57:54Z</time>
      </trkpt>
      <trkpt lat="43.41772" lon="6.16371">
        <ele>271.60000610352</ele>
        <time>2013-10-26T13:57:56Z</time>
      </trkpt>
      <trkpt lat="43.41774" lon="6.16363">
        <ele>271.60000610352</ele>
        <time>2013-10-26T13:57:58Z</time>
      </trkpt>
      <trkpt lat="43.41776" lon="6.16346">
        <ele>271.20001220703</ele>
        <time>2013-10-26T13:58:02Z</time>
      </trkpt>
      <trkpt lat="43.41777" lon="6.16332">
        <ele>270.20001220703</ele>
        <time>2013-10-26T13:58:04Z</time>
      </trkpt>
      <trkpt lat="43.4178" lon="6.1632">
        <ele>268.79998779297</ele>
        <time>2013-10-26T13:58:06Z</time>
      </trkpt>
      <trkpt lat="43.41782" lon="6.16307">
        <ele>267.60000610352</ele>
        <time>2013-10-26T13:58:08Z</time>
      </trkpt>
      <trkpt lat="43.41782" lon="6.163">
        <ele>266.79998779297</ele>
        <time>2013-10-26T13:58:09Z</time>
      </trkpt>
      <trkpt lat="43.41784" lon="6.16287">
        <ele>265.60000610352</ele>
        <time>2013-10-26T13:58:11Z</time>
      </trkpt>
      <trkpt lat="43.41785" lon="6.16283">
        <ele>265</ele>
        <time>2013-10-26T13:58:12Z</time>
      </trkpt>
      <trkpt lat="43.41785" lon="6.16276">
        <ele>264.39999389648</ele>
        <time>2013-10-26T13:58:13Z</time>
      </trkpt>
      <trkpt lat="43.41785" lon="6.16265">
        <ele>263.20001220703</ele>
        <time>2013-10-26T13:58:15Z</time>
      </trkpt>
      <trkpt lat="43.41787" lon="6.16261">
        <ele>262.60000610352</ele>
        <time>2013-10-26T13:58:16Z</time>
      </trkpt>
      <trkpt lat="43.41794" lon="6.16256">
        <ele>262.60000610352</ele>
        <time>2013-10-26T13:58:18Z</time>
      </trkpt>
      <trkpt lat="43.41801" lon="6.16249">
        <ele>262.60000610352</ele>
        <time>2013-10-26T13:58:20Z</time>
      </trkpt>
      <trkpt lat="43.41802" lon="6.16239">
        <ele>262.60000610352</ele>
        <time>2013-10-26T13:58:22Z</time>
      </trkpt>
      <trkpt lat="43.41803" lon="6.16226">
        <ele>262.20001220703</ele>
        <time>2013-10-26T13:58:24Z</time>
      </trkpt>
      <trkpt lat="43.41805" lon="6.1622">
        <ele>261.39999389648</ele>
        <time>2013-10-26T13:58:25Z</time>
      </trkpt>
      <trkpt lat="43.41805" lon="6.16192">
        <ele>260.60000610352</ele>
        <time>2013-10-26T13:58:30Z</time>
      </trkpt>
      <trkpt lat="43.41802" lon="6.16173">
        <ele>260.60000610352</ele>
        <time>2013-10-26T13:58:33Z</time>
      </trkpt>
      <trkpt lat="43.41801" lon="6.16166">
        <ele>260.60000610352</ele>
        <time>2013-10-26T13:58:34Z</time>
      </trkpt>
      <trkpt lat="43.41803" lon="6.1614">
        <ele>260.60000610352</ele>
        <time>2013-10-26T13:58:38Z</time>
      </trkpt>
      <trkpt lat="43.41796" lon="6.16123">
        <ele>260.60000610352</ele>
        <time>2013-10-26T13:58:41Z</time>
      </trkpt>
      <trkpt lat="43.41795" lon="6.1611">
        <ele>260.60000610352</ele>
        <time>2013-10-26T13:58:43Z</time>
      </trkpt>
      <trkpt lat="43.41793" lon="6.16103">
        <ele>260.60000610352</ele>
        <time>2013-10-26T13:58:45Z</time>
      </trkpt>
      <trkpt lat="43.41791" lon="6.16095">
        <ele>260.60000610352</ele>
        <time>2013-10-26T13:58:48Z</time>
      </trkpt>
      <trkpt lat="43.41789" lon="6.16089">
        <ele>260.60000610352</ele>
        <time>2013-10-26T13:58:51Z</time>
      </trkpt>
      <trkpt lat="43.41788" lon="6.16083">
        <ele>260.60000610352</ele>
        <time>2013-10-26T13:58:54Z</time>
      </trkpt>
      <trkpt lat="43.41788" lon="6.1608">
        <ele>261</ele>
        <time>2013-10-26T13:58:56Z</time>
      </trkpt>
      <trkpt lat="43.41788" lon="6.16078">
        <ele>261.39999389648</ele>
        <time>2013-10-26T13:58:57Z</time>
      </trkpt>
      <trkpt lat="43.41788" lon="6.16075">
        <ele>261.79998779297</ele>
        <time>2013-10-26T13:58:58Z</time>
      </trkpt>
      <trkpt lat="43.41788" lon="6.16069">
        <ele>262.79998779297</ele>
        <time>2013-10-26T13:59:00Z</time>
      </trkpt>
      <trkpt lat="43.41789" lon="6.16061">
        <ele>262.79998779297</ele>
        <time>2013-10-26T13:59:03Z</time>
      </trkpt>
      <trkpt lat="43.41788" lon="6.16044">
        <ele>262.79998779297</ele>
        <time>2013-10-26T13:59:09Z</time>
      </trkpt>
      <trkpt lat="43.41787" lon="6.16022">
        <ele>262.79998779297</ele>
        <time>2013-10-26T13:59:15Z</time>
      </trkpt>
      <trkpt lat="43.41788" lon="6.16001">
        <ele>262.79998779297</ele>
        <time>2013-10-26T13:59:20Z</time>
      </trkpt>
      <trkpt lat="43.41788" lon="6.15997">
        <ele>262.79998779297</ele>
        <time>2013-10-26T13:59:21Z</time>
      </trkpt>
      <trkpt lat="43.41788" lon="6.15984">
        <ele>262.20001220703</ele>
        <time>2013-10-26T13:59:25Z</time>
      </trkpt>
      <trkpt lat="43.41793" lon="6.15966">
        <ele>260</ele>
        <time>2013-10-26T13:59:29Z</time>
      </trkpt>
      <trkpt lat="43.41791" lon="6.15962">
        <ele>259.39999389648</ele>
        <time>2013-10-26T13:59:30Z</time>
      </trkpt>
      <trkpt lat="43.41789" lon="6.15958">
        <ele>258.20001220703</ele>
        <time>2013-10-26T13:59:32Z</time>
      </trkpt>
      <trkpt lat="43.41787" lon="6.15954">
        <ele>258.20001220703</ele>
        <time>2013-10-26T13:59:34Z</time>
      </trkpt>
      <trkpt lat="43.41784" lon="6.15946">
        <ele>258.20001220703</ele>
        <time>2013-10-26T13:59:38Z</time>
      </trkpt>
      <trkpt lat="43.41783" lon="6.15942">
        <ele>258.20001220703</ele>
        <time>2013-10-26T13:59:40Z</time>
      </trkpt>
      <trkpt lat="43.4178" lon="6.15938">
        <ele>259</ele>
        <time>2013-10-26T13:59:42Z</time>
      </trkpt>
      <trkpt lat="43.41778" lon="6.15933">
        <ele>260.39999389648</ele>
        <time>2013-10-26T13:59:45Z</time>
      </trkpt>
      <trkpt lat="43.41776" lon="6.15927">
        <ele>260.39999389648</ele>
        <time>2013-10-26T13:59:48Z</time>
      </trkpt>
      <trkpt lat="43.41774" lon="6.15923">
        <ele>260.79998779297</ele>
        <time>2013-10-26T13:59:50Z</time>
      </trkpt>
      <trkpt lat="43.41771" lon="6.15914">
        <ele>262.39999389648</ele>
        <time>2013-10-26T13:59:54Z</time>
      </trkpt>
      <trkpt lat="43.4177" lon="6.15909">
        <ele>262.39999389648</ele>
        <time>2013-10-26T13:59:56Z</time>
      </trkpt>
      <trkpt lat="43.41766" lon="6.1589">
        <ele>262.39999389648</ele>
        <time>2013-10-26T14:00:02Z</time>
      </trkpt>
      <trkpt lat="43.41766" lon="6.15886">
        <ele>262.39999389648</ele>
        <time>2013-10-26T14:00:03Z</time>
      </trkpt>
      <trkpt lat="43.41763" lon="6.15868">
        <ele>262.39999389648</ele>
        <time>2013-10-26T14:00:08Z</time>
      </trkpt>
      <trkpt lat="43.41757" lon="6.15841">
        <ele>262.39999389648</ele>
        <time>2013-10-26T14:00:13Z</time>
      </trkpt>
      <trkpt lat="43.41757" lon="6.15835">
        <ele>262.39999389648</ele>
        <time>2013-10-26T14:00:14Z</time>
      </trkpt>
      <trkpt lat="43.41756" lon="6.15811">
        <ele>262.39999389648</ele>
        <time>2013-10-26T14:00:18Z</time>
      </trkpt>
      <trkpt lat="43.41755" lon="6.158">
        <ele>262</ele>
        <time>2013-10-26T14:00:20Z</time>
      </trkpt>
      <trkpt lat="43.41754" lon="6.15794">
        <ele>261.39999389648</ele>
        <time>2013-10-26T14:00:21Z</time>
      </trkpt>
      <trkpt lat="43.41752" lon="6.15789">
        <ele>261</ele>
        <time>2013-10-26T14:00:22Z</time>
      </trkpt>
      <trkpt lat="43.4175" lon="6.15781">
        <ele>260</ele>
        <time>2013-10-26T14:00:24Z</time>
      </trkpt>
      <trkpt lat="43.4175" lon="6.15763">
        <ele>258.20001220703</ele>
        <time>2013-10-26T14:00:27Z</time>
      </trkpt>
      <trkpt lat="43.4175" lon="6.15758">
        <ele>257.60000610352</ele>
        <time>2013-10-26T14:00:28Z</time>
      </trkpt>
      <trkpt lat="43.41751" lon="6.15753">
        <ele>256.60000610352</ele>
        <time>2013-10-26T14:00:29Z</time>
      </trkpt>
      <trkpt lat="43.41752" lon="6.15748">
        <ele>256</ele>
        <time>2013-10-26T14:00:30Z</time>
      </trkpt>
      <trkpt lat="43.41753" lon="6.15742">
        <ele>255.60000610352</ele>
        <time>2013-10-26T14:00:31Z</time>
      </trkpt>
      <trkpt lat="43.41753" lon="6.15729">
        <ele>255.60000610352</ele>
        <time>2013-10-26T14:00:34Z</time>
      </trkpt>
      <trkpt lat="43.41752" lon="6.15718">
        <ele>255.60000610352</ele>
        <time>2013-10-26T14:00:36Z</time>
      </trkpt>
      <trkpt lat="43.41748" lon="6.15698">
        <ele>254.60000610352</ele>
        <time>2013-10-26T14:00:39Z</time>
      </trkpt>
      <trkpt lat="43.41747" lon="6.15681">
        <ele>253.80000305176</ele>
        <time>2013-10-26T14:00:41Z</time>
      </trkpt>
      <trkpt lat="43.41745" lon="6.15674">
        <ele>253.19999694824</ele>
        <time>2013-10-26T14:00:42Z</time>
      </trkpt>
      <trkpt lat="43.41741" lon="6.1567">
        <ele>253.19999694824</ele>
        <time>2013-10-26T14:00:43Z</time>
      </trkpt>
      <trkpt lat="43.41738" lon="6.15664">
        <ele>252.80000305176</ele>
        <time>2013-10-26T14:00:44Z</time>
      </trkpt>
      <trkpt lat="43.41735" lon="6.15656">
        <ele>252.39999389648</ele>
        <time>2013-10-26T14:00:45Z</time>
      </trkpt>
      <trkpt lat="43.41734" lon="6.15649">
        <ele>252</ele>
        <time>2013-10-26T14:00:46Z</time>
      </trkpt>
      <trkpt lat="43.41732" lon="6.15641">
        <ele>251.60000610352</ele>
        <time>2013-10-26T14:00:47Z</time>
      </trkpt>
      <trkpt lat="43.41732" lon="6.15633">
        <ele>251.19999694824</ele>
        <time>2013-10-26T14:00:48Z</time>
      </trkpt>
      <trkpt lat="43.4173" lon="6.15614">
        <ele>251.19999694824</ele>
        <time>2013-10-26T14:00:51Z</time>
      </trkpt>
      <trkpt lat="43.41732" lon="6.15593">
        <ele>251.19999694824</ele>
        <time>2013-10-26T14:00:55Z</time>
      </trkpt>
      <trkpt lat="43.41729" lon="6.15574">
        <ele>251.19999694824</ele>
        <time>2013-10-26T14:00:59Z</time>
      </trkpt>
      <trkpt lat="43.41718" lon="6.15561">
        <ele>250.39999389648</ele>
        <time>2013-10-26T14:01:02Z</time>
      </trkpt>
      <trkpt lat="43.41713" lon="6.15549">
        <ele>249.60000610352</ele>
        <time>2013-10-26T14:01:04Z</time>
      </trkpt>
      <trkpt lat="43.4171" lon="6.15543">
        <ele>249.19999694824</ele>
        <time>2013-10-26T14:01:05Z</time>
      </trkpt>
      <trkpt lat="43.41707" lon="6.15539">
        <ele>249.19999694824</ele>
        <time>2013-10-26T14:01:06Z</time>
      </trkpt>
      <trkpt lat="43.41703" lon="6.15537">
        <ele>249.19999694824</ele>
        <time>2013-10-26T14:01:07Z</time>
      </trkpt>
      <trkpt lat="43.4169" lon="6.15539">
        <ele>248.80000305176</ele>
        <time>2013-10-26T14:01:10Z</time>
      </trkpt>
      <trkpt lat="43.41684" lon="6.15537">
        <ele>248</ele>
        <time>2013-10-26T14:01:12Z</time>
      </trkpt>
      <trkpt lat="43.41681" lon="6.15535">
        <ele>247</ele>
        <time>2013-10-26T14:01:14Z</time>
      </trkpt>
      <trkpt lat="43.41681" lon="6.15535">
        <ele>247</ele>
        <time>2013-10-26T14:01:15Z</time>
      </trkpt>
      <trkpt lat="43.41681" lon="6.15535">
        <ele>247</ele>
        <time>2013-10-26T14:01:19Z</time>
      </trkpt>
      <trkpt lat="43.41681" lon="6.15535">
        <ele>247</ele>
        <time>2013-10-26T14:01:37Z</time>
      </trkpt>
      <trkpt lat="43.41681" lon="6.15535">
        <ele>247</ele>
        <time>2013-10-26T14:02:04Z</time>
      </trkpt>
      <trkpt lat="43.41681" lon="6.15535">
        <ele>247</ele>
        <time>2013-10-26T14:02:29Z</time>
      </trkpt>
      <trkpt lat="43.41681" lon="6.15535">
        <ele>247</ele>
        <time>2013-10-26T14:03:41Z</time>
      </trkpt>
      <trkpt lat="43.41681" lon="6.15534">
        <ele>247</ele>
        <time>2013-10-26T14:04:41Z</time>
      </trkpt>
      <trkpt lat="43.41681" lon="6.15534">
        <ele>247</ele>
        <time>2013-10-26T14:05:08Z</time>
      </trkpt>
      <trkpt lat="43.41681" lon="6.15534">
        <ele>247</ele>
        <time>2013-10-26T14:06:18Z</time>
      </trkpt>
      <trkpt lat="43.41681" lon="6.15534">
        <ele>247</ele>
        <time>2013-10-26T14:06:36Z</time>
      </trkpt>
      <trkpt lat="43.41682" lon="6.15534">
        <ele>247</ele>
        <time>2013-10-26T14:06:40Z</time>
      </trkpt>
      <trkpt lat="43.41682" lon="6.15534">
        <ele>247</ele>
        <time>2013-10-26T14:07:08Z</time>
      </trkpt>
      <trkpt lat="43.41682" lon="6.15534">
        <ele>247</ele>
        <time>2013-10-26T14:07:20Z</time>
      </trkpt>
      <trkpt lat="43.41682" lon="6.15534">
        <ele>247</ele>
        <time>2013-10-26T14:07:37Z</time>
      </trkpt>
      <trkpt lat="43.41682" lon="6.15534">
        <ele>247</ele>
        <time>2013-10-26T14:08:03Z</time>
      </trkpt>
      <trkpt lat="43.41682" lon="6.15534">
        <ele>247</ele>
        <time>2013-10-26T14:08:20Z</time>
      </trkpt>
      <trkpt lat="43.41682" lon="6.15533">
        <ele>247</ele>
        <time>2013-10-26T14:08:26Z</time>
      </trkpt>
      <trkpt lat="43.41681" lon="6.15533">
        <ele>247</ele>
        <time>2013-10-26T14:08:42Z</time>
      </trkpt>
      <trkpt lat="43.41681" lon="6.15533">
        <ele>247</ele>
        <time>2013-10-26T14:08:54Z</time>
      </trkpt>
      <trkpt lat="43.4168" lon="6.15533">
        <ele>247</ele>
        <time>2013-10-26T14:08:56Z</time>
      </trkpt>
      <trkpt lat="43.41675" lon="6.15529">
        <ele>247</ele>
        <time>2013-10-26T14:08:59Z</time>
      </trkpt>
      <trkpt lat="43.41673" lon="6.15514">
        <ele>247</ele>
        <time>2013-10-26T14:09:02Z</time>
      </trkpt>
      <trkpt lat="43.41673" lon="6.15507">
        <ele>246.60000610352</ele>
        <time>2013-10-26T14:09:03Z</time>
      </trkpt>
      <trkpt lat="43.41673" lon="6.155">
        <ele>246.19999694824</ele>
        <time>2013-10-26T14:09:04Z</time>
      </trkpt>
      <trkpt lat="43.41671" lon="6.15486">
        <ele>245</ele>
        <time>2013-10-26T14:09:07Z</time>
      </trkpt>
      <trkpt lat="43.41667" lon="6.15472">
        <ele>245</ele>
        <time>2013-10-26T14:09:10Z</time>
      </trkpt>
      <trkpt lat="43.41659" lon="6.15443">
        <ele>245</ele>
        <time>2013-10-26T14:09:15Z</time>
      </trkpt>
      <trkpt lat="43.41654" lon="6.15431">
        <ele>245</ele>
        <time>2013-10-26T14:09:17Z</time>
      </trkpt>
      <trkpt lat="43.41636" lon="6.15411">
        <ele>245</ele>
        <time>2013-10-26T14:09:21Z</time>
      </trkpt>
      <trkpt lat="43.41623" lon="6.15388">
        <ele>244.60000610352</ele>
        <time>2013-10-26T14:09:25Z</time>
      </trkpt>
      <trkpt lat="43.41618" lon="6.15384">
        <ele>243.60000610352</ele>
        <time>2013-10-26T14:09:27Z</time>
      </trkpt>
      <trkpt lat="43.41613" lon="6.15376">
        <ele>242.60000610352</ele>
        <time>2013-10-26T14:09:29Z</time>
      </trkpt>
      <trkpt lat="43.41603" lon="6.15365">
        <ele>242.60000610352</ele>
        <time>2013-10-26T14:09:33Z</time>
      </trkpt>
      <trkpt lat="43.41598" lon="6.1535">
        <ele>242.60000610352</ele>
        <time>2013-10-26T14:09:37Z</time>
      </trkpt>
      <trkpt lat="43.41597" lon="6.15345">
        <ele>242.60000610352</ele>
        <time>2013-10-26T14:09:38Z</time>
      </trkpt>
      <trkpt lat="43.41597" lon="6.15317">
        <ele>242.60000610352</ele>
        <time>2013-10-26T14:09:42Z</time>
      </trkpt>
      <trkpt lat="43.41597" lon="6.1531">
        <ele>242.60000610352</ele>
        <time>2013-10-26T14:09:43Z</time>
      </trkpt>
      <trkpt lat="43.41595" lon="6.15281">
        <ele>242.60000610352</ele>
        <time>2013-10-26T14:09:47Z</time>
      </trkpt>
      <trkpt lat="43.41595" lon="6.15266">
        <ele>242.60000610352</ele>
        <time>2013-10-26T14:09:49Z</time>
      </trkpt>
      <trkpt lat="43.41593" lon="6.15247">
        <ele>242.60000610352</ele>
        <time>2013-10-26T14:09:52Z</time>
      </trkpt>
      <trkpt lat="43.41588" lon="6.15212">
        <ele>242.60000610352</ele>
        <time>2013-10-26T14:09:58Z</time>
      </trkpt>
      <trkpt lat="43.41587" lon="6.15199">
        <ele>241.60000610352</ele>
        <time>2013-10-26T14:10:00Z</time>
      </trkpt>
      <trkpt lat="43.41591" lon="6.15186">
        <ele>240.80000305176</ele>
        <time>2013-10-26T14:10:02Z</time>
      </trkpt>
      <trkpt lat="43.41604" lon="6.15166">
        <ele>240.19999694824</ele>
        <time>2013-10-26T14:10:06Z</time>
      </trkpt>
      <trkpt lat="43.41608" lon="6.15141">
        <ele>240.19999694824</ele>
        <time>2013-10-26T14:10:10Z</time>
      </trkpt>
      <trkpt lat="43.41607" lon="6.15113">
        <ele>240.19999694824</ele>
        <time>2013-10-26T14:10:14Z</time>
      </trkpt>
      <trkpt lat="43.41603" lon="6.15101">
        <ele>239.39999389648</ele>
        <time>2013-10-26T14:10:16Z</time>
      </trkpt>
      <trkpt lat="43.416" lon="6.15081">
        <ele>238</ele>
        <time>2013-10-26T14:10:19Z</time>
      </trkpt>
      <trkpt lat="43.41594" lon="6.1506">
        <ele>238</ele>
        <time>2013-10-26T14:10:23Z</time>
      </trkpt>
      <trkpt lat="43.41579" lon="6.15045">
        <ele>238</ele>
        <time>2013-10-26T14:10:28Z</time>
      </trkpt>
      <trkpt lat="43.41566" lon="6.15039">
        <ele>238</ele>
        <time>2013-10-26T14:10:31Z</time>
      </trkpt>
      <trkpt lat="43.41556" lon="6.15027">
        <ele>238</ele>
        <time>2013-10-26T14:10:34Z</time>
      </trkpt>
      <trkpt lat="43.41552" lon="6.15023">
        <ele>238</ele>
        <time>2013-10-26T14:10:35Z</time>
      </trkpt>
      <trkpt lat="43.41544" lon="6.1501">
        <ele>238</ele>
        <time>2013-10-26T14:10:39Z</time>
      </trkpt>
      <trkpt lat="43.4154" lon="6.15002">
        <ele>238</ele>
        <time>2013-10-26T14:10:42Z</time>
      </trkpt>
      <trkpt lat="43.4154" lon="6.14993">
        <ele>238</ele>
        <time>2013-10-26T14:10:44Z</time>
      </trkpt>
      <trkpt lat="43.41537" lon="6.1498">
        <ele>238</ele>
        <time>2013-10-26T14:10:48Z</time>
      </trkpt>
      <trkpt lat="43.41531" lon="6.1497">
        <ele>239</ele>
        <time>2013-10-26T14:10:53Z</time>
      </trkpt>
      <trkpt lat="43.41529" lon="6.14968">
        <ele>239.39999389648</ele>
        <time>2013-10-26T14:10:54Z</time>
      </trkpt>
      <trkpt lat="43.41529" lon="6.14966">
        <ele>240.19999694824</ele>
        <time>2013-10-26T14:10:56Z</time>
      </trkpt>
      <trkpt lat="43.41526" lon="6.14957">
        <ele>240.19999694824</ele>
        <time>2013-10-26T14:11:00Z</time>
      </trkpt>
      <trkpt lat="43.41528" lon="6.14943">
        <ele>242.39999389648</ele>
        <time>2013-10-26T14:11:05Z</time>
      </trkpt>
      <trkpt lat="43.41529" lon="6.14931">
        <ele>242.39999389648</ele>
        <time>2013-10-26T14:11:09Z</time>
      </trkpt>
      <trkpt lat="43.41526" lon="6.14916">
        <ele>242.39999389648</ele>
        <time>2013-10-26T14:11:15Z</time>
      </trkpt>
      <trkpt lat="43.41525" lon="6.14897">
        <ele>242.39999389648</ele>
        <time>2013-10-26T14:11:22Z</time>
      </trkpt>
      <trkpt lat="43.41525" lon="6.14884">
        <ele>244</ele>
        <time>2013-10-26T14:11:27Z</time>
      </trkpt>
      <trkpt lat="43.41525" lon="6.14877">
        <ele>244.39999389648</ele>
        <time>2013-10-26T14:11:29Z</time>
      </trkpt>
      <trkpt lat="43.41526" lon="6.14858">
        <ele>244.39999389648</ele>
        <time>2013-10-26T14:11:36Z</time>
      </trkpt>
      <trkpt lat="43.41526" lon="6.14852">
        <ele>244.80000305176</ele>
        <time>2013-10-26T14:11:38Z</time>
      </trkpt>
      <trkpt lat="43.41527" lon="6.14849">
        <ele>245.19999694824</ele>
        <time>2013-10-26T14:11:39Z</time>
      </trkpt>
      <trkpt lat="43.41528" lon="6.14847">
        <ele>245.60000610352</ele>
        <time>2013-10-26T14:11:40Z</time>
      </trkpt>
      <trkpt lat="43.41528" lon="6.14844">
        <ele>246</ele>
        <time>2013-10-26T14:11:41Z</time>
      </trkpt>
      <trkpt lat="43.41529" lon="6.14843">
        <ele>246.60000610352</ele>
        <time>2013-10-26T14:11:42Z</time>
      </trkpt>
      <trkpt lat="43.41532" lon="6.14838">
        <ele>246.60000610352</ele>
        <time>2013-10-26T14:11:44Z</time>
      </trkpt>
      <trkpt lat="43.41538" lon="6.14825">
        <ele>246.60000610352</ele>
        <time>2013-10-26T14:11:47Z</time>
      </trkpt>
      <trkpt lat="43.41544" lon="6.14816">
        <ele>246.60000610352</ele>
        <time>2013-10-26T14:11:49Z</time>
      </trkpt>
      <trkpt lat="43.4155" lon="6.14806">
        <ele>246</ele>
        <time>2013-10-26T14:11:51Z</time>
      </trkpt>
      <trkpt lat="43.41553" lon="6.14801">
        <ele>245.60000610352</ele>
        <time>2013-10-26T14:11:52Z</time>
      </trkpt>
      <trkpt lat="43.41556" lon="6.14795">
        <ele>245.19999694824</ele>
        <time>2013-10-26T14:11:53Z</time>
      </trkpt>
      <trkpt lat="43.41563" lon="6.1478">
        <ele>244.19999694824</ele>
        <time>2013-10-26T14:11:55Z</time>
      </trkpt>
      <trkpt lat="43.41566" lon="6.14773">
        <ele>243.60000610352</ele>
        <time>2013-10-26T14:11:56Z</time>
      </trkpt>
      <trkpt lat="43.41571" lon="6.1476">
        <ele>242.39999389648</ele>
        <time>2013-10-26T14:11:58Z</time>
      </trkpt>
      <trkpt lat="43.41572" lon="6.14754">
        <ele>241.80000305176</ele>
        <time>2013-10-26T14:11:59Z</time>
      </trkpt>
      <trkpt lat="43.4157" lon="6.14747">
        <ele>241.19999694824</ele>
        <time>2013-10-26T14:12:00Z</time>
      </trkpt>
      <trkpt lat="43.4157" lon="6.14741">
        <ele>240.80000305176</ele>
        <time>2013-10-26T14:12:01Z</time>
      </trkpt>
      <trkpt lat="43.4157" lon="6.14735">
        <ele>240.39999389648</ele>
        <time>2013-10-26T14:12:02Z</time>
      </trkpt>
      <trkpt lat="43.4157" lon="6.14721">
        <ele>239.60000610352</ele>
        <time>2013-10-26T14:12:04Z</time>
      </trkpt>
      <trkpt lat="43.4157" lon="6.14715">
        <ele>239.60000610352</ele>
        <time>2013-10-26T14:12:05Z</time>
      </trkpt>
      <trkpt lat="43.41565" lon="6.14691">
        <ele>239.60000610352</ele>
        <time>2013-10-26T14:12:09Z</time>
      </trkpt>
      <trkpt lat="43.41558" lon="6.14676">
        <ele>239.60000610352</ele>
        <time>2013-10-26T14:12:12Z</time>
      </trkpt>
      <trkpt lat="43.4155" lon="6.1466">
        <ele>239.60000610352</ele>
        <time>2013-10-26T14:12:16Z</time>
      </trkpt>
      <trkpt lat="43.41547" lon="6.1465">
        <ele>239.60000610352</ele>
        <time>2013-10-26T14:12:18Z</time>
      </trkpt>
      <trkpt lat="43.41544" lon="6.14639">
        <ele>239.60000610352</ele>
        <time>2013-10-26T14:12:20Z</time>
      </trkpt>
      <trkpt lat="43.41542" lon="6.14621">
        <ele>239.60000610352</ele>
        <time>2013-10-26T14:12:23Z</time>
      </trkpt>
      <trkpt lat="43.41542" lon="6.14594">
        <ele>239.60000610352</ele>
        <time>2013-10-26T14:12:27Z</time>
      </trkpt>
      <trkpt lat="43.41542" lon="6.14582">
        <ele>239.60000610352</ele>
        <time>2013-10-26T14:12:29Z</time>
      </trkpt>
      <trkpt lat="43.41543" lon="6.1457">
        <ele>238.60000610352</ele>
        <time>2013-10-26T14:12:31Z</time>
      </trkpt>
      <trkpt lat="43.41545" lon="6.14557">
        <ele>237.80000305176</ele>
        <time>2013-10-26T14:12:33Z</time>
      </trkpt>
      <trkpt lat="43.41546" lon="6.14541">
        <ele>236.80000305176</ele>
        <time>2013-10-26T14:12:35Z</time>
      </trkpt>
      <trkpt lat="43.41547" lon="6.14517">
        <ele>235.39999389648</ele>
        <time>2013-10-26T14:12:38Z</time>
      </trkpt>
      <trkpt lat="43.41549" lon="6.145">
        <ele>234.39999389648</ele>
        <time>2013-10-26T14:12:40Z</time>
      </trkpt>
      <trkpt lat="43.41548" lon="6.14483">
        <ele>233.39999389648</ele>
        <time>2013-10-26T14:12:42Z</time>
      </trkpt>
      <trkpt lat="43.41545" lon="6.14461">
        <ele>231.60000610352</ele>
        <time>2013-10-26T14:12:45Z</time>
      </trkpt>
      <trkpt lat="43.41546" lon="6.14447">
        <ele>230.60000610352</ele>
        <time>2013-10-26T14:12:47Z</time>
      </trkpt>
      <trkpt lat="43.41552" lon="6.14425">
        <ele>230.60000610352</ele>
        <time>2013-10-26T14:12:50Z</time>
      </trkpt>
      <trkpt lat="43.41556" lon="6.1441">
        <ele>230</ele>
        <time>2013-10-26T14:12:52Z</time>
      </trkpt>
      <trkpt lat="43.41559" lon="6.14394">
        <ele>229.19999694824</ele>
        <time>2013-10-26T14:12:54Z</time>
      </trkpt>
      <trkpt lat="43.41561" lon="6.14377">
        <ele>228.39999389648</ele>
        <time>2013-10-26T14:12:56Z</time>
      </trkpt>
      <trkpt lat="43.41565" lon="6.14354">
        <ele>227.39999389648</ele>
        <time>2013-10-26T14:12:59Z</time>
      </trkpt>
      <trkpt lat="43.41571" lon="6.14322">
        <ele>226.19999694824</ele>
        <time>2013-10-26T14:13:03Z</time>
      </trkpt>
      <trkpt lat="43.41573" lon="6.14306">
        <ele>226.19999694824</ele>
        <time>2013-10-26T14:13:05Z</time>
      </trkpt>
      <trkpt lat="43.41574" lon="6.1429">
        <ele>226.19999694824</ele>
        <time>2013-10-26T14:13:07Z</time>
      </trkpt>
      <trkpt lat="43.41576" lon="6.14275">
        <ele>226.19999694824</ele>
        <time>2013-10-26T14:13:09Z</time>
      </trkpt>
      <trkpt lat="43.41579" lon="6.14269">
        <ele>226.19999694824</ele>
        <time>2013-10-26T14:13:10Z</time>
      </trkpt>
      <trkpt lat="43.41587" lon="6.14247">
        <ele>226.19999694824</ele>
        <time>2013-10-26T14:13:13Z</time>
      </trkpt>
      <trkpt lat="43.4159" lon="6.14231">
        <ele>226.19999694824</ele>
        <time>2013-10-26T14:13:15Z</time>
      </trkpt>
      <trkpt lat="43.4159" lon="6.14211">
        <ele>226.19999694824</ele>
        <time>2013-10-26T14:13:18Z</time>
      </trkpt>
      <trkpt lat="43.41583" lon="6.14179">
        <ele>226.19999694824</ele>
        <time>2013-10-26T14:13:24Z</time>
      </trkpt>
      <trkpt lat="43.41583" lon="6.14157">
        <ele>226.19999694824</ele>
        <time>2013-10-26T14:13:28Z</time>
      </trkpt>
      <trkpt lat="43.41584" lon="6.14133">
        <ele>226.19999694824</ele>
        <time>2013-10-26T14:13:33Z</time>
      </trkpt>
      <trkpt lat="43.41586" lon="6.14115">
        <ele>226.19999694824</ele>
        <time>2013-10-26T14:13:39Z</time>
      </trkpt>
      <trkpt lat="43.41586" lon="6.1411">
        <ele>226.19999694824</ele>
        <time>2013-10-26T14:13:42Z</time>
      </trkpt>
      <trkpt lat="43.41586" lon="6.1411">
        <ele>226.19999694824</ele>
        <time>2013-10-26T14:14:00Z</time>
      </trkpt>
      <trkpt lat="43.41586" lon="6.1411">
        <ele>226.19999694824</ele>
        <time>2013-10-26T14:14:21Z</time>
      </trkpt>
      <trkpt lat="43.41586" lon="6.14109">
        <ele>226.19999694824</ele>
        <time>2013-10-26T14:14:24Z</time>
      </trkpt>
      <trkpt lat="43.41586" lon="6.14109">
        <ele>226.19999694824</ele>
        <time>2013-10-26T14:14:44Z</time>
      </trkpt>
      <trkpt lat="43.41586" lon="6.14109">
        <ele>226.19999694824</ele>
        <time>2013-10-26T14:14:55Z</time>
      </trkpt>
      <trkpt lat="43.41586" lon="6.14108">
        <ele>226.19999694824</ele>
        <time>2013-10-26T14:15:03Z</time>
      </trkpt>
      <trkpt lat="43.41586" lon="6.14108">
        <ele>226.19999694824</ele>
        <time>2013-10-26T14:15:34Z</time>
      </trkpt>
      <trkpt lat="43.41586" lon="6.14108">
        <ele>226.19999694824</ele>
        <time>2013-10-26T14:15:50Z</time>
      </trkpt>
      <trkpt lat="43.41586" lon="6.14108">
        <ele>226.19999694824</ele>
        <time>2013-10-26T14:16:02Z</time>
      </trkpt>
      <trkpt lat="43.41587" lon="6.14107">
        <ele>226.19999694824</ele>
        <time>2013-10-26T14:16:08Z</time>
      </trkpt>
      <trkpt lat="43.41588" lon="6.14104">
        <ele>226.19999694824</ele>
        <time>2013-10-26T14:16:09Z</time>
      </trkpt>
      <trkpt lat="43.41592" lon="6.14097">
        <ele>226.19999694824</ele>
        <time>2013-10-26T14:16:11Z</time>
      </trkpt>
      <trkpt lat="43.41597" lon="6.14087">
        <ele>226.19999694824</ele>
        <time>2013-10-26T14:16:13Z</time>
      </trkpt>
      <trkpt lat="43.41608" lon="6.14073">
        <ele>226.19999694824</ele>
        <time>2013-10-26T14:16:16Z</time>
      </trkpt>
      <trkpt lat="43.41612" lon="6.14069">
        <ele>226.19999694824</ele>
        <time>2013-10-26T14:16:17Z</time>
      </trkpt>
      <trkpt lat="43.41617" lon="6.14064">
        <ele>226.19999694824</ele>
        <time>2013-10-26T14:16:18Z</time>
      </trkpt>
      <trkpt lat="43.41622" lon="6.14058">
        <ele>225.80000305176</ele>
        <time>2013-10-26T14:16:19Z</time>
      </trkpt>
      <trkpt lat="43.41627" lon="6.14053">
        <ele>225.39999389648</ele>
        <time>2013-10-26T14:16:20Z</time>
      </trkpt>
      <trkpt lat="43.41632" lon="6.14046">
        <ele>225</ele>
        <time>2013-10-26T14:16:21Z</time>
      </trkpt>
      <trkpt lat="43.41636" lon="6.1404">
        <ele>224.39999389648</ele>
        <time>2013-10-26T14:16:22Z</time>
      </trkpt>
      <trkpt lat="43.41641" lon="6.14034">
        <ele>224</ele>
        <time>2013-10-26T14:16:23Z</time>
      </trkpt>
      <trkpt lat="43.41645" lon="6.14027">
        <ele>224</ele>
        <time>2013-10-26T14:16:24Z</time>
      </trkpt>
      <trkpt lat="43.41649" lon="6.14021">
        <ele>223.60000610352</ele>
        <time>2013-10-26T14:16:25Z</time>
      </trkpt>
      <trkpt lat="43.41657" lon="6.14008">
        <ele>222.80000305176</ele>
        <time>2013-10-26T14:16:27Z</time>
      </trkpt>
      <trkpt lat="43.41675" lon="6.1398">
        <ele>222</ele>
        <time>2013-10-26T14:16:32Z</time>
      </trkpt>
      <trkpt lat="43.41688" lon="6.13969">
        <ele>222</ele>
        <time>2013-10-26T14:16:35Z</time>
      </trkpt>
      <trkpt lat="43.41698" lon="6.1396">
        <ele>221.39999389648</ele>
        <time>2013-10-26T14:16:37Z</time>
      </trkpt>
      <trkpt lat="43.41702" lon="6.13954">
        <ele>221</ele>
        <time>2013-10-26T14:16:38Z</time>
      </trkpt>
      <trkpt lat="43.41712" lon="6.13935">
        <ele>219.80000305176</ele>
        <time>2013-10-26T14:16:41Z</time>
      </trkpt>
      <trkpt lat="43.41716" lon="6.13929">
        <ele>219.80000305176</ele>
        <time>2013-10-26T14:16:42Z</time>
      </trkpt>
      <trkpt lat="43.4172" lon="6.13925">
        <ele>219.80000305176</ele>
        <time>2013-10-26T14:16:43Z</time>
      </trkpt>
      <trkpt lat="43.41735" lon="6.13908">
        <ele>219.80000305176</ele>
        <time>2013-10-26T14:16:46Z</time>
      </trkpt>
      <trkpt lat="43.41743" lon="6.13896">
        <ele>219.80000305176</ele>
        <time>2013-10-26T14:16:48Z</time>
      </trkpt>
      <trkpt lat="43.41749" lon="6.13882">
        <ele>219.80000305176</ele>
        <time>2013-10-26T14:16:50Z</time>
      </trkpt>
      <trkpt lat="43.41753" lon="6.13869">
        <ele>219.80000305176</ele>
        <time>2013-10-26T14:16:52Z</time>
      </trkpt>
      <trkpt lat="43.41764" lon="6.13835">
        <ele>219.80000305176</ele>
        <time>2013-10-26T14:16:58Z</time>
      </trkpt>
      <trkpt lat="43.41766" lon="6.13829">
        <ele>219.80000305176</ele>
        <time>2013-10-26T14:16:59Z</time>
      </trkpt>
      <trkpt lat="43.4177" lon="6.13811">
        <ele>219.80000305176</ele>
        <time>2013-10-26T14:17:02Z</time>
      </trkpt>
      <trkpt lat="43.41773" lon="6.13801">
        <ele>219.80000305176</ele>
        <time>2013-10-26T14:17:04Z</time>
      </trkpt>
      <trkpt lat="43.41776" lon="6.1379">
        <ele>219.80000305176</ele>
        <time>2013-10-26T14:17:06Z</time>
      </trkpt>
      <trkpt lat="43.41783" lon="6.13776">
        <ele>219.80000305176</ele>
        <time>2013-10-26T14:17:09Z</time>
      </trkpt>
      <trkpt lat="43.41796" lon="6.13765">
        <ele>219.80000305176</ele>
        <time>2013-10-26T14:17:13Z</time>
      </trkpt>
      <trkpt lat="43.418" lon="6.13754">
        <ele>219.80000305176</ele>
        <time>2013-10-26T14:17:15Z</time>
      </trkpt>
      <trkpt lat="43.41801" lon="6.13747">
        <ele>219.19999694824</ele>
        <time>2013-10-26T14:17:16Z</time>
      </trkpt>
      <trkpt lat="43.41801" lon="6.13739">
        <ele>218.80000305176</ele>
        <time>2013-10-26T14:17:17Z</time>
      </trkpt>
      <trkpt lat="43.41804" lon="6.13724">
        <ele>217.80000305176</ele>
        <time>2013-10-26T14:17:19Z</time>
      </trkpt>
      <trkpt lat="43.41806" lon="6.13708">
        <ele>217.39999389648</ele>
        <time>2013-10-26T14:17:21Z</time>
      </trkpt>
      <trkpt lat="43.41807" lon="6.137">
        <ele>217.39999389648</ele>
        <time>2013-10-26T14:17:22Z</time>
      </trkpt>
      <trkpt lat="43.41809" lon="6.13684">
        <ele>217.39999389648</ele>
        <time>2013-10-26T14:17:24Z</time>
      </trkpt>
      <trkpt lat="43.41814" lon="6.13669">
        <ele>217</ele>
        <time>2013-10-26T14:17:26Z</time>
      </trkpt>
      <trkpt lat="43.41822" lon="6.13658">
        <ele>216</ele>
        <time>2013-10-26T14:17:28Z</time>
      </trkpt>
      <trkpt lat="43.41829" lon="6.13647">
        <ele>215.19999694824</ele>
        <time>2013-10-26T14:17:30Z</time>
      </trkpt>
      <trkpt lat="43.4183" lon="6.13631">
        <ele>215.19999694824</ele>
        <time>2013-10-26T14:17:32Z</time>
      </trkpt>
      <trkpt lat="43.41834" lon="6.1361">
        <ele>215.19999694824</ele>
        <time>2013-10-26T14:17:35Z</time>
      </trkpt>
      <trkpt lat="43.4184" lon="6.13597">
        <ele>214.80000305176</ele>
        <time>2013-10-26T14:17:37Z</time>
      </trkpt>
      <trkpt lat="43.41843" lon="6.13591">
        <ele>214.39999389648</ele>
        <time>2013-10-26T14:17:38Z</time>
      </trkpt>
      <trkpt lat="43.41846" lon="6.13586">
        <ele>213.80000305176</ele>
        <time>2013-10-26T14:17:39Z</time>
      </trkpt>
      <trkpt lat="43.41853" lon="6.13576">
        <ele>213</ele>
        <time>2013-10-26T14:17:41Z</time>
      </trkpt>
      <trkpt lat="43.4186" lon="6.13564">
        <ele>213</ele>
        <time>2013-10-26T14:17:44Z</time>
      </trkpt>
      <trkpt lat="43.41863" lon="6.13544">
        <ele>213</ele>
        <time>2013-10-26T14:17:47Z</time>
      </trkpt>
      <trkpt lat="43.41869" lon="6.13516">
        <ele>213</ele>
        <time>2013-10-26T14:17:51Z</time>
      </trkpt>
      <trkpt lat="43.41873" lon="6.13495">
        <ele>213</ele>
        <time>2013-10-26T14:17:54Z</time>
      </trkpt>
      <trkpt lat="43.41882" lon="6.13459">
        <ele>213</ele>
        <time>2013-10-26T14:17:59Z</time>
      </trkpt>
      <trkpt lat="43.41888" lon="6.13437">
        <ele>213</ele>
        <time>2013-10-26T14:18:02Z</time>
      </trkpt>
      <trkpt lat="43.41891" lon="6.13404">
        <ele>212.60000610352</ele>
        <time>2013-10-26T14:18:06Z</time>
      </trkpt>
      <trkpt lat="43.41893" lon="6.1339">
        <ele>211.60000610352</ele>
        <time>2013-10-26T14:18:08Z</time>
      </trkpt>
      <trkpt lat="43.41894" lon="6.13383">
        <ele>211.19999694824</ele>
        <time>2013-10-26T14:18:09Z</time>
      </trkpt>
      <trkpt lat="43.41894" lon="6.13375">
        <ele>210.80000305176</ele>
        <time>2013-10-26T14:18:10Z</time>
      </trkpt>
      <trkpt lat="43.41882" lon="6.13318">
        <ele>210.80000305176</ele>
        <time>2013-10-26T14:18:19Z</time>
      </trkpt>
      <trkpt lat="43.41885" lon="6.13297">
        <ele>210.80000305176</ele>
        <time>2013-10-26T14:18:23Z</time>
      </trkpt>
      <trkpt lat="43.4188" lon="6.1328">
        <ele>210.80000305176</ele>
        <time>2013-10-26T14:18:26Z</time>
      </trkpt>
      <trkpt lat="43.41877" lon="6.13274">
        <ele>210.80000305176</ele>
        <time>2013-10-26T14:18:27Z</time>
      </trkpt>
      <trkpt lat="43.41877" lon="6.13263">
        <ele>210.80000305176</ele>
        <time>2013-10-26T14:18:29Z</time>
      </trkpt>
      <trkpt lat="43.41884" lon="6.13237">
        <ele>210.80000305176</ele>
        <time>2013-10-26T14:18:34Z</time>
      </trkpt>
      <trkpt lat="43.41885" lon="6.13231">
        <ele>210.80000305176</ele>
        <time>2013-10-26T14:18:35Z</time>
      </trkpt>
      <trkpt lat="43.41889" lon="6.13192">
        <ele>210.80000305176</ele>
        <time>2013-10-26T14:18:42Z</time>
      </trkpt>
      <trkpt lat="43.4189" lon="6.13185">
        <ele>210.80000305176</ele>
        <time>2013-10-26T14:18:43Z</time>
      </trkpt>
      <trkpt lat="43.41888" lon="6.13138">
        <ele>210</ele>
        <time>2013-10-26T14:18:50Z</time>
      </trkpt>
      <trkpt lat="43.41888" lon="6.13126">
        <ele>209</ele>
        <time>2013-10-26T14:18:52Z</time>
      </trkpt>
      <trkpt lat="43.41887" lon="6.13086">
        <ele>208.60000610352</ele>
        <time>2013-10-26T14:18:58Z</time>
      </trkpt>
      <trkpt lat="43.41887" lon="6.1308">
        <ele>208.60000610352</ele>
        <time>2013-10-26T14:18:59Z</time>
      </trkpt>
      <trkpt lat="43.41891" lon="6.13056">
        <ele>208.60000610352</ele>
        <time>2013-10-26T14:19:04Z</time>
      </trkpt>
      <trkpt lat="43.41897" lon="6.13038">
        <ele>208.60000610352</ele>
        <time>2013-10-26T14:19:07Z</time>
      </trkpt>
      <trkpt lat="43.41899" lon="6.13025">
        <ele>208.60000610352</ele>
        <time>2013-10-26T14:19:09Z</time>
      </trkpt>
      <trkpt lat="43.41903" lon="6.1301">
        <ele>207.80000305176</ele>
        <time>2013-10-26T14:19:11Z</time>
      </trkpt>
      <trkpt lat="43.41904" lon="6.12988">
        <ele>206.39999389648</ele>
        <time>2013-10-26T14:19:14Z</time>
      </trkpt>
      <trkpt lat="43.41911" lon="6.12958">
        <ele>205.60000610352</ele>
        <time>2013-10-26T14:19:19Z</time>
      </trkpt>
      <trkpt lat="43.41912" lon="6.12947">
        <ele>204.60000610352</ele>
        <time>2013-10-26T14:19:21Z</time>
      </trkpt>
      <trkpt lat="43.41912" lon="6.12935">
        <ele>204.19999694824</ele>
        <time>2013-10-26T14:19:23Z</time>
      </trkpt>
      <trkpt lat="43.41914" lon="6.12914">
        <ele>204.19999694824</ele>
        <time>2013-10-26T14:19:26Z</time>
      </trkpt>
      <trkpt lat="43.41916" lon="6.12865">
        <ele>204.19999694824</ele>
        <time>2013-10-26T14:19:32Z</time>
      </trkpt>
      <trkpt lat="43.4192" lon="6.12826">
        <ele>203.80000305176</ele>
        <time>2013-10-26T14:19:37Z</time>
      </trkpt>
      <trkpt lat="43.41919" lon="6.12818">
        <ele>203.39999389648</ele>
        <time>2013-10-26T14:19:38Z</time>
      </trkpt>
      <trkpt lat="43.41918" lon="6.12804">
        <ele>202.60000610352</ele>
        <time>2013-10-26T14:19:40Z</time>
      </trkpt>
      <trkpt lat="43.41918" lon="6.12789">
        <ele>202.19999694824</ele>
        <time>2013-10-26T14:19:42Z</time>
      </trkpt>
      <trkpt lat="43.4192" lon="6.12731">
        <ele>202.19999694824</ele>
        <time>2013-10-26T14:19:50Z</time>
      </trkpt>
      <trkpt lat="43.41922" lon="6.12724">
        <ele>202.19999694824</ele>
        <time>2013-10-26T14:19:51Z</time>
      </trkpt>
      <trkpt lat="43.41928" lon="6.12708">
        <ele>202.19999694824</ele>
        <time>2013-10-26T14:19:54Z</time>
      </trkpt>
      <trkpt lat="43.41933" lon="6.12698">
        <ele>202.19999694824</ele>
        <time>2013-10-26T14:19:56Z</time>
      </trkpt>
      <trkpt lat="43.41941" lon="6.12667">
        <ele>202.19999694824</ele>
        <time>2013-10-26T14:20:01Z</time>
      </trkpt>
      <trkpt lat="43.41949" lon="6.12647">
        <ele>202.19999694824</ele>
        <time>2013-10-26T14:20:04Z</time>
      </trkpt>
      <trkpt lat="43.41964" lon="6.12607">
        <ele>202.19999694824</ele>
        <time>2013-10-26T14:20:11Z</time>
      </trkpt>
      <trkpt lat="43.41971" lon="6.12592">
        <ele>202.19999694824</ele>
        <time>2013-10-26T14:20:14Z</time>
      </trkpt>
      <trkpt lat="43.41973" lon="6.12579">
        <ele>202.19999694824</ele>
        <time>2013-10-26T14:20:16Z</time>
      </trkpt>
      <trkpt lat="43.41974" lon="6.12566">
        <ele>201.80000305176</ele>
        <time>2013-10-26T14:20:18Z</time>
      </trkpt>
      <trkpt lat="43.41976" lon="6.12554">
        <ele>200.80000305176</ele>
        <time>2013-10-26T14:20:20Z</time>
      </trkpt>
      <trkpt lat="43.41993" lon="6.12526">
        <ele>200</ele>
        <time>2013-10-26T14:20:26Z</time>
      </trkpt>
      <trkpt lat="43.41996" lon="6.12521">
        <ele>200</ele>
        <time>2013-10-26T14:20:27Z</time>
      </trkpt>
      <trkpt lat="43.42006" lon="6.12501">
        <ele>200</ele>
        <time>2013-10-26T14:20:32Z</time>
      </trkpt>
      <trkpt lat="43.42008" lon="6.12496">
        <ele>200</ele>
        <time>2013-10-26T14:20:33Z</time>
      </trkpt>
      <trkpt lat="43.42014" lon="6.1247">
        <ele>200</ele>
        <time>2013-10-26T14:20:37Z</time>
      </trkpt>
      <trkpt lat="43.42015" lon="6.12462">
        <ele>200</ele>
        <time>2013-10-26T14:20:38Z</time>
      </trkpt>
      <trkpt lat="43.42019" lon="6.12449">
        <ele>200</ele>
        <time>2013-10-26T14:20:40Z</time>
      </trkpt>
      <trkpt lat="43.42022" lon="6.12443">
        <ele>199.60000610352</ele>
        <time>2013-10-26T14:20:41Z</time>
      </trkpt>
      <trkpt lat="43.42024" lon="6.1244">
        <ele>199.19999694824</ele>
        <time>2013-10-26T14:20:42Z</time>
      </trkpt>
      <trkpt lat="43.42025" lon="6.12437">
        <ele>198.80000305176</ele>
        <time>2013-10-26T14:20:43Z</time>
      </trkpt>
      <trkpt lat="43.42025" lon="6.12436">
        <ele>198.39999389648</ele>
        <time>2013-10-26T14:20:44Z</time>
      </trkpt>
      <trkpt lat="43.42025" lon="6.12435">
        <ele>198</ele>
        <time>2013-10-26T14:20:45Z</time>
      </trkpt>
      <trkpt lat="43.42024" lon="6.12435">
        <ele>198</ele>
        <time>2013-10-26T14:20:51Z</time>
      </trkpt>
      <trkpt lat="43.42024" lon="6.12435">
        <ele>198</ele>
        <time>2013-10-26T14:21:16Z</time>
      </trkpt>
      <trkpt lat="43.42024" lon="6.12435">
        <ele>198</ele>
        <time>2013-10-26T14:23:34Z</time>
      </trkpt>
      <trkpt lat="43.42024" lon="6.12434">
        <ele>198</ele>
        <time>2013-10-26T14:24:10Z</time>
      </trkpt>
      <trkpt lat="43.42024" lon="6.12434">
        <ele>198</ele>
        <time>2013-10-26T14:24:14Z</time>
      </trkpt>
      <trkpt lat="43.42024" lon="6.12434">
        <ele>198</ele>
        <time>2013-10-26T14:24:32Z</time>
      </trkpt>
      <trkpt lat="43.42027" lon="6.12431">
        <ele>198</ele>
        <time>2013-10-26T14:24:35Z</time>
      </trkpt>
      <trkpt lat="43.4203" lon="6.12427">
        <ele>198</ele>
        <time>2013-10-26T14:24:37Z</time>
      </trkpt>
      <trkpt lat="43.42036" lon="6.1241">
        <ele>198</ele>
        <time>2013-10-26T14:24:43Z</time>
      </trkpt>
      <trkpt lat="43.42041" lon="6.12402">
        <ele>197</ele>
        <time>2013-10-26T14:24:46Z</time>
      </trkpt>
      <trkpt lat="43.42045" lon="6.12396">
        <ele>196.19999694824</ele>
        <time>2013-10-26T14:24:48Z</time>
      </trkpt>
      <trkpt lat="43.42048" lon="6.12393">
        <ele>195.80000305176</ele>
        <time>2013-10-26T14:24:49Z</time>
      </trkpt>
      <trkpt lat="43.42059" lon="6.12375">
        <ele>195.80000305176</ele>
        <time>2013-10-26T14:24:53Z</time>
      </trkpt>
      <trkpt lat="43.42078" lon="6.12346">
        <ele>195.80000305176</ele>
        <time>2013-10-26T14:24:59Z</time>
      </trkpt>
      <trkpt lat="43.4208" lon="6.12328">
        <ele>195.80000305176</ele>
        <time>2013-10-26T14:25:03Z</time>
      </trkpt>
      <trkpt lat="43.42071" lon="6.12323">
        <ele>195.80000305176</ele>
        <time>2013-10-26T14:25:06Z</time>
      </trkpt>
      <trkpt lat="43.42056" lon="6.1231">
        <ele>195.80000305176</ele>
        <time>2013-10-26T14:25:11Z</time>
      </trkpt>
      <trkpt lat="43.42049" lon="6.12293">
        <ele>195.80000305176</ele>
        <time>2013-10-26T14:25:15Z</time>
      </trkpt>
      <trkpt lat="43.42041" lon="6.1227">
        <ele>195.80000305176</ele>
        <time>2013-10-26T14:25:20Z</time>
      </trkpt>
      <trkpt lat="43.42036" lon="6.12242">
        <ele>195.80000305176</ele>
        <time>2013-10-26T14:25:26Z</time>
      </trkpt>
      <trkpt lat="43.42039" lon="6.12216">
        <ele>195.80000305176</ele>
        <time>2013-10-26T14:25:32Z</time>
      </trkpt>
      <trkpt lat="43.42043" lon="6.12199">
        <ele>195.80000305176</ele>
        <time>2013-10-26T14:25:37Z</time>
      </trkpt>
      <trkpt lat="43.42044" lon="6.1219">
        <ele>195.80000305176</ele>
        <time>2013-10-26T14:25:41Z</time>
      </trkpt>
      <trkpt lat="43.42045" lon="6.12184">
        <ele>195.80000305176</ele>
        <time>2013-10-26T14:25:44Z</time>
      </trkpt>
      <trkpt lat="43.42046" lon="6.12174">
        <ele>195.80000305176</ele>
        <time>2013-10-26T14:25:49Z</time>
      </trkpt>
      <trkpt lat="43.42049" lon="6.12153">
        <ele>195.80000305176</ele>
        <time>2013-10-26T14:25:56Z</time>
      </trkpt>
      <trkpt lat="43.42047" lon="6.12134">
        <ele>195.80000305176</ele>
        <time>2013-10-26T14:26:01Z</time>
      </trkpt>
      <trkpt lat="43.42045" lon="6.12111">
        <ele>195.80000305176</ele>
        <time>2013-10-26T14:26:08Z</time>
      </trkpt>
      <trkpt lat="43.42042" lon="6.12091">
        <ele>195.80000305176</ele>
        <time>2013-10-26T14:26:15Z</time>
      </trkpt>
      <trkpt lat="43.42037" lon="6.12068">
        <ele>195.80000305176</ele>
        <time>2013-10-26T14:26:21Z</time>
      </trkpt>
      <trkpt lat="43.4203" lon="6.12046">
        <ele>195.80000305176</ele>
        <time>2013-10-26T14:26:25Z</time>
      </trkpt>
      <trkpt lat="43.42027" lon="6.12041">
        <ele>195.80000305176</ele>
        <time>2013-10-26T14:26:26Z</time>
      </trkpt>
      <trkpt lat="43.42015" lon="6.12022">
        <ele>195.80000305176</ele>
        <time>2013-10-26T14:26:30Z</time>
      </trkpt>
      <trkpt lat="43.42009" lon="6.12015">
        <ele>195.80000305176</ele>
        <time>2013-10-26T14:26:32Z</time>
      </trkpt>
      <trkpt lat="43.42001" lon="6.11998">
        <ele>195.80000305176</ele>
        <time>2013-10-26T14:26:37Z</time>
      </trkpt>
      <trkpt lat="43.42" lon="6.11992">
        <ele>195.80000305176</ele>
        <time>2013-10-26T14:26:39Z</time>
      </trkpt>
      <trkpt lat="43.42001" lon="6.11979">
        <ele>195.80000305176</ele>
        <time>2013-10-26T14:26:42Z</time>
      </trkpt>
      <trkpt lat="43.42005" lon="6.11947">
        <ele>195.80000305176</ele>
        <time>2013-10-26T14:26:48Z</time>
      </trkpt>
      <trkpt lat="43.4201" lon="6.11911">
        <ele>195.80000305176</ele>
        <time>2013-10-26T14:26:54Z</time>
      </trkpt>
      <trkpt lat="43.42012" lon="6.11878">
        <ele>195.80000305176</ele>
        <time>2013-10-26T14:26:59Z</time>
      </trkpt>
      <trkpt lat="43.42017" lon="6.11802">
        <ele>195</ele>
        <time>2013-10-26T14:27:10Z</time>
      </trkpt>
      <trkpt lat="43.4202" lon="6.11751">
        <ele>193.80000305176</ele>
        <time>2013-10-26T14:27:17Z</time>
      </trkpt>
      <trkpt lat="43.42019" lon="6.11718">
        <ele>193.80000305176</ele>
        <time>2013-10-26T14:27:21Z</time>
      </trkpt>
      <trkpt lat="43.42016" lon="6.11694">
        <ele>193.80000305176</ele>
        <time>2013-10-26T14:27:24Z</time>
      </trkpt>
      <trkpt lat="43.42014" lon="6.11666">
        <ele>193.80000305176</ele>
        <time>2013-10-26T14:27:27Z</time>
      </trkpt>
      <trkpt lat="43.42012" lon="6.1165">
        <ele>193.80000305176</ele>
        <time>2013-10-26T14:27:29Z</time>
      </trkpt>
      <trkpt lat="43.42006" lon="6.11609">
        <ele>193.80000305176</ele>
        <time>2013-10-26T14:27:34Z</time>
      </trkpt>
      <trkpt lat="43.42002" lon="6.11586">
        <ele>193.80000305176</ele>
        <time>2013-10-26T14:27:37Z</time>
      </trkpt>
      <trkpt lat="43.41998" lon="6.11563">
        <ele>193.80000305176</ele>
        <time>2013-10-26T14:27:40Z</time>
      </trkpt>
      <trkpt lat="43.42" lon="6.11526">
        <ele>193.80000305176</ele>
        <time>2013-10-26T14:27:45Z</time>
      </trkpt>
      <trkpt lat="43.42013" lon="6.11514">
        <ele>193.80000305176</ele>
        <time>2013-10-26T14:27:48Z</time>
      </trkpt>
      <trkpt lat="43.42019" lon="6.1151">
        <ele>193.80000305176</ele>
        <time>2013-10-26T14:27:49Z</time>
      </trkpt>
      <trkpt lat="43.42043" lon="6.11493">
        <ele>193.80000305176</ele>
        <time>2013-10-26T14:27:54Z</time>
      </trkpt>
      <trkpt lat="43.42053" lon="6.11479">
        <ele>193.80000305176</ele>
        <time>2013-10-26T14:27:58Z</time>
      </trkpt>
      <trkpt lat="43.42062" lon="6.11468">
        <ele>193.80000305176</ele>
        <time>2013-10-26T14:28:01Z</time>
      </trkpt>
      <trkpt lat="43.42067" lon="6.11459">
        <ele>193.80000305176</ele>
        <time>2013-10-26T14:28:03Z</time>
      </trkpt>
      <trkpt lat="43.42076" lon="6.11431">
        <ele>193.80000305176</ele>
        <time>2013-10-26T14:28:09Z</time>
      </trkpt>
      <trkpt lat="43.42075" lon="6.1142">
        <ele>193.80000305176</ele>
        <time>2013-10-26T14:28:14Z</time>
      </trkpt>
      <trkpt lat="43.42075" lon="6.11416">
        <ele>193.80000305176</ele>
        <time>2013-10-26T14:28:19Z</time>
      </trkpt>
      <trkpt lat="43.42075" lon="6.11416">
        <ele>193.80000305176</ele>
        <time>2013-10-26T14:28:38Z</time>
      </trkpt>
      <trkpt lat="43.42075" lon="6.11416">
        <ele>193.80000305176</ele>
        <time>2013-10-26T14:28:58Z</time>
      </trkpt>
      <trkpt lat="43.42075" lon="6.1141">
        <ele>193.80000305176</ele>
        <time>2013-10-26T14:29:02Z</time>
      </trkpt>
      <trkpt lat="43.42075" lon="6.11408">
        <ele>193.80000305176</ele>
        <time>2013-10-26T14:29:03Z</time>
      </trkpt>
      <trkpt lat="43.4207" lon="6.11392">
        <ele>193.80000305176</ele>
        <time>2013-10-26T14:29:07Z</time>
      </trkpt>
      <trkpt lat="43.42057" lon="6.11367">
        <ele>193.80000305176</ele>
        <time>2013-10-26T14:29:13Z</time>
      </trkpt>
      <trkpt lat="43.42041" lon="6.11338">
        <ele>193.80000305176</ele>
        <time>2013-10-26T14:29:19Z</time>
      </trkpt>
      <trkpt lat="43.42016" lon="6.11295">
        <ele>193.80000305176</ele>
        <time>2013-10-26T14:29:28Z</time>
      </trkpt>
      <trkpt lat="43.42013" lon="6.11291">
        <ele>193.80000305176</ele>
        <time>2013-10-26T14:29:29Z</time>
      </trkpt>
      <trkpt lat="43.41977" lon="6.11241">
        <ele>193.80000305176</ele>
        <time>2013-10-26T14:29:39Z</time>
      </trkpt>
      <trkpt lat="43.41961" lon="6.11219">
        <ele>193.80000305176</ele>
        <time>2013-10-26T14:29:43Z</time>
      </trkpt>
      <trkpt lat="43.41957" lon="6.11213">
        <ele>193.80000305176</ele>
        <time>2013-10-26T14:29:44Z</time>
      </trkpt>
      <trkpt lat="43.41934" lon="6.11169">
        <ele>193.80000305176</ele>
        <time>2013-10-26T14:29:51Z</time>
      </trkpt>
      <trkpt lat="43.41921" lon="6.11127">
        <ele>193.80000305176</ele>
        <time>2013-10-26T14:29:57Z</time>
      </trkpt>
      <trkpt lat="43.41919" lon="6.11112">
        <ele>193.80000305176</ele>
        <time>2013-10-26T14:29:59Z</time>
      </trkpt>
      <trkpt lat="43.41924" lon="6.11044">
        <ele>193.80000305176</ele>
        <time>2013-10-26T14:30:08Z</time>
      </trkpt>
      <trkpt lat="43.41926" lon="6.11006">
        <ele>193.80000305176</ele>
        <time>2013-10-26T14:30:13Z</time>
      </trkpt>
      <trkpt lat="43.41923" lon="6.10971">
        <ele>194.19999694824</ele>
        <time>2013-10-26T14:30:18Z</time>
      </trkpt>
      <trkpt lat="43.41919" lon="6.10951">
        <ele>195.39999389648</ele>
        <time>2013-10-26T14:30:21Z</time>
      </trkpt>
      <trkpt lat="43.41916" lon="6.10938">
        <ele>195.80000305176</ele>
        <time>2013-10-26T14:30:23Z</time>
      </trkpt>
      <trkpt lat="43.41905" lon="6.10879">
        <ele>195.80000305176</ele>
        <time>2013-10-26T14:30:31Z</time>
      </trkpt>
      <trkpt lat="43.41906" lon="6.10846">
        <ele>195.80000305176</ele>
        <time>2013-10-26T14:30:35Z</time>
      </trkpt>
      <trkpt lat="43.41913" lon="6.1079">
        <ele>195.80000305176</ele>
        <time>2013-10-26T14:30:42Z</time>
      </trkpt>
      <trkpt lat="43.41915" lon="6.1077">
        <ele>195.80000305176</ele>
        <time>2013-10-26T14:30:45Z</time>
      </trkpt>
      <trkpt lat="43.41918" lon="6.10751">
        <ele>195.80000305176</ele>
        <time>2013-10-26T14:30:48Z</time>
      </trkpt>
      <trkpt lat="43.41924" lon="6.10724">
        <ele>195.80000305176</ele>
        <time>2013-10-26T14:30:52Z</time>
      </trkpt>
      <trkpt lat="43.41926" lon="6.10718">
        <ele>195.80000305176</ele>
        <time>2013-10-26T14:30:53Z</time>
      </trkpt>
      <trkpt lat="43.41941" lon="6.10674">
        <ele>195.80000305176</ele>
        <time>2013-10-26T14:31:00Z</time>
      </trkpt>
      <trkpt lat="43.41962" lon="6.10612">
        <ele>195.80000305176</ele>
        <time>2013-10-26T14:31:09Z</time>
      </trkpt>
      <trkpt lat="43.4198" lon="6.10559">
        <ele>195.80000305176</ele>
        <time>2013-10-26T14:31:17Z</time>
      </trkpt>
      <trkpt lat="43.41988" lon="6.1053">
        <ele>195.80000305176</ele>
        <time>2013-10-26T14:31:22Z</time>
      </trkpt>
      <trkpt lat="43.41988" lon="6.10523">
        <ele>195.80000305176</ele>
        <time>2013-10-26T14:31:23Z</time>
      </trkpt>
      <trkpt lat="43.4199" lon="6.10504">
        <ele>197</ele>
        <time>2013-10-26T14:31:26Z</time>
      </trkpt>
      <trkpt lat="43.4199" lon="6.1049">
        <ele>197.80000305176</ele>
        <time>2013-10-26T14:31:28Z</time>
      </trkpt>
      <trkpt lat="43.41993" lon="6.10413">
        <ele>197.80000305176</ele>
        <time>2013-10-26T14:31:39Z</time>
      </trkpt>
      <trkpt lat="43.42001" lon="6.10355">
        <ele>197.80000305176</ele>
        <time>2013-10-26T14:31:47Z</time>
      </trkpt>
      <trkpt lat="43.42009" lon="6.10309">
        <ele>197.80000305176</ele>
        <time>2013-10-26T14:31:54Z</time>
      </trkpt>
      <trkpt lat="43.42014" lon="6.10265">
        <ele>197.80000305176</ele>
        <time>2013-10-26T14:32:01Z</time>
      </trkpt>
      <trkpt lat="43.4202" lon="6.10235">
        <ele>197.80000305176</ele>
        <time>2013-10-26T14:32:06Z</time>
      </trkpt>
      <trkpt lat="43.42023" lon="6.10217">
        <ele>199</ele>
        <time>2013-10-26T14:32:09Z</time>
      </trkpt>
      <trkpt lat="43.42026" lon="6.10179">
        <ele>199.80000305176</ele>
        <time>2013-10-26T14:32:15Z</time>
      </trkpt>
      <trkpt lat="43.42031" lon="6.10134">
        <ele>199.80000305176</ele>
        <time>2013-10-26T14:32:22Z</time>
      </trkpt>
      <trkpt lat="43.42039" lon="6.10075">
        <ele>199.80000305176</ele>
        <time>2013-10-26T14:32:31Z</time>
      </trkpt>
      <trkpt lat="43.42047" lon="6.1003">
        <ele>199.80000305176</ele>
        <time>2013-10-26T14:32:38Z</time>
      </trkpt>
      <trkpt lat="43.42054" lon="6.0999">
        <ele>199.80000305176</ele>
        <time>2013-10-26T14:32:44Z</time>
      </trkpt>
      <trkpt lat="43.42058" lon="6.09975">
        <ele>199.80000305176</ele>
        <time>2013-10-26T14:32:46Z</time>
      </trkpt>
      <trkpt lat="43.42075" lon="6.09918">
        <ele>199.80000305176</ele>
        <time>2013-10-26T14:32:54Z</time>
      </trkpt>
      <trkpt lat="43.4208" lon="6.09904">
        <ele>199.80000305176</ele>
        <time>2013-10-26T14:32:56Z</time>
      </trkpt>
      <trkpt lat="43.42089" lon="6.09877">
        <ele>199.80000305176</ele>
        <time>2013-10-26T14:33:00Z</time>
      </trkpt>
      <trkpt lat="43.42094" lon="6.09839">
        <ele>199.80000305176</ele>
        <time>2013-10-26T14:33:05Z</time>
      </trkpt>
      <trkpt lat="43.42092" lon="6.09792">
        <ele>199.80000305176</ele>
        <time>2013-10-26T14:33:11Z</time>
      </trkpt>
      <trkpt lat="43.42082" lon="6.09747">
        <ele>199.80000305176</ele>
        <time>2013-10-26T14:33:17Z</time>
      </trkpt>
      <trkpt lat="43.42077" lon="6.09735">
        <ele>199.80000305176</ele>
        <time>2013-10-26T14:33:19Z</time>
      </trkpt>
      <trkpt lat="43.4206" lon="6.09707">
        <ele>199.80000305176</ele>
        <time>2013-10-26T14:33:24Z</time>
      </trkpt>
      <trkpt lat="43.42043" lon="6.09689">
        <ele>199.80000305176</ele>
        <time>2013-10-26T14:33:28Z</time>
      </trkpt>
      <trkpt lat="43.4203" lon="6.09679">
        <ele>199.80000305176</ele>
        <time>2013-10-26T14:33:31Z</time>
      </trkpt>
      <trkpt lat="43.42016" lon="6.09671">
        <ele>199.80000305176</ele>
        <time>2013-10-26T14:33:34Z</time>
      </trkpt>
      <trkpt lat="43.41985" lon="6.09661">
        <ele>199.80000305176</ele>
        <time>2013-10-26T14:33:40Z</time>
      </trkpt>
      <trkpt lat="43.41963" lon="6.09651">
        <ele>199.80000305176</ele>
        <time>2013-10-26T14:33:45Z</time>
      </trkpt>
      <trkpt lat="43.4194" lon="6.09651">
        <ele>199.80000305176</ele>
        <time>2013-10-26T14:33:49Z</time>
      </trkpt>
      <trkpt lat="43.41929" lon="6.0965">
        <ele>199.80000305176</ele>
        <time>2013-10-26T14:33:51Z</time>
      </trkpt>
      <trkpt lat="43.41892" lon="6.09647">
        <ele>199.80000305176</ele>
        <time>2013-10-26T14:33:58Z</time>
      </trkpt>
      <trkpt lat="43.41856" lon="6.09646">
        <ele>199.80000305176</ele>
        <time>2013-10-26T14:34:05Z</time>
      </trkpt>
      <trkpt lat="43.4184" lon="6.09642">
        <ele>199.80000305176</ele>
        <time>2013-10-26T14:34:08Z</time>
      </trkpt>
      <trkpt lat="43.41824" lon="6.09633">
        <ele>199.80000305176</ele>
        <time>2013-10-26T14:34:11Z</time>
      </trkpt>
      <trkpt lat="43.41809" lon="6.09612">
        <ele>199.80000305176</ele>
        <time>2013-10-26T14:34:15Z</time>
      </trkpt>
      <trkpt lat="43.41773" lon="6.09537">
        <ele>199.80000305176</ele>
        <time>2013-10-26T14:34:26Z</time>
      </trkpt>
      <trkpt lat="43.41768" lon="6.09521">
        <ele>199.80000305176</ele>
        <time>2013-10-26T14:34:28Z</time>
      </trkpt>
      <trkpt lat="43.41765" lon="6.09513">
        <ele>199.80000305176</ele>
        <time>2013-10-26T14:34:29Z</time>
      </trkpt>
      <trkpt lat="43.41752" lon="6.0946">
        <ele>199.80000305176</ele>
        <time>2013-10-26T14:34:36Z</time>
      </trkpt>
      <trkpt lat="43.41738" lon="6.09397">
        <ele>199.80000305176</ele>
        <time>2013-10-26T14:34:44Z</time>
      </trkpt>
      <trkpt lat="43.41736" lon="6.09389">
        <ele>199.80000305176</ele>
        <time>2013-10-26T14:34:45Z</time>
      </trkpt>
      <trkpt lat="43.41724" lon="6.09336">
        <ele>199.80000305176</ele>
        <time>2013-10-26T14:34:52Z</time>
      </trkpt>
      <trkpt lat="43.41722" lon="6.09313">
        <ele>199.80000305176</ele>
        <time>2013-10-26T14:34:55Z</time>
      </trkpt>
      <trkpt lat="43.41716" lon="6.09306">
        <ele>199.80000305176</ele>
        <time>2013-10-26T14:34:57Z</time>
      </trkpt>
      <trkpt lat="43.41712" lon="6.09306">
        <ele>199.80000305176</ele>
        <time>2013-10-26T14:34:59Z</time>
      </trkpt>
      <trkpt lat="43.41711" lon="6.09306">
        <ele>199.80000305176</ele>
        <time>2013-10-26T14:35:00Z</time>
      </trkpt>
      <trkpt lat="43.41708" lon="6.09308">
        <ele>199.80000305176</ele>
        <time>2013-10-26T14:35:03Z</time>
      </trkpt>
      <trkpt lat="43.41708" lon="6.09308">
        <ele>199.80000305176</ele>
        <time>2013-10-26T14:35:06Z</time>
      </trkpt>
      <trkpt lat="43.41707" lon="6.09309">
        <ele>199.80000305176</ele>
        <time>2013-10-26T14:35:12Z</time>
      </trkpt>
      <trkpt lat="43.41707" lon="6.0931">
        <ele>199.80000305176</ele>
        <time>2013-10-26T14:35:17Z</time>
      </trkpt>
      <trkpt lat="43.41707" lon="6.0931">
        <ele>199.80000305176</ele>
        <time>2013-10-26T14:35:20Z</time>
      </trkpt>
      <trkpt lat="43.41706" lon="6.0931">
        <ele>199.80000305176</ele>
        <time>2013-10-26T14:35:29Z</time>
      </trkpt>
      <trkpt lat="43.41703" lon="6.09308">
        <ele>199.80000305176</ele>
        <time>2013-10-26T14:35:36Z</time>
      </trkpt>
      <trkpt lat="43.41699" lon="6.09307">
        <ele>199.80000305176</ele>
        <time>2013-10-26T14:35:39Z</time>
      </trkpt>
      <trkpt lat="43.41697" lon="6.09307">
        <ele>199.80000305176</ele>
        <time>2013-10-26T14:35:41Z</time>
      </trkpt>
      <trkpt lat="43.41696" lon="6.09308">
        <ele>199.80000305176</ele>
        <time>2013-10-26T14:35:42Z</time>
      </trkpt>
      <trkpt lat="43.41689" lon="6.09309">
        <ele>199.80000305176</ele>
        <time>2013-10-26T14:35:47Z</time>
      </trkpt>
      <trkpt lat="43.41687" lon="6.0931">
        <ele>199.80000305176</ele>
        <time>2013-10-26T14:35:48Z</time>
      </trkpt>
      <trkpt lat="43.41673" lon="6.09311">
        <ele>199.80000305176</ele>
        <time>2013-10-26T14:35:54Z</time>
      </trkpt>
      <trkpt lat="43.41658" lon="6.09315">
        <ele>199.80000305176</ele>
        <time>2013-10-26T14:36:00Z</time>
      </trkpt>
      <trkpt lat="43.4164" lon="6.0932">
        <ele>199.80000305176</ele>
        <time>2013-10-26T14:36:06Z</time>
      </trkpt>
      <trkpt lat="43.41618" lon="6.09327">
        <ele>199.80000305176</ele>
        <time>2013-10-26T14:36:14Z</time>
      </trkpt>
      <trkpt lat="43.41606" lon="6.0933">
        <ele>199.80000305176</ele>
        <time>2013-10-26T14:36:20Z</time>
      </trkpt>
      <trkpt lat="43.41598" lon="6.09332">
        <ele>199.80000305176</ele>
        <time>2013-10-26T14:36:25Z</time>
      </trkpt>
      <trkpt lat="43.41592" lon="6.09326">
        <ele>199.80000305176</ele>
        <time>2013-10-26T14:36:31Z</time>
      </trkpt>
      <trkpt lat="43.41591" lon="6.09319">
        <ele>199.80000305176</ele>
        <time>2013-10-26T14:36:34Z</time>
      </trkpt>
      <trkpt lat="43.41589" lon="6.09307">
        <ele>199.80000305176</ele>
        <time>2013-10-26T14:36:40Z</time>
      </trkpt>
      <trkpt lat="43.41589" lon="6.093">
        <ele>199.80000305176</ele>
        <time>2013-10-26T14:36:42Z</time>
      </trkpt>
      <trkpt lat="43.41589" lon="6.09283">
        <ele>199.80000305176</ele>
        <time>2013-10-26T14:36:47Z</time>
      </trkpt>
      <trkpt lat="43.41591" lon="6.09267">
        <ele>199.80000305176</ele>
        <time>2013-10-26T14:36:52Z</time>
      </trkpt>
      <trkpt lat="43.41592" lon="6.09252">
        <ele>199.80000305176</ele>
        <time>2013-10-26T14:36:57Z</time>
      </trkpt>
      <trkpt lat="43.4159" lon="6.09244">
        <ele>199.80000305176</ele>
        <time>2013-10-26T14:36:59Z</time>
      </trkpt>
      <trkpt lat="43.41592" lon="6.09237">
        <ele>200.60000610352</ele>
        <time>2013-10-26T14:37:01Z</time>
      </trkpt>
      <trkpt lat="43.41593" lon="6.09227">
        <ele>202</ele>
        <time>2013-10-26T14:37:04Z</time>
      </trkpt>
      <trkpt lat="43.41595" lon="6.09212">
        <ele>202</ele>
        <time>2013-10-26T14:37:09Z</time>
      </trkpt>
      <trkpt lat="43.41597" lon="6.09188">
        <ele>202</ele>
        <time>2013-10-26T14:37:15Z</time>
      </trkpt>
      <trkpt lat="43.41597" lon="6.09178">
        <ele>202</ele>
        <time>2013-10-26T14:37:18Z</time>
      </trkpt>
      <trkpt lat="43.41597" lon="6.09169">
        <ele>202</ele>
        <time>2013-10-26T14:37:20Z</time>
      </trkpt>
      <trkpt lat="43.41595" lon="6.09142">
        <ele>202</ele>
        <time>2013-10-26T14:37:30Z</time>
      </trkpt>
      <trkpt lat="43.41595" lon="6.09137">
        <ele>202</ele>
        <time>2013-10-26T14:37:32Z</time>
      </trkpt>
      <trkpt lat="43.41597" lon="6.09099">
        <ele>202</ele>
        <time>2013-10-26T14:37:43Z</time>
      </trkpt>
      <trkpt lat="43.41596" lon="6.09091">
        <ele>202</ele>
        <time>2013-10-26T14:37:45Z</time>
      </trkpt>
      <trkpt lat="43.41595" lon="6.09077">
        <ele>201.60000610352</ele>
        <time>2013-10-26T14:37:49Z</time>
      </trkpt>
      <trkpt lat="43.41593" lon="6.09057">
        <ele>199.80000305176</ele>
        <time>2013-10-26T14:37:56Z</time>
      </trkpt>
      <trkpt lat="43.41592" lon="6.09036">
        <ele>199.80000305176</ele>
        <time>2013-10-26T14:38:03Z</time>
      </trkpt>
      <trkpt lat="43.41582" lon="6.09006">
        <ele>199.80000305176</ele>
        <time>2013-10-26T14:38:16Z</time>
      </trkpt>
      <trkpt lat="43.41581" lon="6.08981">
        <ele>199.80000305176</ele>
        <time>2013-10-26T14:38:25Z</time>
      </trkpt>
      <trkpt lat="43.41582" lon="6.08977">
        <ele>199.80000305176</ele>
        <time>2013-10-26T14:38:27Z</time>
      </trkpt>
      <trkpt lat="43.41582" lon="6.08967">
        <ele>199.80000305176</ele>
        <time>2013-10-26T14:38:32Z</time>
      </trkpt>
      <trkpt lat="43.41588" lon="6.08956">
        <ele>199.80000305176</ele>
        <time>2013-10-26T14:38:37Z</time>
      </trkpt>
      <trkpt lat="43.41599" lon="6.08951">
        <ele>199.80000305176</ele>
        <time>2013-10-26T14:38:41Z</time>
      </trkpt>
      <trkpt lat="43.41605" lon="6.08949">
        <ele>199.80000305176</ele>
        <time>2013-10-26T14:38:43Z</time>
      </trkpt>
      <trkpt lat="43.41609" lon="6.08943">
        <ele>199.80000305176</ele>
        <time>2013-10-26T14:38:45Z</time>
      </trkpt>
      <trkpt lat="43.4161" lon="6.08934">
        <ele>199.80000305176</ele>
        <time>2013-10-26T14:38:47Z</time>
      </trkpt>
      <trkpt lat="43.41608" lon="6.08918">
        <ele>199.80000305176</ele>
        <time>2013-10-26T14:38:51Z</time>
      </trkpt>
      <trkpt lat="43.41603" lon="6.08887">
        <ele>199.80000305176</ele>
        <time>2013-10-26T14:38:58Z</time>
      </trkpt>
      <trkpt lat="43.416" lon="6.08867">
        <ele>199.80000305176</ele>
        <time>2013-10-26T14:39:03Z</time>
      </trkpt>
      <trkpt lat="43.41598" lon="6.08859">
        <ele>199.80000305176</ele>
        <time>2013-10-26T14:39:05Z</time>
      </trkpt>
      <trkpt lat="43.41592" lon="6.08821">
        <ele>199.80000305176</ele>
        <time>2013-10-26T14:39:15Z</time>
      </trkpt>
      <trkpt lat="43.41587" lon="6.08802">
        <ele>199.80000305176</ele>
        <time>2013-10-26T14:39:21Z</time>
      </trkpt>
      <trkpt lat="43.41585" lon="6.08801">
        <ele>199.80000305176</ele>
        <time>2013-10-26T14:39:22Z</time>
      </trkpt>
      <trkpt lat="43.41578" lon="6.08801">
        <ele>199.80000305176</ele>
        <time>2013-10-26T14:39:25Z</time>
      </trkpt>
      <trkpt lat="43.41568" lon="6.08809">
        <ele>199.80000305176</ele>
        <time>2013-10-26T14:39:29Z</time>
      </trkpt>
      <trkpt lat="43.41563" lon="6.08814">
        <ele>199.80000305176</ele>
        <time>2013-10-26T14:39:31Z</time>
      </trkpt>
      <trkpt lat="43.41548" lon="6.08828">
        <ele>199.80000305176</ele>
        <time>2013-10-26T14:39:37Z</time>
      </trkpt>
      <trkpt lat="43.41531" lon="6.08842">
        <ele>199.80000305176</ele>
        <time>2013-10-26T14:39:44Z</time>
      </trkpt>
      <trkpt lat="43.4152" lon="6.08839">
        <ele>199.80000305176</ele>
        <time>2013-10-26T14:39:48Z</time>
      </trkpt>
      <trkpt lat="43.41509" lon="6.0883">
        <ele>200.39999389648</ele>
        <time>2013-10-26T14:39:53Z</time>
      </trkpt>
      <trkpt lat="43.41504" lon="6.08826">
        <ele>201.60000610352</ele>
        <time>2013-10-26T14:39:55Z</time>
      </trkpt>
      <trkpt lat="43.41501" lon="6.08825">
        <ele>202</ele>
        <time>2013-10-26T14:39:56Z</time>
      </trkpt>
      <trkpt lat="43.41485" lon="6.08818">
        <ele>202</ele>
        <time>2013-10-26T14:40:02Z</time>
      </trkpt>
      <trkpt lat="43.41473" lon="6.088">
        <ele>202</ele>
        <time>2013-10-26T14:40:08Z</time>
      </trkpt>
      <trkpt lat="43.41468" lon="6.0878">
        <ele>202</ele>
        <time>2013-10-26T14:40:12Z</time>
      </trkpt>
      <trkpt lat="43.41466" lon="6.08769">
        <ele>202</ele>
        <time>2013-10-26T14:40:14Z</time>
      </trkpt>
      <trkpt lat="43.41462" lon="6.08749">
        <ele>202</ele>
        <time>2013-10-26T14:40:18Z</time>
      </trkpt>
      <trkpt lat="43.4145" lon="6.08702">
        <ele>202</ele>
        <time>2013-10-26T14:40:28Z</time>
      </trkpt>
      <trkpt lat="43.41444" lon="6.08677">
        <ele>202</ele>
        <time>2013-10-26T14:40:33Z</time>
      </trkpt>
      <trkpt lat="43.4144" lon="6.08663">
        <ele>202</ele>
        <time>2013-10-26T14:40:36Z</time>
      </trkpt>
      <trkpt lat="43.41437" lon="6.08643">
        <ele>202</ele>
        <time>2013-10-26T14:40:41Z</time>
      </trkpt>
      <trkpt lat="43.41433" lon="6.08621">
        <ele>202</ele>
        <time>2013-10-26T14:40:46Z</time>
      </trkpt>
      <trkpt lat="43.41425" lon="6.08592">
        <ele>202</ele>
        <time>2013-10-26T14:40:53Z</time>
      </trkpt>
      <trkpt lat="43.41415" lon="6.08564">
        <ele>202</ele>
        <time>2013-10-26T14:41:00Z</time>
      </trkpt>
      <trkpt lat="43.41405" lon="6.08538">
        <ele>202</ele>
        <time>2013-10-26T14:41:07Z</time>
      </trkpt>
      <trkpt lat="43.41397" lon="6.08514">
        <ele>202</ele>
        <time>2013-10-26T14:41:14Z</time>
      </trkpt>
      <trkpt lat="43.41388" lon="6.08492">
        <ele>202</ele>
        <time>2013-10-26T14:41:20Z</time>
      </trkpt>
      <trkpt lat="43.41365" lon="6.0844">
        <ele>202</ele>
        <time>2013-10-26T14:41:35Z</time>
      </trkpt>
      <trkpt lat="43.41352" lon="6.08413">
        <ele>202</ele>
        <time>2013-10-26T14:41:43Z</time>
      </trkpt>
      <trkpt lat="43.4134" lon="6.08387">
        <ele>202</ele>
        <time>2013-10-26T14:41:50Z</time>
      </trkpt>
      <trkpt lat="43.41328" lon="6.08359">
        <ele>202</ele>
        <time>2013-10-26T14:41:58Z</time>
      </trkpt>
      <trkpt lat="43.41326" lon="6.08354">
        <ele>202</ele>
        <time>2013-10-26T14:42:00Z</time>
      </trkpt>
      <trkpt lat="43.41322" lon="6.08345">
        <ele>202</ele>
        <time>2013-10-26T14:42:03Z</time>
      </trkpt>
      <trkpt lat="43.4132" lon="6.08339">
        <ele>202</ele>
        <time>2013-10-26T14:42:05Z</time>
      </trkpt>
      <trkpt lat="43.41301" lon="6.08292">
        <ele>202</ele>
        <time>2013-10-26T14:42:18Z</time>
      </trkpt>
      <trkpt lat="43.41296" lon="6.08272">
        <ele>202</ele>
        <time>2013-10-26T14:42:24Z</time>
      </trkpt>
      <trkpt lat="43.41281" lon="6.08218">
        <ele>202</ele>
        <time>2013-10-26T14:42:37Z</time>
      </trkpt>
      <trkpt lat="43.41263" lon="6.08167">
        <ele>202</ele>
        <time>2013-10-26T14:42:50Z</time>
      </trkpt>
      <trkpt lat="43.41253" lon="6.08142">
        <ele>202</ele>
        <time>2013-10-26T14:42:57Z</time>
      </trkpt>
      <trkpt lat="43.41242" lon="6.0812">
        <ele>202</ele>
        <time>2013-10-26T14:43:03Z</time>
      </trkpt>
      <trkpt lat="43.41231" lon="6.08098">
        <ele>202</ele>
        <time>2013-10-26T14:43:09Z</time>
      </trkpt>
      <trkpt lat="43.41218" lon="6.08073">
        <ele>202</ele>
        <time>2013-10-26T14:43:15Z</time>
      </trkpt>
      <trkpt lat="43.41211" lon="6.08065">
        <ele>202</ele>
        <time>2013-10-26T14:43:18Z</time>
      </trkpt>
      <trkpt lat="43.41208" lon="6.08062">
        <ele>202</ele>
        <time>2013-10-26T14:43:20Z</time>
      </trkpt>
      <trkpt lat="43.412" lon="6.08053">
        <ele>202</ele>
        <time>2013-10-26T14:43:24Z</time>
      </trkpt>
      <trkpt lat="43.41199" lon="6.08051">
        <ele>202</ele>
        <time>2013-10-26T14:43:25Z</time>
      </trkpt>
      <trkpt lat="43.41197" lon="6.08049">
        <ele>202</ele>
        <time>2013-10-26T14:43:26Z</time>
      </trkpt>
      <trkpt lat="43.41191" lon="6.08042">
        <ele>202.80000305176</ele>
        <time>2013-10-26T14:43:29Z</time>
      </trkpt>
      <trkpt lat="43.41171" lon="6.08022">
        <ele>204</ele>
        <time>2013-10-26T14:43:37Z</time>
      </trkpt>
      <trkpt lat="43.41155" lon="6.08006">
        <ele>204</ele>
        <time>2013-10-26T14:43:43Z</time>
      </trkpt>
      <trkpt lat="43.41153" lon="6.08003">
        <ele>204.39999389648</ele>
        <time>2013-10-26T14:43:44Z</time>
      </trkpt>
      <trkpt lat="43.41147" lon="6.07998">
        <ele>205.39999389648</ele>
        <time>2013-10-26T14:43:46Z</time>
      </trkpt>
      <trkpt lat="43.41141" lon="6.07995">
        <ele>206.19999694824</ele>
        <time>2013-10-26T14:43:48Z</time>
      </trkpt>
      <trkpt lat="43.41136" lon="6.07991">
        <ele>206.19999694824</ele>
        <time>2013-10-26T14:43:50Z</time>
      </trkpt>
      <trkpt lat="43.41124" lon="6.07987">
        <ele>206.19999694824</ele>
        <time>2013-10-26T14:43:55Z</time>
      </trkpt>
      <trkpt lat="43.41117" lon="6.07988">
        <ele>207.39999389648</ele>
        <time>2013-10-26T14:43:58Z</time>
      </trkpt>
      <trkpt lat="43.4111" lon="6.07992">
        <ele>208.19999694824</ele>
        <time>2013-10-26T14:44:01Z</time>
      </trkpt>
      <trkpt lat="43.41096" lon="6.08007">
        <ele>209.80000305176</ele>
        <time>2013-10-26T14:44:09Z</time>
      </trkpt>
      <trkpt lat="43.41089" lon="6.08016">
        <ele>210.19999694824</ele>
        <time>2013-10-26T14:44:14Z</time>
      </trkpt>
      <trkpt lat="43.41082" lon="6.08026">
        <ele>211.60000610352</ele>
        <time>2013-10-26T14:44:20Z</time>
      </trkpt>
      <trkpt lat="43.41079" lon="6.08027">
        <ele>212.39999389648</ele>
        <time>2013-10-26T14:44:22Z</time>
      </trkpt>
      <trkpt lat="43.41075" lon="6.08029">
        <ele>212.39999389648</ele>
        <time>2013-10-26T14:44:25Z</time>
      </trkpt>
      <trkpt lat="43.41071" lon="6.08027">
        <ele>212.39999389648</ele>
        <time>2013-10-26T14:44:28Z</time>
      </trkpt>
      <trkpt lat="43.41071" lon="6.08027">
        <ele>212.39999389648</ele>
        <time>2013-10-26T14:44:32Z</time>
      </trkpt>
      <trkpt lat="43.41071" lon="6.08027">
        <ele>212.39999389648</ele>
        <time>2013-10-26T14:44:53Z</time>
      </trkpt>
      <trkpt lat="43.41071" lon="6.08027">
        <ele>212.39999389648</ele>
        <time>2013-10-26T14:45:43Z</time>
      </trkpt>
      <trkpt lat="43.41071" lon="6.08027">
        <ele>212.39999389648</ele>
        <time>2013-10-26T14:46:30Z</time>
      </trkpt>
      <trkpt lat="43.41071" lon="6.08027">
        <ele>212.39999389648</ele>
        <time>2013-10-26T14:46:42Z</time>
      </trkpt>
      <trkpt lat="43.41068" lon="6.08022">
        <ele>212.39999389648</ele>
        <time>2013-10-26T14:46:51Z</time>
      </trkpt>
      <trkpt lat="43.41058" lon="6.08002">
        <ele>212.39999389648</ele>
        <time>2013-10-26T14:46:56Z</time>
      </trkpt>
      <trkpt lat="43.41047" lon="6.07979">
        <ele>212</ele>
        <time>2013-10-26T14:47:00Z</time>
      </trkpt>
      <trkpt lat="43.41044" lon="6.07974">
        <ele>211.60000610352</ele>
        <time>2013-10-26T14:47:01Z</time>
      </trkpt>
      <trkpt lat="43.41041" lon="6.07968">
        <ele>211.19999694824</ele>
        <time>2013-10-26T14:47:02Z</time>
      </trkpt>
      <trkpt lat="43.41037" lon="6.07961">
        <ele>210.60000610352</ele>
        <time>2013-10-26T14:47:03Z</time>
      </trkpt>
      <trkpt lat="43.41034" lon="6.07954">
        <ele>210.19999694824</ele>
        <time>2013-10-26T14:47:04Z</time>
      </trkpt>
      <trkpt lat="43.41026" lon="6.07938">
        <ele>209.80000305176</ele>
        <time>2013-10-26T14:47:06Z</time>
      </trkpt>
      <trkpt lat="43.41022" lon="6.0793">
        <ele>209.39999389648</ele>
        <time>2013-10-26T14:47:07Z</time>
      </trkpt>
      <trkpt lat="43.41018" lon="6.07922">
        <ele>209</ele>
        <time>2013-10-26T14:47:08Z</time>
      </trkpt>
      <trkpt lat="43.41013" lon="6.07913">
        <ele>208.60000610352</ele>
        <time>2013-10-26T14:47:09Z</time>
      </trkpt>
      <trkpt lat="43.41009" lon="6.07904">
        <ele>208.19999694824</ele>
        <time>2013-10-26T14:47:10Z</time>
      </trkpt>
      <trkpt lat="43.41005" lon="6.07897">
        <ele>207.80000305176</ele>
        <time>2013-10-26T14:47:11Z</time>
      </trkpt>
      <trkpt lat="43.41002" lon="6.07888">
        <ele>207.19999694824</ele>
        <time>2013-10-26T14:47:12Z</time>
      </trkpt>
      <trkpt lat="43.40998" lon="6.0788">
        <ele>206.80000305176</ele>
        <time>2013-10-26T14:47:13Z</time>
      </trkpt>
      <trkpt lat="43.40991" lon="6.07865">
        <ele>205.80000305176</ele>
        <time>2013-10-26T14:47:15Z</time>
      </trkpt>
      <trkpt lat="43.40986" lon="6.07855">
        <ele>205.80000305176</ele>
        <time>2013-10-26T14:47:17Z</time>
      </trkpt>
      <trkpt lat="43.40972" lon="6.07841">
        <ele>205.80000305176</ele>
        <time>2013-10-26T14:47:21Z</time>
      </trkpt>
      <trkpt lat="43.40968" lon="6.07836">
        <ele>205.39999389648</ele>
        <time>2013-10-26T14:47:22Z</time>
      </trkpt>
      <trkpt lat="43.40963" lon="6.07834">
        <ele>205</ele>
        <time>2013-10-26T14:47:23Z</time>
      </trkpt>
      <trkpt lat="43.40959" lon="6.07832">
        <ele>204.60000610352</ele>
        <time>2013-10-26T14:47:24Z</time>
      </trkpt>
      <trkpt lat="43.40955" lon="6.07829">
        <ele>204.19999694824</ele>
        <time>2013-10-26T14:47:25Z</time>
      </trkpt>
      <trkpt lat="43.4095" lon="6.07826">
        <ele>203.80000305176</ele>
        <time>2013-10-26T14:47:26Z</time>
      </trkpt>
      <trkpt lat="43.40945" lon="6.07823">
        <ele>203.80000305176</ele>
        <time>2013-10-26T14:47:27Z</time>
      </trkpt>
      <trkpt lat="43.40923" lon="6.07811">
        <ele>203.80000305176</ele>
        <time>2013-10-26T14:47:32Z</time>
      </trkpt>
      <trkpt lat="43.40913" lon="6.07805">
        <ele>203.80000305176</ele>
        <time>2013-10-26T14:47:34Z</time>
      </trkpt>
      <trkpt lat="43.40888" lon="6.07789">
        <ele>203.80000305176</ele>
        <time>2013-10-26T14:47:39Z</time>
      </trkpt>
      <trkpt lat="43.40879" lon="6.0778">
        <ele>203.80000305176</ele>
        <time>2013-10-26T14:47:41Z</time>
      </trkpt>
      <trkpt lat="43.40867" lon="6.07765">
        <ele>203.80000305176</ele>
        <time>2013-10-26T14:47:44Z</time>
      </trkpt>
      <trkpt lat="43.40851" lon="6.07745">
        <ele>203.80000305176</ele>
        <time>2013-10-26T14:47:48Z</time>
      </trkpt>
      <trkpt lat="43.40834" lon="6.07725">
        <ele>203.80000305176</ele>
        <time>2013-10-26T14:47:52Z</time>
      </trkpt>
      <trkpt lat="43.40815" lon="6.07709">
        <ele>203.80000305176</ele>
        <time>2013-10-26T14:47:56Z</time>
      </trkpt>
      <trkpt lat="43.408" lon="6.077">
        <ele>203.80000305176</ele>
        <time>2013-10-26T14:47:59Z</time>
      </trkpt>
      <trkpt lat="43.40786" lon="6.07693">
        <ele>203.80000305176</ele>
        <time>2013-10-26T14:48:02Z</time>
      </trkpt>
      <trkpt lat="43.40749" lon="6.07676">
        <ele>203.80000305176</ele>
        <time>2013-10-26T14:48:10Z</time>
      </trkpt>
      <trkpt lat="43.4073" lon="6.0766">
        <ele>203.80000305176</ele>
        <time>2013-10-26T14:48:15Z</time>
      </trkpt>
      <trkpt lat="43.40726" lon="6.07656">
        <ele>203.80000305176</ele>
        <time>2013-10-26T14:48:16Z</time>
      </trkpt>
      <trkpt lat="43.40717" lon="6.07636">
        <ele>203.80000305176</ele>
        <time>2013-10-26T14:48:20Z</time>
      </trkpt>
      <trkpt lat="43.40716" lon="6.07629">
        <ele>203.80000305176</ele>
        <time>2013-10-26T14:48:21Z</time>
      </trkpt>
      <trkpt lat="43.40708" lon="6.07581">
        <ele>204.60000610352</ele>
        <time>2013-10-26T14:48:28Z</time>
      </trkpt>
      <trkpt lat="43.40705" lon="6.07566">
        <ele>205.80000305176</ele>
        <time>2013-10-26T14:48:30Z</time>
      </trkpt>
      <trkpt lat="43.40703" lon="6.07553">
        <ele>205.80000305176</ele>
        <time>2013-10-26T14:48:32Z</time>
      </trkpt>
      <trkpt lat="43.40701" lon="6.0753">
        <ele>205.80000305176</ele>
        <time>2013-10-26T14:48:35Z</time>
      </trkpt>
      <trkpt lat="43.40693" lon="6.07482">
        <ele>205.80000305176</ele>
        <time>2013-10-26T14:48:42Z</time>
      </trkpt>
      <trkpt lat="43.40687" lon="6.07456">
        <ele>205.80000305176</ele>
        <time>2013-10-26T14:48:46Z</time>
      </trkpt>
      <trkpt lat="43.4068" lon="6.07437">
        <ele>205.80000305176</ele>
        <time>2013-10-26T14:48:49Z</time>
      </trkpt>
      <trkpt lat="43.40674" lon="6.07426">
        <ele>206.19999694824</ele>
        <time>2013-10-26T14:48:51Z</time>
      </trkpt>
      <trkpt lat="43.40665" lon="6.0741">
        <ele>207.39999389648</ele>
        <time>2013-10-26T14:48:54Z</time>
      </trkpt>
      <trkpt lat="43.40659" lon="6.07399">
        <ele>207.80000305176</ele>
        <time>2013-10-26T14:48:56Z</time>
      </trkpt>
      <trkpt lat="43.40652" lon="6.07384">
        <ele>207.80000305176</ele>
        <time>2013-10-26T14:48:59Z</time>
      </trkpt>
      <trkpt lat="43.40642" lon="6.07364">
        <ele>207.80000305176</ele>
        <time>2013-10-26T14:49:03Z</time>
      </trkpt>
      <trkpt lat="43.40637" lon="6.0735">
        <ele>207.80000305176</ele>
        <time>2013-10-26T14:49:07Z</time>
      </trkpt>
      <trkpt lat="43.40636" lon="6.07347">
        <ele>207.80000305176</ele>
        <time>2013-10-26T14:49:08Z</time>
      </trkpt>
      <trkpt lat="43.40636" lon="6.07344">
        <ele>207.80000305176</ele>
        <time>2013-10-26T14:49:10Z</time>
      </trkpt>
      <trkpt lat="43.40632" lon="6.07331">
        <ele>207.80000305176</ele>
        <time>2013-10-26T14:49:14Z</time>
      </trkpt>
      <trkpt lat="43.40618" lon="6.07311">
        <ele>207.80000305176</ele>
        <time>2013-10-26T14:49:20Z</time>
      </trkpt>
      <trkpt lat="43.40604" lon="6.07294">
        <ele>207.80000305176</ele>
        <time>2013-10-26T14:49:27Z</time>
      </trkpt>
      <trkpt lat="43.40602" lon="6.07291">
        <ele>207.80000305176</ele>
        <time>2013-10-26T14:49:29Z</time>
      </trkpt>
      <trkpt lat="43.40602" lon="6.07291">
        <ele>207.80000305176</ele>
        <time>2013-10-26T14:49:45Z</time>
      </trkpt>
      <trkpt lat="43.40602" lon="6.07291">
        <ele>207.80000305176</ele>
        <time>2013-10-26T14:50:10Z</time>
      </trkpt>
      <trkpt lat="43.40602" lon="6.0729">
        <ele>207.80000305176</ele>
        <time>2013-10-26T14:50:14Z</time>
      </trkpt>
      <trkpt lat="43.406" lon="6.07287">
        <ele>207.80000305176</ele>
        <time>2013-10-26T14:50:16Z</time>
      </trkpt>
      <trkpt lat="43.40594" lon="6.07276">
        <ele>207.80000305176</ele>
        <time>2013-10-26T14:50:20Z</time>
      </trkpt>
      <trkpt lat="43.40594" lon="6.07272">
        <ele>208.19999694824</ele>
        <time>2013-10-26T14:50:21Z</time>
      </trkpt>
      <trkpt lat="43.40593" lon="6.07268">
        <ele>208.60000610352</ele>
        <time>2013-10-26T14:50:22Z</time>
      </trkpt>
      <trkpt lat="43.40593" lon="6.07264">
        <ele>209</ele>
        <time>2013-10-26T14:50:23Z</time>
      </trkpt>
      <trkpt lat="43.40593" lon="6.07259">
        <ele>209.39999389648</ele>
        <time>2013-10-26T14:50:24Z</time>
      </trkpt>
      <trkpt lat="43.40593" lon="6.07254">
        <ele>209.80000305176</ele>
        <time>2013-10-26T14:50:25Z</time>
      </trkpt>
      <trkpt lat="43.40591" lon="6.07211">
        <ele>209.80000305176</ele>
        <time>2013-10-26T14:50:33Z</time>
      </trkpt>
      <trkpt lat="43.4059" lon="6.07166">
        <ele>209.80000305176</ele>
        <time>2013-10-26T14:50:41Z</time>
      </trkpt>
      <trkpt lat="43.40589" lon="6.07127">
        <ele>209.80000305176</ele>
        <time>2013-10-26T14:50:48Z</time>
      </trkpt>
      <trkpt lat="43.40589" lon="6.07108">
        <ele>210.39999389648</ele>
        <time>2013-10-26T14:50:51Z</time>
      </trkpt>
      <trkpt lat="43.40588" lon="6.07088">
        <ele>211.60000610352</ele>
        <time>2013-10-26T14:50:54Z</time>
      </trkpt>
      <trkpt lat="43.40588" lon="6.07081">
        <ele>212</ele>
        <time>2013-10-26T14:50:55Z</time>
      </trkpt>
      <trkpt lat="43.40587" lon="6.07068">
        <ele>212</ele>
        <time>2013-10-26T14:50:57Z</time>
      </trkpt>
      <trkpt lat="43.40586" lon="6.07055">
        <ele>212</ele>
        <time>2013-10-26T14:50:59Z</time>
      </trkpt>
      <trkpt lat="43.40583" lon="6.07021">
        <ele>212.39999389648</ele>
        <time>2013-10-26T14:51:06Z</time>
      </trkpt>
      <trkpt lat="43.40583" lon="6.07016">
        <ele>212.80000305176</ele>
        <time>2013-10-26T14:51:07Z</time>
      </trkpt>
      <trkpt lat="43.40583" lon="6.07011">
        <ele>213.19999694824</ele>
        <time>2013-10-26T14:51:08Z</time>
      </trkpt>
      <trkpt lat="43.40582" lon="6.07002">
        <ele>214</ele>
        <time>2013-10-26T14:51:10Z</time>
      </trkpt>
      <trkpt lat="43.4058" lon="6.06987">
        <ele>214</ele>
        <time>2013-10-26T14:51:13Z</time>
      </trkpt>
      <trkpt lat="43.40574" lon="6.06944">
        <ele>214</ele>
        <time>2013-10-26T14:51:21Z</time>
      </trkpt>
      <trkpt lat="43.40569" lon="6.06927">
        <ele>214</ele>
        <time>2013-10-26T14:51:24Z</time>
      </trkpt>
      <trkpt lat="43.40564" lon="6.06919">
        <ele>214</ele>
        <time>2013-10-26T14:51:26Z</time>
      </trkpt>
      <trkpt lat="43.40545" lon="6.06913">
        <ele>214</ele>
        <time>2013-10-26T14:51:31Z</time>
      </trkpt>
      <trkpt lat="43.40529" lon="6.06911">
        <ele>214.39999389648</ele>
        <time>2013-10-26T14:51:35Z</time>
      </trkpt>
      <trkpt lat="43.40515" lon="6.06909">
        <ele>216.19999694824</ele>
        <time>2013-10-26T14:51:39Z</time>
      </trkpt>
      <trkpt lat="43.40494" lon="6.06907">
        <ele>216.19999694824</ele>
        <time>2013-10-26T14:51:45Z</time>
      </trkpt>
      <trkpt lat="43.40472" lon="6.06904">
        <ele>216.60000610352</ele>
        <time>2013-10-26T14:51:51Z</time>
      </trkpt>
      <trkpt lat="43.40461" lon="6.06901">
        <ele>217.80000305176</ele>
        <time>2013-10-26T14:51:54Z</time>
      </trkpt>
      <trkpt lat="43.40458" lon="6.069">
        <ele>218.19999694824</ele>
        <time>2013-10-26T14:51:55Z</time>
      </trkpt>
      <trkpt lat="43.40456" lon="6.06896">
        <ele>218.19999694824</ele>
        <time>2013-10-26T14:51:56Z</time>
      </trkpt>
      <trkpt lat="43.40454" lon="6.06892">
        <ele>218.19999694824</ele>
        <time>2013-10-26T14:51:57Z</time>
      </trkpt>
      <trkpt lat="43.40456" lon="6.06871">
        <ele>218.19999694824</ele>
        <time>2013-10-26T14:52:01Z</time>
      </trkpt>
      <trkpt lat="43.40461" lon="6.06847">
        <ele>218.19999694824</ele>
        <time>2013-10-26T14:52:06Z</time>
      </trkpt>
      <trkpt lat="43.40463" lon="6.06812">
        <ele>218.60000610352</ele>
        <time>2013-10-26T14:52:12Z</time>
      </trkpt>
      <trkpt lat="43.40462" lon="6.06771">
        <ele>220.39999389648</ele>
        <time>2013-10-26T14:52:19Z</time>
      </trkpt>
      <trkpt lat="43.40462" lon="6.06724">
        <ele>220.39999389648</ele>
        <time>2013-10-26T14:52:26Z</time>
      </trkpt>
      <trkpt lat="43.40462" lon="6.06718">
        <ele>220.39999389648</ele>
        <time>2013-10-26T14:52:27Z</time>
      </trkpt>
      <trkpt lat="43.40469" lon="6.06694">
        <ele>220.39999389648</ele>
        <time>2013-10-26T14:52:31Z</time>
      </trkpt>
      <trkpt lat="43.40484" lon="6.06637">
        <ele>220.39999389648</ele>
        <time>2013-10-26T14:52:40Z</time>
      </trkpt>
      <trkpt lat="43.40487" lon="6.06618">
        <ele>220.39999389648</ele>
        <time>2013-10-26T14:52:43Z</time>
      </trkpt>
      <trkpt lat="43.40495" lon="6.06572">
        <ele>220.39999389648</ele>
        <time>2013-10-26T14:52:50Z</time>
      </trkpt>
      <trkpt lat="43.40499" lon="6.06543">
        <ele>220.39999389648</ele>
        <time>2013-10-26T14:52:55Z</time>
      </trkpt>
      <trkpt lat="43.405" lon="6.06537">
        <ele>220.39999389648</ele>
        <time>2013-10-26T14:52:56Z</time>
      </trkpt>
      <trkpt lat="43.40501" lon="6.06525">
        <ele>220.39999389648</ele>
        <time>2013-10-26T14:52:58Z</time>
      </trkpt>
      <trkpt lat="43.40501" lon="6.06502">
        <ele>220.39999389648</ele>
        <time>2013-10-26T14:53:02Z</time>
      </trkpt>
      <trkpt lat="43.40502" lon="6.06488">
        <ele>220.39999389648</ele>
        <time>2013-10-26T14:53:05Z</time>
      </trkpt>
      <trkpt lat="43.40502" lon="6.06486">
        <ele>220.39999389648</ele>
        <time>2013-10-26T14:53:06Z</time>
      </trkpt>
      <trkpt lat="43.405" lon="6.06481">
        <ele>220.39999389648</ele>
        <time>2013-10-26T14:53:08Z</time>
      </trkpt>
      <trkpt lat="43.40493" lon="6.06476">
        <ele>220.39999389648</ele>
        <time>2013-10-26T14:53:11Z</time>
      </trkpt>
      <trkpt lat="43.40487" lon="6.06472">
        <ele>220.39999389648</ele>
        <time>2013-10-26T14:53:13Z</time>
      </trkpt>
      <trkpt lat="43.40474" lon="6.06467">
        <ele>220.39999389648</ele>
        <time>2013-10-26T14:53:16Z</time>
      </trkpt>
      <trkpt lat="43.40466" lon="6.06464">
        <ele>220.39999389648</ele>
        <time>2013-10-26T14:53:18Z</time>
      </trkpt>
      <trkpt lat="43.40452" lon="6.06459">
        <ele>220.39999389648</ele>
        <time>2013-10-26T14:53:21Z</time>
      </trkpt>
      <trkpt lat="43.40447" lon="6.06458">
        <ele>220.39999389648</ele>
        <time>2013-10-26T14:53:22Z</time>
      </trkpt>
      <trkpt lat="43.4044" lon="6.06455">
        <ele>220.80000305176</ele>
        <time>2013-10-26T14:53:24Z</time>
      </trkpt>
      <trkpt lat="43.40431" lon="6.06454">
        <ele>221.60000610352</ele>
        <time>2013-10-26T14:53:26Z</time>
      </trkpt>
      <trkpt lat="43.40424" lon="6.06457">
        <ele>222.39999389648</ele>
        <time>2013-10-26T14:53:28Z</time>
      </trkpt>
      <trkpt lat="43.40414" lon="6.06474">
        <ele>222.39999389648</ele>
        <time>2013-10-26T14:53:32Z</time>
      </trkpt>
      <trkpt lat="43.40407" lon="6.06499">
        <ele>222.39999389648</ele>
        <time>2013-10-26T14:53:37Z</time>
      </trkpt>
      <trkpt lat="43.40405" lon="6.06509">
        <ele>222.39999389648</ele>
        <time>2013-10-26T14:53:39Z</time>
      </trkpt>
      <trkpt lat="43.40403" lon="6.06537">
        <ele>222.39999389648</ele>
        <time>2013-10-26T14:53:45Z</time>
      </trkpt>
      <trkpt lat="43.40405" lon="6.06541">
        <ele>222.39999389648</ele>
        <time>2013-10-26T14:53:47Z</time>
      </trkpt>
      <trkpt lat="43.40408" lon="6.06543">
        <ele>222.39999389648</ele>
        <time>2013-10-26T14:53:49Z</time>
      </trkpt>
      <trkpt lat="43.40409" lon="6.06544">
        <ele>222.39999389648</ele>
        <time>2013-10-26T14:53:53Z</time>
      </trkpt>
      <trkpt lat="43.40409" lon="6.06544">
        <ele>222.39999389648</ele>
        <time>2013-10-26T14:53:56Z</time>
      </trkpt>
    </trkseg>
  </trk>
</gpx>